<?xml version="1.0" encoding="UTF-8" standalone="no" ?>
<gpx xmlns="http://www.topografix.com/GPX/1/1" xmlns:xsi="http://www.w3.org/2001/XMLSchema-instance" xsi:schemaLocation="http://www.topografix.com/GPX/1/1 http://www.topografix.com/GPX/1/1/gpx.xsd" version="1.1" creator="VisuGPX - https://www.visugpx.com">
  <metadata>
    <name>Rando de l'ESPAR forêt de Raismes 07-03-2010</name>
    <desc><![CDATA[Belle rando 100% forêt avec terrils, un peu de boue et sol bien souvent gelé en cette période!]]></desc>
  </metadata>
  <trk>
    <name><![CDATA[Rando de l'ESPAR forêt de Raismes 07-03-2010_1]]></name>
    <trkseg>
      <trkpt lat="50.39735" lon="3.48403">
        <ele>26.092895507812</ele>
        <time>2010-03-07T07:47:13Z</time>
      </trkpt>
      <trkpt lat="50.39745" lon="3.48383">
        <ele>24.651000976562</ele>
        <time>2010-03-07T07:47:18Z</time>
      </trkpt>
      <trkpt lat="50.39748" lon="3.48377">
        <ele>24.170288085938</ele>
        <time>2010-03-07T07:47:19Z</time>
      </trkpt>
      <trkpt lat="50.39765" lon="3.48347">
        <ele>22.728271484375</ele>
        <time>2010-03-07T07:47:25Z</time>
      </trkpt>
      <trkpt lat="50.39772" lon="3.48342">
        <ele>22.728271484375</ele>
        <time>2010-03-07T07:47:27Z</time>
      </trkpt>
      <trkpt lat="50.39791" lon="3.48347">
        <ele>21.766967773438</ele>
        <time>2010-03-07T07:47:31Z</time>
      </trkpt>
      <trkpt lat="50.3983" lon="3.48373">
        <ele>20.8056640625</ele>
        <time>2010-03-07T07:47:38Z</time>
      </trkpt>
      <trkpt lat="50.39861" lon="3.48395">
        <ele>20.8056640625</ele>
        <time>2010-03-07T07:47:44Z</time>
      </trkpt>
      <trkpt lat="50.39895" lon="3.48403">
        <ele>20.8056640625</ele>
        <time>2010-03-07T07:47:50Z</time>
      </trkpt>
      <trkpt lat="50.39905" lon="3.48395">
        <ele>20.8056640625</ele>
        <time>2010-03-07T07:47:52Z</time>
      </trkpt>
      <trkpt lat="50.39915" lon="3.48384">
        <ele>20.324951171875</ele>
        <time>2010-03-07T07:47:54Z</time>
      </trkpt>
      <trkpt lat="50.39944" lon="3.48374">
        <ele>19.844360351562</ele>
        <time>2010-03-07T07:47:59Z</time>
      </trkpt>
      <trkpt lat="50.39963" lon="3.48373">
        <ele>19.844360351562</ele>
        <time>2010-03-07T07:48:02Z</time>
      </trkpt>
      <trkpt lat="50.39977" lon="3.48358">
        <ele>19.844360351562</ele>
        <time>2010-03-07T07:48:06Z</time>
      </trkpt>
      <trkpt lat="50.39982" lon="3.48317">
        <ele>21.766967773438</ele>
        <time>2010-03-07T07:48:11Z</time>
      </trkpt>
      <trkpt lat="50.39984" lon="3.48284">
        <ele>25.131713867188</ele>
        <time>2010-03-07T07:48:16Z</time>
      </trkpt>
      <trkpt lat="50.39983" lon="3.48264">
        <ele>26.573608398438</ele>
        <time>2010-03-07T07:48:20Z</time>
      </trkpt>
      <trkpt lat="50.39991" lon="3.48253">
        <ele>25.6123046875</ele>
        <time>2010-03-07T07:48:24Z</time>
      </trkpt>
      <trkpt lat="50.40005" lon="3.48265">
        <ele>26.573608398438</ele>
        <time>2010-03-07T07:48:29Z</time>
      </trkpt>
      <trkpt lat="50.40014" lon="3.4828">
        <ele>27.054321289062</ele>
        <time>2010-03-07T07:48:34Z</time>
      </trkpt>
      <trkpt lat="50.40023" lon="3.48293">
        <ele>26.092895507812</ele>
        <time>2010-03-07T07:48:39Z</time>
      </trkpt>
      <trkpt lat="50.40025" lon="3.48295">
        <ele>26.092895507812</ele>
        <time>2010-03-07T07:48:40Z</time>
      </trkpt>
      <trkpt lat="50.40026" lon="3.48324">
        <ele>23.208984375</ele>
        <time>2010-03-07T07:48:45Z</time>
      </trkpt>
      <trkpt lat="50.40037" lon="3.48342">
        <ele>20.324951171875</ele>
        <time>2010-03-07T07:48:49Z</time>
      </trkpt>
      <trkpt lat="50.40044" lon="3.48328">
        <ele>18.883056640625</ele>
        <time>2010-03-07T07:48:52Z</time>
      </trkpt>
      <trkpt lat="50.40057" lon="3.48282">
        <ele>18.40234375</ele>
        <time>2010-03-07T07:48:58Z</time>
      </trkpt>
      <trkpt lat="50.40053" lon="3.48258">
        <ele>18.883056640625</ele>
        <time>2010-03-07T07:49:02Z</time>
      </trkpt>
      <trkpt lat="50.40041" lon="3.48254">
        <ele>19.844360351562</ele>
        <time>2010-03-07T07:49:05Z</time>
      </trkpt>
      <trkpt lat="50.40014" lon="3.48241">
        <ele>22.728271484375</ele>
        <time>2010-03-07T07:49:12Z</time>
      </trkpt>
      <trkpt lat="50.40009" lon="3.48241">
        <ele>23.689575195312</ele>
        <time>2010-03-07T07:49:14Z</time>
      </trkpt>
      <trkpt lat="50.40008" lon="3.48228">
        <ele>24.651000976562</ele>
        <time>2010-03-07T07:49:19Z</time>
      </trkpt>
      <trkpt lat="50.4001" lon="3.48213">
        <ele>22.728271484375</ele>
        <time>2010-03-07T07:49:21Z</time>
      </trkpt>
      <trkpt lat="50.40006" lon="3.48162">
        <ele>20.8056640625</ele>
        <time>2010-03-07T07:49:25Z</time>
      </trkpt>
      <trkpt lat="50.3999" lon="3.48124">
        <ele>20.8056640625</ele>
        <time>2010-03-07T07:49:29Z</time>
      </trkpt>
      <trkpt lat="50.39974" lon="3.48102">
        <ele>20.8056640625</ele>
        <time>2010-03-07T07:49:32Z</time>
      </trkpt>
      <trkpt lat="50.39942" lon="3.48064">
        <ele>20.8056640625</ele>
        <time>2010-03-07T07:49:38Z</time>
      </trkpt>
      <trkpt lat="50.39909" lon="3.48033">
        <ele>20.8056640625</ele>
        <time>2010-03-07T07:49:44Z</time>
      </trkpt>
      <trkpt lat="50.39894" lon="3.48002">
        <ele>20.8056640625</ele>
        <time>2010-03-07T07:49:48Z</time>
      </trkpt>
      <trkpt lat="50.39893" lon="3.47963">
        <ele>20.8056640625</ele>
        <time>2010-03-07T07:49:52Z</time>
      </trkpt>
      <trkpt lat="50.399" lon="3.47928">
        <ele>21.286376953125</ele>
        <time>2010-03-07T07:49:56Z</time>
      </trkpt>
      <trkpt lat="50.39909" lon="3.47917">
        <ele>21.286376953125</ele>
        <time>2010-03-07T07:49:58Z</time>
      </trkpt>
      <trkpt lat="50.3992" lon="3.47909">
        <ele>21.766967773438</ele>
        <time>2010-03-07T07:50:00Z</time>
      </trkpt>
      <trkpt lat="50.39949" lon="3.47903">
        <ele>21.766967773438</ele>
        <time>2010-03-07T07:50:05Z</time>
      </trkpt>
      <trkpt lat="50.39965" lon="3.47915">
        <ele>21.286376953125</ele>
        <time>2010-03-07T07:50:08Z</time>
      </trkpt>
      <trkpt lat="50.39974" lon="3.47926">
        <ele>20.8056640625</ele>
        <time>2010-03-07T07:50:10Z</time>
      </trkpt>
      <trkpt lat="50.39996" lon="3.4794">
        <ele>20.8056640625</ele>
        <time>2010-03-07T07:50:14Z</time>
      </trkpt>
      <trkpt lat="50.40015" lon="3.4796">
        <ele>21.286376953125</ele>
        <time>2010-03-07T07:50:18Z</time>
      </trkpt>
      <trkpt lat="50.40023" lon="3.47994">
        <ele>21.286376953125</ele>
        <time>2010-03-07T07:50:22Z</time>
      </trkpt>
      <trkpt lat="50.4003" lon="3.48016">
        <ele>21.286376953125</ele>
        <time>2010-03-07T07:50:25Z</time>
      </trkpt>
      <trkpt lat="50.40035" lon="3.48021">
        <ele>21.286376953125</ele>
        <time>2010-03-07T07:50:26Z</time>
      </trkpt>
      <trkpt lat="50.40049" lon="3.48035">
        <ele>21.286376953125</ele>
        <time>2010-03-07T07:50:29Z</time>
      </trkpt>
      <trkpt lat="50.40062" lon="3.48059">
        <ele>21.766967773438</ele>
        <time>2010-03-07T07:50:33Z</time>
      </trkpt>
      <trkpt lat="50.40073" lon="3.48065">
        <ele>21.766967773438</ele>
        <time>2010-03-07T07:50:36Z</time>
      </trkpt>
      <trkpt lat="50.40096" lon="3.48082">
        <ele>21.766967773438</ele>
        <time>2010-03-07T07:50:41Z</time>
      </trkpt>
      <trkpt lat="50.40117" lon="3.48091">
        <ele>21.766967773438</ele>
        <time>2010-03-07T07:50:45Z</time>
      </trkpt>
      <trkpt lat="50.40161" lon="3.48091">
        <ele>21.286376953125</ele>
        <time>2010-03-07T07:50:53Z</time>
      </trkpt>
      <trkpt lat="50.40184" lon="3.4809">
        <ele>21.286376953125</ele>
        <time>2010-03-07T07:50:57Z</time>
      </trkpt>
      <trkpt lat="50.40208" lon="3.48094">
        <ele>21.766967773438</ele>
        <time>2010-03-07T07:51:02Z</time>
      </trkpt>
      <trkpt lat="50.40226" lon="3.48095">
        <ele>21.766967773438</ele>
        <time>2010-03-07T07:51:06Z</time>
      </trkpt>
      <trkpt lat="50.40244" lon="3.48072">
        <ele>20.8056640625</ele>
        <time>2010-03-07T07:51:11Z</time>
      </trkpt>
      <trkpt lat="50.40248" lon="3.48033">
        <ele>20.8056640625</ele>
        <time>2010-03-07T07:51:16Z</time>
      </trkpt>
      <trkpt lat="50.4024" lon="3.4802">
        <ele>21.286376953125</ele>
        <time>2010-03-07T07:51:19Z</time>
      </trkpt>
      <trkpt lat="50.40229" lon="3.47996">
        <ele>20.8056640625</ele>
        <time>2010-03-07T07:51:23Z</time>
      </trkpt>
      <trkpt lat="50.40229" lon="3.47988">
        <ele>20.324951171875</ele>
        <time>2010-03-07T07:51:24Z</time>
      </trkpt>
      <trkpt lat="50.40232" lon="3.47937">
        <ele>20.8056640625</ele>
        <time>2010-03-07T07:51:31Z</time>
      </trkpt>
      <trkpt lat="50.40235" lon="3.47881">
        <ele>20.324951171875</ele>
        <time>2010-03-07T07:51:39Z</time>
      </trkpt>
      <trkpt lat="50.40238" lon="3.47815">
        <ele>21.286376953125</ele>
        <time>2010-03-07T07:51:48Z</time>
      </trkpt>
      <trkpt lat="50.4024" lon="3.47802">
        <ele>21.286376953125</ele>
        <time>2010-03-07T07:51:50Z</time>
      </trkpt>
      <trkpt lat="50.40242" lon="3.47751">
        <ele>20.324951171875</ele>
        <time>2010-03-07T07:51:56Z</time>
      </trkpt>
      <trkpt lat="50.40244" lon="3.47716">
        <ele>20.324951171875</ele>
        <time>2010-03-07T07:52:00Z</time>
      </trkpt>
      <trkpt lat="50.40245" lon="3.47694">
        <ele>21.286376953125</ele>
        <time>2010-03-07T07:52:04Z</time>
      </trkpt>
      <trkpt lat="50.40251" lon="3.47686">
        <ele>20.8056640625</ele>
        <time>2010-03-07T07:52:07Z</time>
      </trkpt>
      <trkpt lat="50.40265" lon="3.47672">
        <ele>20.324951171875</ele>
        <time>2010-03-07T07:52:11Z</time>
      </trkpt>
      <trkpt lat="50.40277" lon="3.47665">
        <ele>20.324951171875</ele>
        <time>2010-03-07T07:52:13Z</time>
      </trkpt>
      <trkpt lat="50.40287" lon="3.47667">
        <ele>19.844360351562</ele>
        <time>2010-03-07T07:52:16Z</time>
      </trkpt>
      <trkpt lat="50.40285" lon="3.47684">
        <ele>19.844360351562</ele>
        <time>2010-03-07T07:52:19Z</time>
      </trkpt>
      <trkpt lat="50.40281" lon="3.47734">
        <ele>20.8056640625</ele>
        <time>2010-03-07T07:52:25Z</time>
      </trkpt>
      <trkpt lat="50.40277" lon="3.47767">
        <ele>21.766967773438</ele>
        <time>2010-03-07T07:52:30Z</time>
      </trkpt>
      <trkpt lat="50.40276" lon="3.47802">
        <ele>22.728271484375</ele>
        <time>2010-03-07T07:52:36Z</time>
      </trkpt>
      <trkpt lat="50.40272" lon="3.47852">
        <ele>23.208984375</ele>
        <time>2010-03-07T07:52:42Z</time>
      </trkpt>
      <trkpt lat="50.40268" lon="3.47908">
        <ele>23.689575195312</ele>
        <time>2010-03-07T07:52:49Z</time>
      </trkpt>
      <trkpt lat="50.40265" lon="3.47944">
        <ele>24.651000976562</ele>
        <time>2010-03-07T07:52:54Z</time>
      </trkpt>
      <trkpt lat="50.4026" lon="3.47987">
        <ele>27.054321289062</ele>
        <time>2010-03-07T07:53:01Z</time>
      </trkpt>
      <trkpt lat="50.40257" lon="3.48023">
        <ele>28.015502929688</ele>
        <time>2010-03-07T07:53:06Z</time>
      </trkpt>
      <trkpt lat="50.40256" lon="3.4803">
        <ele>28.015502929688</ele>
        <time>2010-03-07T07:53:07Z</time>
      </trkpt>
      <trkpt lat="50.40264" lon="3.48045">
        <ele>26.092895507812</ele>
        <time>2010-03-07T07:53:11Z</time>
      </trkpt>
      <trkpt lat="50.40279" lon="3.48052">
        <ele>26.092895507812</ele>
        <time>2010-03-07T07:53:15Z</time>
      </trkpt>
      <trkpt lat="50.40297" lon="3.48076">
        <ele>28.976928710938</ele>
        <time>2010-03-07T07:53:21Z</time>
      </trkpt>
      <trkpt lat="50.40311" lon="3.48106">
        <ele>28.015502929688</ele>
        <time>2010-03-07T07:53:27Z</time>
      </trkpt>
      <trkpt lat="50.4032" lon="3.48138">
        <ele>31.380126953125</ele>
        <time>2010-03-07T07:53:32Z</time>
      </trkpt>
      <trkpt lat="50.40327" lon="3.48154">
        <ele>31.860717773438</ele>
        <time>2010-03-07T07:53:35Z</time>
      </trkpt>
      <trkpt lat="50.40329" lon="3.48179">
        <ele>32.341552734375</ele>
        <time>2010-03-07T07:53:39Z</time>
      </trkpt>
      <trkpt lat="50.40321" lon="3.48216">
        <ele>31.380126953125</ele>
        <time>2010-03-07T07:53:45Z</time>
      </trkpt>
      <trkpt lat="50.40318" lon="3.48241">
        <ele>30.899536132812</ele>
        <time>2010-03-07T07:53:49Z</time>
      </trkpt>
      <trkpt lat="50.40315" lon="3.48281">
        <ele>30.899536132812</ele>
        <time>2010-03-07T07:53:55Z</time>
      </trkpt>
      <trkpt lat="50.40317" lon="3.48306">
        <ele>30.899536132812</ele>
        <time>2010-03-07T07:53:59Z</time>
      </trkpt>
      <trkpt lat="50.40316" lon="3.48353">
        <ele>28.496215820312</ele>
        <time>2010-03-07T07:54:05Z</time>
      </trkpt>
      <trkpt lat="50.40313" lon="3.48377">
        <ele>28.976928710938</ele>
        <time>2010-03-07T07:54:08Z</time>
      </trkpt>
      <trkpt lat="50.40312" lon="3.48426">
        <ele>27.054321289062</ele>
        <time>2010-03-07T07:54:14Z</time>
      </trkpt>
      <trkpt lat="50.40314" lon="3.48453">
        <ele>27.534912109375</ele>
        <time>2010-03-07T07:54:18Z</time>
      </trkpt>
      <trkpt lat="50.40323" lon="3.48473">
        <ele>28.015502929688</ele>
        <time>2010-03-07T07:54:22Z</time>
      </trkpt>
      <trkpt lat="50.40328" lon="3.48495">
        <ele>28.015502929688</ele>
        <time>2010-03-07T07:54:25Z</time>
      </trkpt>
      <trkpt lat="50.40334" lon="3.4851">
        <ele>27.534912109375</ele>
        <time>2010-03-07T07:54:27Z</time>
      </trkpt>
      <trkpt lat="50.40339" lon="3.48552">
        <ele>27.534912109375</ele>
        <time>2010-03-07T07:54:33Z</time>
      </trkpt>
      <trkpt lat="50.4034" lon="3.48566">
        <ele>27.054321289062</ele>
        <time>2010-03-07T07:54:35Z</time>
      </trkpt>
      <trkpt lat="50.40355" lon="3.48573">
        <ele>25.6123046875</ele>
        <time>2010-03-07T07:54:39Z</time>
      </trkpt>
      <trkpt lat="50.40364" lon="3.48573">
        <ele>25.6123046875</ele>
        <time>2010-03-07T07:54:41Z</time>
      </trkpt>
      <trkpt lat="50.40393" lon="3.48564">
        <ele>22.728271484375</ele>
        <time>2010-03-07T07:54:47Z</time>
      </trkpt>
      <trkpt lat="50.40401" lon="3.48554">
        <ele>22.24755859375</ele>
        <time>2010-03-07T07:54:49Z</time>
      </trkpt>
      <trkpt lat="50.40422" lon="3.48535">
        <ele>22.24755859375</ele>
        <time>2010-03-07T07:54:54Z</time>
      </trkpt>
      <trkpt lat="50.40435" lon="3.4853">
        <ele>22.24755859375</ele>
        <time>2010-03-07T07:54:58Z</time>
      </trkpt>
      <trkpt lat="50.40451" lon="3.48525">
        <ele>21.766967773438</ele>
        <time>2010-03-07T07:55:02Z</time>
      </trkpt>
      <trkpt lat="50.40462" lon="3.48523">
        <ele>21.286376953125</ele>
        <time>2010-03-07T07:55:04Z</time>
      </trkpt>
      <trkpt lat="50.40476" lon="3.48518">
        <ele>20.324951171875</ele>
        <time>2010-03-07T07:55:07Z</time>
      </trkpt>
      <trkpt lat="50.40515" lon="3.48499">
        <ele>21.766967773438</ele>
        <time>2010-03-07T07:55:14Z</time>
      </trkpt>
      <trkpt lat="50.40538" lon="3.48494">
        <ele>21.286376953125</ele>
        <time>2010-03-07T07:55:18Z</time>
      </trkpt>
      <trkpt lat="50.40566" lon="3.48492">
        <ele>21.286376953125</ele>
        <time>2010-03-07T07:55:23Z</time>
      </trkpt>
      <trkpt lat="50.40584" lon="3.48502">
        <ele>21.286376953125</ele>
        <time>2010-03-07T07:55:27Z</time>
      </trkpt>
      <trkpt lat="50.40588" lon="3.48494">
        <ele>21.286376953125</ele>
        <time>2010-03-07T07:55:29Z</time>
      </trkpt>
      <trkpt lat="50.40613" lon="3.48436">
        <ele>22.24755859375</ele>
        <time>2010-03-07T07:55:37Z</time>
      </trkpt>
      <trkpt lat="50.40621" lon="3.4842">
        <ele>21.766967773438</ele>
        <time>2010-03-07T07:55:39Z</time>
      </trkpt>
      <trkpt lat="50.40637" lon="3.48383">
        <ele>21.766967773438</ele>
        <time>2010-03-07T07:55:43Z</time>
      </trkpt>
      <trkpt lat="50.40649" lon="3.48354">
        <ele>21.766967773438</ele>
        <time>2010-03-07T07:55:46Z</time>
      </trkpt>
      <trkpt lat="50.40656" lon="3.48336">
        <ele>21.766967773438</ele>
        <time>2010-03-07T07:55:48Z</time>
      </trkpt>
      <trkpt lat="50.40673" lon="3.48296">
        <ele>21.286376953125</ele>
        <time>2010-03-07T07:55:53Z</time>
      </trkpt>
      <trkpt lat="50.40676" lon="3.48289">
        <ele>21.286376953125</ele>
        <time>2010-03-07T07:55:54Z</time>
      </trkpt>
      <trkpt lat="50.40688" lon="3.48267">
        <ele>21.286376953125</ele>
        <time>2010-03-07T07:55:57Z</time>
      </trkpt>
      <trkpt lat="50.40706" lon="3.48227">
        <ele>18.40234375</ele>
        <time>2010-03-07T07:56:02Z</time>
      </trkpt>
      <trkpt lat="50.4072" lon="3.48199">
        <ele>16.96044921875</ele>
        <time>2010-03-07T07:56:06Z</time>
      </trkpt>
      <trkpt lat="50.40738" lon="3.48157">
        <ele>15.037719726562</ele>
        <time>2010-03-07T07:56:12Z</time>
      </trkpt>
      <trkpt lat="50.40752" lon="3.48122">
        <ele>13.115112304688</ele>
        <time>2010-03-07T07:56:17Z</time>
      </trkpt>
      <trkpt lat="50.40762" lon="3.48101">
        <ele>15.518432617188</ele>
        <time>2010-03-07T07:56:21Z</time>
      </trkpt>
      <trkpt lat="50.40765" lon="3.48096">
        <ele>15.518432617188</ele>
        <time>2010-03-07T07:56:22Z</time>
      </trkpt>
      <trkpt lat="50.4077" lon="3.48085">
        <ele>15.518432617188</ele>
        <time>2010-03-07T07:56:24Z</time>
      </trkpt>
      <trkpt lat="50.40776" lon="3.48072">
        <ele>15.037719726562</ele>
        <time>2010-03-07T07:56:26Z</time>
      </trkpt>
      <trkpt lat="50.40792" lon="3.48031">
        <ele>14.557006835938</ele>
        <time>2010-03-07T07:56:32Z</time>
      </trkpt>
      <trkpt lat="50.40813" lon="3.47991">
        <ele>14.076416015625</ele>
        <time>2010-03-07T07:56:38Z</time>
      </trkpt>
      <trkpt lat="50.40828" lon="3.47956">
        <ele>14.076416015625</ele>
        <time>2010-03-07T07:56:43Z</time>
      </trkpt>
      <trkpt lat="50.40834" lon="3.47941">
        <ele>14.076416015625</ele>
        <time>2010-03-07T07:56:45Z</time>
      </trkpt>
      <trkpt lat="50.40847" lon="3.47911">
        <ele>13.595825195312</ele>
        <time>2010-03-07T07:56:49Z</time>
      </trkpt>
      <trkpt lat="50.40871" lon="3.47861">
        <ele>13.595825195312</ele>
        <time>2010-03-07T07:56:56Z</time>
      </trkpt>
      <trkpt lat="50.40891" lon="3.47829">
        <ele>15.037719726562</ele>
        <time>2010-03-07T07:57:01Z</time>
      </trkpt>
      <trkpt lat="50.40895" lon="3.47822">
        <ele>15.037719726562</ele>
        <time>2010-03-07T07:57:02Z</time>
      </trkpt>
      <trkpt lat="50.40909" lon="3.478">
        <ele>15.9990234375</ele>
        <time>2010-03-07T07:57:06Z</time>
      </trkpt>
      <trkpt lat="50.4093" lon="3.47772">
        <ele>17.441162109375</ele>
        <time>2010-03-07T07:57:11Z</time>
      </trkpt>
      <trkpt lat="50.4095" lon="3.47744">
        <ele>19.36376953125</ele>
        <time>2010-03-07T07:57:16Z</time>
      </trkpt>
      <trkpt lat="50.40979" lon="3.47707">
        <ele>19.844360351562</ele>
        <time>2010-03-07T07:57:22Z</time>
      </trkpt>
      <trkpt lat="50.41009" lon="3.4767">
        <ele>22.24755859375</ele>
        <time>2010-03-07T07:57:28Z</time>
      </trkpt>
      <trkpt lat="50.41044" lon="3.47636">
        <ele>22.728271484375</ele>
        <time>2010-03-07T07:57:35Z</time>
      </trkpt>
      <trkpt lat="50.41071" lon="3.47609">
        <ele>22.24755859375</ele>
        <time>2010-03-07T07:57:41Z</time>
      </trkpt>
      <trkpt lat="50.41101" lon="3.47578">
        <ele>21.766967773438</ele>
        <time>2010-03-07T07:57:47Z</time>
      </trkpt>
      <trkpt lat="50.41106" lon="3.47572">
        <ele>22.24755859375</ele>
        <time>2010-03-07T07:57:48Z</time>
      </trkpt>
      <trkpt lat="50.41142" lon="3.4754">
        <ele>20.324951171875</ele>
        <time>2010-03-07T07:57:55Z</time>
      </trkpt>
      <trkpt lat="50.41146" lon="3.47536">
        <ele>19.844360351562</ele>
        <time>2010-03-07T07:57:56Z</time>
      </trkpt>
      <trkpt lat="50.4118" lon="3.47508">
        <ele>21.286376953125</ele>
        <time>2010-03-07T07:58:03Z</time>
      </trkpt>
      <trkpt lat="50.41213" lon="3.47479">
        <ele>23.208984375</ele>
        <time>2010-03-07T07:58:09Z</time>
      </trkpt>
      <trkpt lat="50.41253" lon="3.47442">
        <ele>24.170288085938</ele>
        <time>2010-03-07T07:58:16Z</time>
      </trkpt>
      <trkpt lat="50.4128" lon="3.47414">
        <ele>25.6123046875</ele>
        <time>2010-03-07T07:58:21Z</time>
      </trkpt>
      <trkpt lat="50.4131" lon="3.47389">
        <ele>25.131713867188</ele>
        <time>2010-03-07T07:58:27Z</time>
      </trkpt>
      <trkpt lat="50.41325" lon="3.47375">
        <ele>24.170288085938</ele>
        <time>2010-03-07T07:58:30Z</time>
      </trkpt>
      <trkpt lat="50.41349" lon="3.47352">
        <ele>21.766967773438</ele>
        <time>2010-03-07T07:58:35Z</time>
      </trkpt>
      <trkpt lat="50.41386" lon="3.47319">
        <ele>21.286376953125</ele>
        <time>2010-03-07T07:58:42Z</time>
      </trkpt>
      <trkpt lat="50.41391" lon="3.47315">
        <ele>21.766967773438</ele>
        <time>2010-03-07T07:58:43Z</time>
      </trkpt>
      <trkpt lat="50.41401" lon="3.47305">
        <ele>21.766967773438</ele>
        <time>2010-03-07T07:58:45Z</time>
      </trkpt>
      <trkpt lat="50.41428" lon="3.4728">
        <ele>22.24755859375</ele>
        <time>2010-03-07T07:58:50Z</time>
      </trkpt>
      <trkpt lat="50.41474" lon="3.47234">
        <ele>22.728271484375</ele>
        <time>2010-03-07T07:58:58Z</time>
      </trkpt>
      <trkpt lat="50.41508" lon="3.47203">
        <ele>22.728271484375</ele>
        <time>2010-03-07T07:59:04Z</time>
      </trkpt>
      <trkpt lat="50.41549" lon="3.47168">
        <ele>23.208984375</ele>
        <time>2010-03-07T07:59:11Z</time>
      </trkpt>
      <trkpt lat="50.41563" lon="3.47154">
        <ele>23.208984375</ele>
        <time>2010-03-07T07:59:14Z</time>
      </trkpt>
      <trkpt lat="50.41573" lon="3.47155">
        <ele>22.24755859375</ele>
        <time>2010-03-07T07:59:18Z</time>
      </trkpt>
      <trkpt lat="50.41574" lon="3.47159">
        <ele>21.766967773438</ele>
        <time>2010-03-07T07:59:20Z</time>
      </trkpt>
      <trkpt lat="50.41582" lon="3.4717">
        <ele>21.286376953125</ele>
        <time>2010-03-07T07:59:25Z</time>
      </trkpt>
      <trkpt lat="50.4159" lon="3.47189">
        <ele>21.286376953125</ele>
        <time>2010-03-07T07:59:29Z</time>
      </trkpt>
      <trkpt lat="50.41597" lon="3.472">
        <ele>21.286376953125</ele>
        <time>2010-03-07T07:59:32Z</time>
      </trkpt>
      <trkpt lat="50.41612" lon="3.47222">
        <ele>23.208984375</ele>
        <time>2010-03-07T07:59:39Z</time>
      </trkpt>
      <trkpt lat="50.41622" lon="3.4723">
        <ele>24.651000976562</ele>
        <time>2010-03-07T07:59:44Z</time>
      </trkpt>
      <trkpt lat="50.4163" lon="3.47236">
        <ele>26.092895507812</ele>
        <time>2010-03-07T07:59:48Z</time>
      </trkpt>
      <trkpt lat="50.41632" lon="3.47239">
        <ele>26.573608398438</ele>
        <time>2010-03-07T07:59:49Z</time>
      </trkpt>
      <trkpt lat="50.41645" lon="3.47247">
        <ele>28.496215820312</ele>
        <time>2010-03-07T07:59:53Z</time>
      </trkpt>
      <trkpt lat="50.41654" lon="3.4725">
        <ele>28.496215820312</ele>
        <time>2010-03-07T07:59:55Z</time>
      </trkpt>
      <trkpt lat="50.41681" lon="3.47256">
        <ele>28.976928710938</ele>
        <time>2010-03-07T08:00:01Z</time>
      </trkpt>
      <trkpt lat="50.41695" lon="3.47261">
        <ele>29.938110351562</ele>
        <time>2010-03-07T08:00:05Z</time>
      </trkpt>
      <trkpt lat="50.417" lon="3.47265">
        <ele>31.380126953125</ele>
        <time>2010-03-07T08:00:07Z</time>
      </trkpt>
      <trkpt lat="50.41724" lon="3.47267">
        <ele>31.860717773438</ele>
        <time>2010-03-07T08:00:14Z</time>
      </trkpt>
      <trkpt lat="50.41735" lon="3.47271">
        <ele>31.380126953125</ele>
        <time>2010-03-07T08:00:18Z</time>
      </trkpt>
      <trkpt lat="50.41749" lon="3.47267">
        <ele>30.418823242188</ele>
        <time>2010-03-07T08:00:22Z</time>
      </trkpt>
      <trkpt lat="50.41767" lon="3.47246">
        <ele>28.496215820312</ele>
        <time>2010-03-07T08:00:27Z</time>
      </trkpt>
      <trkpt lat="50.41779" lon="3.47235">
        <ele>28.976928710938</ele>
        <time>2010-03-07T08:00:31Z</time>
      </trkpt>
      <trkpt lat="50.41795" lon="3.47226">
        <ele>28.015502929688</ele>
        <time>2010-03-07T08:00:35Z</time>
      </trkpt>
      <trkpt lat="50.41808" lon="3.47216">
        <ele>27.534912109375</ele>
        <time>2010-03-07T08:00:38Z</time>
      </trkpt>
      <trkpt lat="50.4183" lon="3.47205">
        <ele>27.534912109375</ele>
        <time>2010-03-07T08:00:43Z</time>
      </trkpt>
      <trkpt lat="50.41835" lon="3.47204">
        <ele>27.054321289062</ele>
        <time>2010-03-07T08:00:44Z</time>
      </trkpt>
      <trkpt lat="50.41844" lon="3.47202">
        <ele>27.054321289062</ele>
        <time>2010-03-07T08:00:46Z</time>
      </trkpt>
      <trkpt lat="50.41868" lon="3.47197">
        <ele>26.573608398438</ele>
        <time>2010-03-07T08:00:52Z</time>
      </trkpt>
      <trkpt lat="50.41883" lon="3.47199">
        <ele>27.054321289062</ele>
        <time>2010-03-07T08:00:56Z</time>
      </trkpt>
      <trkpt lat="50.41899" lon="3.47197">
        <ele>27.054321289062</ele>
        <time>2010-03-07T08:01:00Z</time>
      </trkpt>
      <trkpt lat="50.41911" lon="3.47187">
        <ele>28.015502929688</ele>
        <time>2010-03-07T08:01:04Z</time>
      </trkpt>
      <trkpt lat="50.41921" lon="3.47183">
        <ele>28.496215820312</ele>
        <time>2010-03-07T08:01:07Z</time>
      </trkpt>
      <trkpt lat="50.41945" lon="3.47186">
        <ele>28.015502929688</ele>
        <time>2010-03-07T08:01:12Z</time>
      </trkpt>
      <trkpt lat="50.4196" lon="3.47191">
        <ele>27.534912109375</ele>
        <time>2010-03-07T08:01:17Z</time>
      </trkpt>
      <trkpt lat="50.41972" lon="3.47184">
        <ele>28.015502929688</ele>
        <time>2010-03-07T08:01:21Z</time>
      </trkpt>
      <trkpt lat="50.41988" lon="3.47176">
        <ele>28.015502929688</ele>
        <time>2010-03-07T08:01:25Z</time>
      </trkpt>
      <trkpt lat="50.42007" lon="3.47173">
        <ele>26.573608398438</ele>
        <time>2010-03-07T08:01:29Z</time>
      </trkpt>
      <trkpt lat="50.42026" lon="3.47172">
        <ele>26.092895507812</ele>
        <time>2010-03-07T08:01:33Z</time>
      </trkpt>
      <trkpt lat="50.42031" lon="3.47173">
        <ele>26.573608398438</ele>
        <time>2010-03-07T08:01:34Z</time>
      </trkpt>
      <trkpt lat="50.42054" lon="3.47176">
        <ele>26.092895507812</ele>
        <time>2010-03-07T08:01:39Z</time>
      </trkpt>
      <trkpt lat="50.42073" lon="3.47178">
        <ele>27.534912109375</ele>
        <time>2010-03-07T08:01:43Z</time>
      </trkpt>
      <trkpt lat="50.42096" lon="3.47196">
        <ele>27.534912109375</ele>
        <time>2010-03-07T08:01:48Z</time>
      </trkpt>
      <trkpt lat="50.42113" lon="3.47215">
        <ele>28.496215820312</ele>
        <time>2010-03-07T08:01:52Z</time>
      </trkpt>
      <trkpt lat="50.4214" lon="3.47248">
        <ele>29.45751953125</ele>
        <time>2010-03-07T08:01:58Z</time>
      </trkpt>
      <trkpt lat="50.42168" lon="3.47286">
        <ele>28.496215820312</ele>
        <time>2010-03-07T08:02:04Z</time>
      </trkpt>
      <trkpt lat="50.42181" lon="3.47307">
        <ele>27.534912109375</ele>
        <time>2010-03-07T08:02:07Z</time>
      </trkpt>
      <trkpt lat="50.42204" lon="3.47348">
        <ele>25.6123046875</ele>
        <time>2010-03-07T08:02:13Z</time>
      </trkpt>
      <trkpt lat="50.42224" lon="3.47379">
        <ele>27.054321289062</ele>
        <time>2010-03-07T08:02:18Z</time>
      </trkpt>
      <trkpt lat="50.4225" lon="3.47411">
        <ele>31.380126953125</ele>
        <time>2010-03-07T08:02:24Z</time>
      </trkpt>
      <trkpt lat="50.42273" lon="3.47438">
        <ele>31.860717773438</ele>
        <time>2010-03-07T08:02:29Z</time>
      </trkpt>
      <trkpt lat="50.42294" lon="3.47474">
        <ele>28.496215820312</ele>
        <time>2010-03-07T08:02:34Z</time>
      </trkpt>
      <trkpt lat="50.42302" lon="3.47512">
        <ele>26.092895507812</ele>
        <time>2010-03-07T08:02:38Z</time>
      </trkpt>
      <trkpt lat="50.42303" lon="3.47549">
        <ele>24.170288085938</ele>
        <time>2010-03-07T08:02:42Z</time>
      </trkpt>
      <trkpt lat="50.42308" lon="3.47564">
        <ele>23.689575195312</ele>
        <time>2010-03-07T08:02:45Z</time>
      </trkpt>
      <trkpt lat="50.4231" lon="3.47569">
        <ele>23.689575195312</ele>
        <time>2010-03-07T08:02:46Z</time>
      </trkpt>
      <trkpt lat="50.42315" lon="3.47581">
        <ele>22.728271484375</ele>
        <time>2010-03-07T08:02:48Z</time>
      </trkpt>
      <trkpt lat="50.42321" lon="3.47602">
        <ele>22.24755859375</ele>
        <time>2010-03-07T08:02:51Z</time>
      </trkpt>
      <trkpt lat="50.42334" lon="3.47641">
        <ele>22.24755859375</ele>
        <time>2010-03-07T08:02:56Z</time>
      </trkpt>
      <trkpt lat="50.42344" lon="3.47654">
        <ele>23.208984375</ele>
        <time>2010-03-07T08:02:58Z</time>
      </trkpt>
      <trkpt lat="50.42384" lon="3.47689">
        <ele>25.131713867188</ele>
        <time>2010-03-07T08:03:05Z</time>
      </trkpt>
      <trkpt lat="50.42406" lon="3.47713">
        <ele>25.6123046875</ele>
        <time>2010-03-07T08:03:10Z</time>
      </trkpt>
      <trkpt lat="50.42413" lon="3.47726">
        <ele>24.651000976562</ele>
        <time>2010-03-07T08:03:13Z</time>
      </trkpt>
      <trkpt lat="50.42416" lon="3.4773">
        <ele>24.170288085938</ele>
        <time>2010-03-07T08:03:14Z</time>
      </trkpt>
      <trkpt lat="50.42434" lon="3.47765">
        <ele>23.208984375</ele>
        <time>2010-03-07T08:03:19Z</time>
      </trkpt>
      <trkpt lat="50.4245" lon="3.47793">
        <ele>24.170288085938</ele>
        <time>2010-03-07T08:03:23Z</time>
      </trkpt>
      <trkpt lat="50.42472" lon="3.47819">
        <ele>24.651000976562</ele>
        <time>2010-03-07T08:03:28Z</time>
      </trkpt>
      <trkpt lat="50.42493" lon="3.47836">
        <ele>26.573608398438</ele>
        <time>2010-03-07T08:03:32Z</time>
      </trkpt>
      <trkpt lat="50.42511" lon="3.4786">
        <ele>27.534912109375</ele>
        <time>2010-03-07T08:03:37Z</time>
      </trkpt>
      <trkpt lat="50.42522" lon="3.47871">
        <ele>28.496215820312</ele>
        <time>2010-03-07T08:03:40Z</time>
      </trkpt>
      <trkpt lat="50.42529" lon="3.47874">
        <ele>28.496215820312</ele>
        <time>2010-03-07T08:03:43Z</time>
      </trkpt>
      <trkpt lat="50.42529" lon="3.47874">
        <ele>28.015502929688</ele>
        <time>2010-03-07T08:03:45Z</time>
      </trkpt>
      <trkpt lat="50.42537" lon="3.47877">
        <ele>37.148071289062</ele>
        <time>2010-03-07T08:05:49Z</time>
      </trkpt>
      <trkpt lat="50.42542" lon="3.47881">
        <ele>36.66748046875</ele>
        <time>2010-03-07T08:05:52Z</time>
      </trkpt>
      <trkpt lat="50.42556" lon="3.47889">
        <ele>35.7060546875</ele>
        <time>2010-03-07T08:05:57Z</time>
      </trkpt>
      <trkpt lat="50.42569" lon="3.47891">
        <ele>33.783447265625</ele>
        <time>2010-03-07T08:06:01Z</time>
      </trkpt>
      <trkpt lat="50.42572" lon="3.47908">
        <ele>32.341552734375</ele>
        <time>2010-03-07T08:06:05Z</time>
      </trkpt>
      <trkpt lat="50.4257" lon="3.47914">
        <ele>31.860717773438</ele>
        <time>2010-03-07T08:06:06Z</time>
      </trkpt>
      <trkpt lat="50.42559" lon="3.4795">
        <ele>30.899536132812</ele>
        <time>2010-03-07T08:06:12Z</time>
      </trkpt>
      <trkpt lat="50.42559" lon="3.47961">
        <ele>31.380126953125</ele>
        <time>2010-03-07T08:06:14Z</time>
      </trkpt>
      <trkpt lat="50.42558" lon="3.47974">
        <ele>30.899536132812</ele>
        <time>2010-03-07T08:06:16Z</time>
      </trkpt>
      <trkpt lat="50.42561" lon="3.48011">
        <ele>30.899536132812</ele>
        <time>2010-03-07T08:06:22Z</time>
      </trkpt>
      <trkpt lat="50.42562" lon="3.48016">
        <ele>30.899536132812</ele>
        <time>2010-03-07T08:06:23Z</time>
      </trkpt>
      <trkpt lat="50.42563" lon="3.48035">
        <ele>30.418823242188</ele>
        <time>2010-03-07T08:06:28Z</time>
      </trkpt>
      <trkpt lat="50.42566" lon="3.48053">
        <ele>28.976928710938</ele>
        <time>2010-03-07T08:06:31Z</time>
      </trkpt>
      <trkpt lat="50.42571" lon="3.48076">
        <ele>27.054321289062</ele>
        <time>2010-03-07T08:06:34Z</time>
      </trkpt>
      <trkpt lat="50.4257" lon="3.48102">
        <ele>25.131713867188</ele>
        <time>2010-03-07T08:06:37Z</time>
      </trkpt>
      <trkpt lat="50.42556" lon="3.4814">
        <ele>24.170288085938</ele>
        <time>2010-03-07T08:06:42Z</time>
      </trkpt>
      <trkpt lat="50.42549" lon="3.48172">
        <ele>23.208984375</ele>
        <time>2010-03-07T08:06:46Z</time>
      </trkpt>
      <trkpt lat="50.42548" lon="3.48188">
        <ele>22.728271484375</ele>
        <time>2010-03-07T08:06:48Z</time>
      </trkpt>
      <trkpt lat="50.42545" lon="3.48211">
        <ele>21.766967773438</ele>
        <time>2010-03-07T08:06:52Z</time>
      </trkpt>
      <trkpt lat="50.42546" lon="3.48252">
        <ele>21.286376953125</ele>
        <time>2010-03-07T08:06:58Z</time>
      </trkpt>
      <trkpt lat="50.42546" lon="3.4829">
        <ele>21.286376953125</ele>
        <time>2010-03-07T08:07:04Z</time>
      </trkpt>
      <trkpt lat="50.42546" lon="3.483">
        <ele>21.286376953125</ele>
        <time>2010-03-07T08:07:06Z</time>
      </trkpt>
      <trkpt lat="50.42543" lon="3.48313">
        <ele>21.286376953125</ele>
        <time>2010-03-07T08:07:08Z</time>
      </trkpt>
      <trkpt lat="50.42538" lon="3.48332">
        <ele>21.286376953125</ele>
        <time>2010-03-07T08:07:11Z</time>
      </trkpt>
      <trkpt lat="50.42525" lon="3.48366">
        <ele>19.844360351562</ele>
        <time>2010-03-07T08:07:16Z</time>
      </trkpt>
      <trkpt lat="50.42517" lon="3.48396">
        <ele>20.8056640625</ele>
        <time>2010-03-07T08:07:20Z</time>
      </trkpt>
      <trkpt lat="50.42513" lon="3.4842">
        <ele>22.728271484375</ele>
        <time>2010-03-07T08:07:23Z</time>
      </trkpt>
      <trkpt lat="50.4251" lon="3.4846">
        <ele>24.170288085938</ele>
        <time>2010-03-07T08:07:28Z</time>
      </trkpt>
      <trkpt lat="50.42505" lon="3.48501">
        <ele>26.092895507812</ele>
        <time>2010-03-07T08:07:33Z</time>
      </trkpt>
      <trkpt lat="50.42489" lon="3.48555">
        <ele>27.534912109375</ele>
        <time>2010-03-07T08:07:40Z</time>
      </trkpt>
      <trkpt lat="50.42472" lon="3.48599">
        <ele>28.015502929688</ele>
        <time>2010-03-07T08:07:46Z</time>
      </trkpt>
      <trkpt lat="50.42464" lon="3.48621">
        <ele>27.534912109375</ele>
        <time>2010-03-07T08:07:49Z</time>
      </trkpt>
      <trkpt lat="50.42463" lon="3.48655">
        <ele>27.054321289062</ele>
        <time>2010-03-07T08:07:53Z</time>
      </trkpt>
      <trkpt lat="50.42465" lon="3.48663">
        <ele>27.054321289062</ele>
        <time>2010-03-07T08:07:54Z</time>
      </trkpt>
      <trkpt lat="50.42475" lon="3.48696">
        <ele>27.054321289062</ele>
        <time>2010-03-07T08:07:58Z</time>
      </trkpt>
      <trkpt lat="50.42485" lon="3.48727">
        <ele>27.534912109375</ele>
        <time>2010-03-07T08:08:02Z</time>
      </trkpt>
      <trkpt lat="50.42488" lon="3.48765">
        <ele>27.054321289062</ele>
        <time>2010-03-07T08:08:07Z</time>
      </trkpt>
      <trkpt lat="50.4248" lon="3.48781">
        <ele>27.054321289062</ele>
        <time>2010-03-07T08:08:09Z</time>
      </trkpt>
      <trkpt lat="50.42472" lon="3.48795">
        <ele>27.054321289062</ele>
        <time>2010-03-07T08:08:11Z</time>
      </trkpt>
      <trkpt lat="50.42466" lon="3.48809">
        <ele>27.054321289062</ele>
        <time>2010-03-07T08:08:13Z</time>
      </trkpt>
      <trkpt lat="50.42455" lon="3.48847">
        <ele>28.015502929688</ele>
        <time>2010-03-07T08:08:18Z</time>
      </trkpt>
      <trkpt lat="50.42447" lon="3.48867">
        <ele>28.496215820312</ele>
        <time>2010-03-07T08:08:21Z</time>
      </trkpt>
      <trkpt lat="50.42441" lon="3.4888">
        <ele>29.45751953125</ele>
        <time>2010-03-07T08:08:23Z</time>
      </trkpt>
      <trkpt lat="50.42432" lon="3.48907">
        <ele>28.976928710938</ele>
        <time>2010-03-07T08:08:26Z</time>
      </trkpt>
      <trkpt lat="50.42418" lon="3.48932">
        <ele>28.976928710938</ele>
        <time>2010-03-07T08:08:30Z</time>
      </trkpt>
      <trkpt lat="50.42396" lon="3.48959">
        <ele>26.573608398438</ele>
        <time>2010-03-07T08:08:35Z</time>
      </trkpt>
      <trkpt lat="50.42376" lon="3.49006">
        <ele>26.573608398438</ele>
        <time>2010-03-07T08:08:42Z</time>
      </trkpt>
      <trkpt lat="50.42355" lon="3.4903">
        <ele>29.45751953125</ele>
        <time>2010-03-07T08:08:47Z</time>
      </trkpt>
      <trkpt lat="50.42328" lon="3.4906">
        <ele>29.938110351562</ele>
        <time>2010-03-07T08:08:53Z</time>
      </trkpt>
      <trkpt lat="50.42319" lon="3.49072">
        <ele>30.418823242188</ele>
        <time>2010-03-07T08:08:55Z</time>
      </trkpt>
      <trkpt lat="50.42293" lon="3.49122">
        <ele>26.573608398438</ele>
        <time>2010-03-07T08:09:01Z</time>
      </trkpt>
      <trkpt lat="50.4227" lon="3.49173">
        <ele>27.054321289062</ele>
        <time>2010-03-07T08:09:07Z</time>
      </trkpt>
      <trkpt lat="50.42266" lon="3.49182">
        <ele>28.015502929688</ele>
        <time>2010-03-07T08:09:08Z</time>
      </trkpt>
      <trkpt lat="50.4226" lon="3.49196">
        <ele>28.976928710938</ele>
        <time>2010-03-07T08:09:10Z</time>
      </trkpt>
      <trkpt lat="50.42252" lon="3.49217">
        <ele>29.45751953125</ele>
        <time>2010-03-07T08:09:13Z</time>
      </trkpt>
      <trkpt lat="50.42252" lon="3.49243">
        <ele>28.015502929688</ele>
        <time>2010-03-07T08:09:17Z</time>
      </trkpt>
      <trkpt lat="50.42255" lon="3.49249">
        <ele>28.496215820312</ele>
        <time>2010-03-07T08:09:18Z</time>
      </trkpt>
      <trkpt lat="50.42277" lon="3.49276">
        <ele>28.496215820312</ele>
        <time>2010-03-07T08:09:23Z</time>
      </trkpt>
      <trkpt lat="50.42301" lon="3.4931">
        <ele>26.092895507812</ele>
        <time>2010-03-07T08:09:29Z</time>
      </trkpt>
      <trkpt lat="50.42319" lon="3.49333">
        <ele>25.6123046875</ele>
        <time>2010-03-07T08:09:34Z</time>
      </trkpt>
      <trkpt lat="50.4232" lon="3.49362">
        <ele>23.208984375</ele>
        <time>2010-03-07T08:09:38Z</time>
      </trkpt>
      <trkpt lat="50.42311" lon="3.49418">
        <ele>24.170288085938</ele>
        <time>2010-03-07T08:09:45Z</time>
      </trkpt>
      <trkpt lat="50.42303" lon="3.49474">
        <ele>24.651000976562</ele>
        <time>2010-03-07T08:09:52Z</time>
      </trkpt>
      <trkpt lat="50.42296" lon="3.49532">
        <ele>21.766967773438</ele>
        <time>2010-03-07T08:09:59Z</time>
      </trkpt>
      <trkpt lat="50.42293" lon="3.49557">
        <ele>23.208984375</ele>
        <time>2010-03-07T08:10:02Z</time>
      </trkpt>
      <trkpt lat="50.42289" lon="3.49575">
        <ele>25.6123046875</ele>
        <time>2010-03-07T08:10:04Z</time>
      </trkpt>
      <trkpt lat="50.4228" lon="3.49618">
        <ele>27.054321289062</ele>
        <time>2010-03-07T08:10:10Z</time>
      </trkpt>
      <trkpt lat="50.42275" lon="3.49643">
        <ele>26.573608398438</ele>
        <time>2010-03-07T08:10:13Z</time>
      </trkpt>
      <trkpt lat="50.42271" lon="3.49681">
        <ele>28.496215820312</ele>
        <time>2010-03-07T08:10:17Z</time>
      </trkpt>
      <trkpt lat="50.42275" lon="3.49741">
        <ele>30.418823242188</ele>
        <time>2010-03-07T08:10:24Z</time>
      </trkpt>
      <trkpt lat="50.42276" lon="3.49758">
        <ele>30.899536132812</ele>
        <time>2010-03-07T08:10:26Z</time>
      </trkpt>
      <trkpt lat="50.42276" lon="3.49785">
        <ele>31.860717773438</ele>
        <time>2010-03-07T08:10:29Z</time>
      </trkpt>
      <trkpt lat="50.42278" lon="3.49816">
        <ele>31.860717773438</ele>
        <time>2010-03-07T08:10:33Z</time>
      </trkpt>
      <trkpt lat="50.4229" lon="3.49832">
        <ele>32.341552734375</ele>
        <time>2010-03-07T08:10:37Z</time>
      </trkpt>
      <trkpt lat="50.42293" lon="3.49831">
        <ele>32.341552734375</ele>
        <time>2010-03-07T08:10:38Z</time>
      </trkpt>
      <trkpt lat="50.42322" lon="3.49817">
        <ele>30.418823242188</ele>
        <time>2010-03-07T08:10:44Z</time>
      </trkpt>
      <trkpt lat="50.42356" lon="3.49801">
        <ele>28.976928710938</ele>
        <time>2010-03-07T08:10:50Z</time>
      </trkpt>
      <trkpt lat="50.42374" lon="3.49792">
        <ele>28.496215820312</ele>
        <time>2010-03-07T08:10:53Z</time>
      </trkpt>
      <trkpt lat="50.42392" lon="3.49801">
        <ele>28.015502929688</ele>
        <time>2010-03-07T08:10:57Z</time>
      </trkpt>
      <trkpt lat="50.42395" lon="3.4981">
        <ele>28.015502929688</ele>
        <time>2010-03-07T08:10:58Z</time>
      </trkpt>
      <trkpt lat="50.4242" lon="3.49882">
        <ele>28.496215820312</ele>
        <time>2010-03-07T08:11:06Z</time>
      </trkpt>
      <trkpt lat="50.42426" lon="3.49914">
        <ele>28.015502929688</ele>
        <time>2010-03-07T08:11:10Z</time>
      </trkpt>
      <trkpt lat="50.42432" lon="3.49937">
        <ele>28.496215820312</ele>
        <time>2010-03-07T08:11:13Z</time>
      </trkpt>
      <trkpt lat="50.4244" lon="3.49982">
        <ele>28.015502929688</ele>
        <time>2010-03-07T08:11:18Z</time>
      </trkpt>
      <trkpt lat="50.42451" lon="3.50029">
        <ele>28.015502929688</ele>
        <time>2010-03-07T08:11:23Z</time>
      </trkpt>
      <trkpt lat="50.42454" lon="3.50037">
        <ele>28.015502929688</ele>
        <time>2010-03-07T08:11:24Z</time>
      </trkpt>
      <trkpt lat="50.42479" lon="3.50083">
        <ele>27.534912109375</ele>
        <time>2010-03-07T08:11:31Z</time>
      </trkpt>
      <trkpt lat="50.42498" lon="3.50117">
        <ele>27.534912109375</ele>
        <time>2010-03-07T08:11:37Z</time>
      </trkpt>
      <trkpt lat="50.42506" lon="3.5013">
        <ele>28.015502929688</ele>
        <time>2010-03-07T08:11:39Z</time>
      </trkpt>
      <trkpt lat="50.42535" lon="3.50171">
        <ele>28.496215820312</ele>
        <time>2010-03-07T08:11:46Z</time>
      </trkpt>
      <trkpt lat="50.42546" lon="3.50192">
        <ele>28.496215820312</ele>
        <time>2010-03-07T08:11:49Z</time>
      </trkpt>
      <trkpt lat="50.4257" lon="3.50217">
        <ele>29.938110351562</ele>
        <time>2010-03-07T08:11:54Z</time>
      </trkpt>
      <trkpt lat="50.42577" lon="3.50222">
        <ele>29.938110351562</ele>
        <time>2010-03-07T08:11:55Z</time>
      </trkpt>
      <trkpt lat="50.42595" lon="3.5024">
        <ele>30.418823242188</ele>
        <time>2010-03-07T08:11:58Z</time>
      </trkpt>
      <trkpt lat="50.42621" lon="3.50248">
        <ele>29.938110351562</ele>
        <time>2010-03-07T08:12:02Z</time>
      </trkpt>
      <trkpt lat="50.42657" lon="3.50263">
        <ele>29.938110351562</ele>
        <time>2010-03-07T08:12:07Z</time>
      </trkpt>
      <trkpt lat="50.42664" lon="3.50268">
        <ele>29.45751953125</ele>
        <time>2010-03-07T08:12:08Z</time>
      </trkpt>
      <trkpt lat="50.42694" lon="3.50297">
        <ele>29.45751953125</ele>
        <time>2010-03-07T08:12:13Z</time>
      </trkpt>
      <trkpt lat="50.42736" lon="3.50328">
        <ele>30.418823242188</ele>
        <time>2010-03-07T08:12:20Z</time>
      </trkpt>
      <trkpt lat="50.42759" lon="3.50343">
        <ele>31.380126953125</ele>
        <time>2010-03-07T08:12:25Z</time>
      </trkpt>
      <trkpt lat="50.42777" lon="3.50359">
        <ele>31.860717773438</ele>
        <time>2010-03-07T08:12:29Z</time>
      </trkpt>
      <trkpt lat="50.42789" lon="3.50386">
        <ele>31.860717773438</ele>
        <time>2010-03-07T08:12:33Z</time>
      </trkpt>
      <trkpt lat="50.42795" lon="3.50408">
        <ele>32.341552734375</ele>
        <time>2010-03-07T08:12:36Z</time>
      </trkpt>
      <trkpt lat="50.42816" lon="3.50446">
        <ele>30.899536132812</ele>
        <time>2010-03-07T08:12:42Z</time>
      </trkpt>
      <trkpt lat="50.42828" lon="3.5047">
        <ele>30.899536132812</ele>
        <time>2010-03-07T08:12:46Z</time>
      </trkpt>
      <trkpt lat="50.4284" lon="3.50515">
        <ele>31.860717773438</ele>
        <time>2010-03-07T08:12:52Z</time>
      </trkpt>
      <trkpt lat="50.42851" lon="3.50548">
        <ele>31.860717773438</ele>
        <time>2010-03-07T08:12:56Z</time>
      </trkpt>
      <trkpt lat="50.42859" lon="3.50564">
        <ele>31.380126953125</ele>
        <time>2010-03-07T08:12:58Z</time>
      </trkpt>
      <trkpt lat="50.42873" lon="3.50611">
        <ele>30.418823242188</ele>
        <time>2010-03-07T08:13:03Z</time>
      </trkpt>
      <trkpt lat="50.42878" lon="3.50651">
        <ele>30.899536132812</ele>
        <time>2010-03-07T08:13:07Z</time>
      </trkpt>
      <trkpt lat="50.42892" lon="3.50694">
        <ele>30.418823242188</ele>
        <time>2010-03-07T08:13:12Z</time>
      </trkpt>
      <trkpt lat="50.429" lon="3.50733">
        <ele>29.938110351562</ele>
        <time>2010-03-07T08:13:16Z</time>
      </trkpt>
      <trkpt lat="50.42908" lon="3.50767">
        <ele>30.418823242188</ele>
        <time>2010-03-07T08:13:20Z</time>
      </trkpt>
      <trkpt lat="50.42913" lon="3.50783">
        <ele>31.380126953125</ele>
        <time>2010-03-07T08:13:22Z</time>
      </trkpt>
      <trkpt lat="50.42934" lon="3.5083">
        <ele>30.899536132812</ele>
        <time>2010-03-07T08:13:28Z</time>
      </trkpt>
      <trkpt lat="50.42956" lon="3.50873">
        <ele>29.938110351562</ele>
        <time>2010-03-07T08:13:34Z</time>
      </trkpt>
      <trkpt lat="50.42963" lon="3.50887">
        <ele>29.938110351562</ele>
        <time>2010-03-07T08:13:36Z</time>
      </trkpt>
      <trkpt lat="50.42967" lon="3.50916">
        <ele>29.938110351562</ele>
        <time>2010-03-07T08:13:41Z</time>
      </trkpt>
      <trkpt lat="50.42956" lon="3.50926">
        <ele>30.418823242188</ele>
        <time>2010-03-07T08:13:45Z</time>
      </trkpt>
      <trkpt lat="50.42953" lon="3.50926">
        <ele>30.418823242188</ele>
        <time>2010-03-07T08:13:46Z</time>
      </trkpt>
      <trkpt lat="50.42938" lon="3.50923">
        <ele>27.534912109375</ele>
        <time>2010-03-07T08:13:53Z</time>
      </trkpt>
      <trkpt lat="50.42935" lon="3.50928">
        <ele>27.534912109375</ele>
        <time>2010-03-07T08:13:57Z</time>
      </trkpt>
      <trkpt lat="50.42934" lon="3.50929">
        <ele>27.534912109375</ele>
        <time>2010-03-07T08:13:59Z</time>
      </trkpt>
      <trkpt lat="50.4293" lon="3.50937">
        <ele>28.496215820312</ele>
        <time>2010-03-07T08:14:04Z</time>
      </trkpt>
      <trkpt lat="50.42916" lon="3.50944">
        <ele>29.45751953125</ele>
        <time>2010-03-07T08:14:10Z</time>
      </trkpt>
      <trkpt lat="50.42898" lon="3.5095">
        <ele>30.899536132812</ele>
        <time>2010-03-07T08:14:15Z</time>
      </trkpt>
      <trkpt lat="50.42876" lon="3.5096">
        <ele>32.822265625</ele>
        <time>2010-03-07T08:14:21Z</time>
      </trkpt>
      <trkpt lat="50.42856" lon="3.50969">
        <ele>34.744873046875</ele>
        <time>2010-03-07T08:14:26Z</time>
      </trkpt>
      <trkpt lat="50.4283" lon="3.50981">
        <ele>36.66748046875</ele>
        <time>2010-03-07T08:14:32Z</time>
      </trkpt>
      <trkpt lat="50.4281" lon="3.50988">
        <ele>37.628662109375</ele>
        <time>2010-03-07T08:14:37Z</time>
      </trkpt>
      <trkpt lat="50.42786" lon="3.50997">
        <ele>40.032104492188</ele>
        <time>2010-03-07T08:14:43Z</time>
      </trkpt>
      <trkpt lat="50.4277" lon="3.51006">
        <ele>40.993408203125</ele>
        <time>2010-03-07T08:14:47Z</time>
      </trkpt>
      <trkpt lat="50.42742" lon="3.51017">
        <ele>42.435424804688</ele>
        <time>2010-03-07T08:14:54Z</time>
      </trkpt>
      <trkpt lat="50.42727" lon="3.51024">
        <ele>42.435424804688</ele>
        <time>2010-03-07T08:14:58Z</time>
      </trkpt>
      <trkpt lat="50.42705" lon="3.51033">
        <ele>43.396606445312</ele>
        <time>2010-03-07T08:15:03Z</time>
      </trkpt>
      <trkpt lat="50.42695" lon="3.51041">
        <ele>43.877319335938</ele>
        <time>2010-03-07T08:15:06Z</time>
      </trkpt>
      <trkpt lat="50.42689" lon="3.51044">
        <ele>44.358032226562</ele>
        <time>2010-03-07T08:15:08Z</time>
      </trkpt>
      <trkpt lat="50.42654" lon="3.51058">
        <ele>43.877319335938</ele>
        <time>2010-03-07T08:15:15Z</time>
      </trkpt>
      <trkpt lat="50.4264" lon="3.51073">
        <ele>40.512817382812</ele>
        <time>2010-03-07T08:15:19Z</time>
      </trkpt>
      <trkpt lat="50.42637" lon="3.51103">
        <ele>40.032104492188</ele>
        <time>2010-03-07T08:15:24Z</time>
      </trkpt>
      <trkpt lat="50.42634" lon="3.51119">
        <ele>40.032104492188</ele>
        <time>2010-03-07T08:15:29Z</time>
      </trkpt>
      <trkpt lat="50.42632" lon="3.51131">
        <ele>40.512817382812</ele>
        <time>2010-03-07T08:15:33Z</time>
      </trkpt>
      <trkpt lat="50.42629" lon="3.5116">
        <ele>42.435424804688</ele>
        <time>2010-03-07T08:15:38Z</time>
      </trkpt>
      <trkpt lat="50.42629" lon="3.512">
        <ele>45.319213867188</ele>
        <time>2010-03-07T08:15:44Z</time>
      </trkpt>
      <trkpt lat="50.42625" lon="3.51237">
        <ele>45.319213867188</ele>
        <time>2010-03-07T08:15:49Z</time>
      </trkpt>
      <trkpt lat="50.42625" lon="3.51264">
        <ele>45.799926757812</ele>
        <time>2010-03-07T08:15:53Z</time>
      </trkpt>
      <trkpt lat="50.42624" lon="3.51285">
        <ele>44.358032226562</ele>
        <time>2010-03-07T08:15:57Z</time>
      </trkpt>
      <trkpt lat="50.42627" lon="3.5131">
        <ele>45.319213867188</ele>
        <time>2010-03-07T08:16:01Z</time>
      </trkpt>
      <trkpt lat="50.42632" lon="3.51339">
        <ele>46.280639648438</ele>
        <time>2010-03-07T08:16:06Z</time>
      </trkpt>
      <trkpt lat="50.42637" lon="3.51371">
        <ele>47.722534179688</ele>
        <time>2010-03-07T08:16:12Z</time>
      </trkpt>
      <trkpt lat="50.42639" lon="3.51393">
        <ele>46.76123046875</ele>
        <time>2010-03-07T08:16:16Z</time>
      </trkpt>
      <trkpt lat="50.42644" lon="3.51419">
        <ele>46.280639648438</ele>
        <time>2010-03-07T08:16:21Z</time>
      </trkpt>
      <trkpt lat="50.42652" lon="3.5145">
        <ele>47.722534179688</ele>
        <time>2010-03-07T08:16:26Z</time>
      </trkpt>
      <trkpt lat="50.42654" lon="3.51456">
        <ele>47.241821289062</ele>
        <time>2010-03-07T08:16:27Z</time>
      </trkpt>
      <trkpt lat="50.4266" lon="3.51496">
        <ele>44.838623046875</ele>
        <time>2010-03-07T08:16:33Z</time>
      </trkpt>
      <trkpt lat="50.42661" lon="3.51533">
        <ele>45.799926757812</ele>
        <time>2010-03-07T08:16:39Z</time>
      </trkpt>
      <trkpt lat="50.42669" lon="3.51571">
        <ele>45.799926757812</ele>
        <time>2010-03-07T08:16:45Z</time>
      </trkpt>
      <trkpt lat="50.42672" lon="3.51583">
        <ele>45.799926757812</ele>
        <time>2010-03-07T08:16:47Z</time>
      </trkpt>
      <trkpt lat="50.42665" lon="3.51598">
        <ele>46.280639648438</ele>
        <time>2010-03-07T08:16:51Z</time>
      </trkpt>
      <trkpt lat="50.42656" lon="3.51599">
        <ele>45.799926757812</ele>
        <time>2010-03-07T08:16:53Z</time>
      </trkpt>
      <trkpt lat="50.42627" lon="3.51599">
        <ele>43.396606445312</ele>
        <time>2010-03-07T08:16:58Z</time>
      </trkpt>
      <trkpt lat="50.42615" lon="3.51601">
        <ele>42.916015625</ele>
        <time>2010-03-07T08:17:00Z</time>
      </trkpt>
      <trkpt lat="50.42594" lon="3.51601">
        <ele>42.435424804688</ele>
        <time>2010-03-07T08:17:03Z</time>
      </trkpt>
      <trkpt lat="50.42551" lon="3.51594">
        <ele>41.954711914062</ele>
        <time>2010-03-07T08:17:09Z</time>
      </trkpt>
      <trkpt lat="50.42511" lon="3.51596">
        <ele>42.916015625</ele>
        <time>2010-03-07T08:17:15Z</time>
      </trkpt>
      <trkpt lat="50.425" lon="3.51597">
        <ele>43.396606445312</ele>
        <time>2010-03-07T08:17:17Z</time>
      </trkpt>
      <trkpt lat="50.42481" lon="3.51583">
        <ele>42.916015625</ele>
        <time>2010-03-07T08:17:21Z</time>
      </trkpt>
      <trkpt lat="50.42478" lon="3.51576">
        <ele>42.916015625</ele>
        <time>2010-03-07T08:17:22Z</time>
      </trkpt>
      <trkpt lat="50.42457" lon="3.51518">
        <ele>41.954711914062</ele>
        <time>2010-03-07T08:17:29Z</time>
      </trkpt>
      <trkpt lat="50.42434" lon="3.51464">
        <ele>40.032104492188</ele>
        <time>2010-03-07T08:17:35Z</time>
      </trkpt>
      <trkpt lat="50.42404" lon="3.51392">
        <ele>37.148071289062</ele>
        <time>2010-03-07T08:17:42Z</time>
      </trkpt>
      <trkpt lat="50.42377" lon="3.51333">
        <ele>36.66748046875</ele>
        <time>2010-03-07T08:17:48Z</time>
      </trkpt>
      <trkpt lat="50.42347" lon="3.51257">
        <ele>33.783447265625</ele>
        <time>2010-03-07T08:17:55Z</time>
      </trkpt>
      <trkpt lat="50.4233" lon="3.5121">
        <ele>31.860717773438</ele>
        <time>2010-03-07T08:18:00Z</time>
      </trkpt>
      <trkpt lat="50.42315" lon="3.51195">
        <ele>32.341552734375</ele>
        <time>2010-03-07T08:18:04Z</time>
      </trkpt>
      <trkpt lat="50.42311" lon="3.51197">
        <ele>32.341552734375</ele>
        <time>2010-03-07T08:18:05Z</time>
      </trkpt>
      <trkpt lat="50.42274" lon="3.51216">
        <ele>32.341552734375</ele>
        <time>2010-03-07T08:18:11Z</time>
      </trkpt>
      <trkpt lat="50.42242" lon="3.51229">
        <ele>32.341552734375</ele>
        <time>2010-03-07T08:18:16Z</time>
      </trkpt>
      <trkpt lat="50.42204" lon="3.51245">
        <ele>30.418823242188</ele>
        <time>2010-03-07T08:18:22Z</time>
      </trkpt>
      <trkpt lat="50.42178" lon="3.51256">
        <ele>28.976928710938</ele>
        <time>2010-03-07T08:18:26Z</time>
      </trkpt>
      <trkpt lat="50.42138" lon="3.51275">
        <ele>30.899536132812</ele>
        <time>2010-03-07T08:18:32Z</time>
      </trkpt>
      <trkpt lat="50.42099" lon="3.5129">
        <ele>28.496215820312</ele>
        <time>2010-03-07T08:18:38Z</time>
      </trkpt>
      <trkpt lat="50.42063" lon="3.51305">
        <ele>27.534912109375</ele>
        <time>2010-03-07T08:18:44Z</time>
      </trkpt>
      <trkpt lat="50.42034" lon="3.51317">
        <ele>28.496215820312</ele>
        <time>2010-03-07T08:18:50Z</time>
      </trkpt>
      <trkpt lat="50.41996" lon="3.51332">
        <ele>28.976928710938</ele>
        <time>2010-03-07T08:18:57Z</time>
      </trkpt>
      <trkpt lat="50.41955" lon="3.51352">
        <ele>28.976928710938</ele>
        <time>2010-03-07T08:19:04Z</time>
      </trkpt>
      <trkpt lat="50.41903" lon="3.51372">
        <ele>28.496215820312</ele>
        <time>2010-03-07T08:19:12Z</time>
      </trkpt>
      <trkpt lat="50.41862" lon="3.5139">
        <ele>28.015502929688</ele>
        <time>2010-03-07T08:19:18Z</time>
      </trkpt>
      <trkpt lat="50.41825" lon="3.51406">
        <ele>28.015502929688</ele>
        <time>2010-03-07T08:19:24Z</time>
      </trkpt>
      <trkpt lat="50.41808" lon="3.51413">
        <ele>28.496215820312</ele>
        <time>2010-03-07T08:19:28Z</time>
      </trkpt>
      <trkpt lat="50.4179" lon="3.51417">
        <ele>29.938110351562</ele>
        <time>2010-03-07T08:19:32Z</time>
      </trkpt>
      <trkpt lat="50.41785" lon="3.51415">
        <ele>29.45751953125</ele>
        <time>2010-03-07T08:19:33Z</time>
      </trkpt>
      <trkpt lat="50.41755" lon="3.51395">
        <ele>28.496215820312</ele>
        <time>2010-03-07T08:19:38Z</time>
      </trkpt>
      <trkpt lat="50.41708" lon="3.5136">
        <ele>27.534912109375</ele>
        <time>2010-03-07T08:19:46Z</time>
      </trkpt>
      <trkpt lat="50.41676" lon="3.51314">
        <ele>28.015502929688</ele>
        <time>2010-03-07T08:19:53Z</time>
      </trkpt>
      <trkpt lat="50.41657" lon="3.51283">
        <ele>29.45751953125</ele>
        <time>2010-03-07T08:19:59Z</time>
      </trkpt>
      <trkpt lat="50.4164" lon="3.51261">
        <ele>30.899536132812</ele>
        <time>2010-03-07T08:20:05Z</time>
      </trkpt>
      <trkpt lat="50.41637" lon="3.51257">
        <ele>30.899536132812</ele>
        <time>2010-03-07T08:20:06Z</time>
      </trkpt>
      <trkpt lat="50.41615" lon="3.5123">
        <ele>31.860717773438</ele>
        <time>2010-03-07T08:20:12Z</time>
      </trkpt>
      <trkpt lat="50.41583" lon="3.51196">
        <ele>31.860717773438</ele>
        <time>2010-03-07T08:20:19Z</time>
      </trkpt>
      <trkpt lat="50.41555" lon="3.51165">
        <ele>31.380126953125</ele>
        <time>2010-03-07T08:20:24Z</time>
      </trkpt>
      <trkpt lat="50.41523" lon="3.51134">
        <ele>30.418823242188</ele>
        <time>2010-03-07T08:20:29Z</time>
      </trkpt>
      <trkpt lat="50.41496" lon="3.51117">
        <ele>30.899536132812</ele>
        <time>2010-03-07T08:20:34Z</time>
      </trkpt>
      <trkpt lat="50.41491" lon="3.51112">
        <ele>30.899536132812</ele>
        <time>2010-03-07T08:20:38Z</time>
      </trkpt>
      <trkpt lat="50.41488" lon="3.51113">
        <ele>30.899536132812</ele>
        <time>2010-03-07T08:20:42Z</time>
      </trkpt>
      <trkpt lat="50.41484" lon="3.51117">
        <ele>30.418823242188</ele>
        <time>2010-03-07T08:20:47Z</time>
      </trkpt>
      <trkpt lat="50.41479" lon="3.51114">
        <ele>29.938110351562</ele>
        <time>2010-03-07T08:20:50Z</time>
      </trkpt>
      <trkpt lat="50.41457" lon="3.51091">
        <ele>28.976928710938</ele>
        <time>2010-03-07T08:20:55Z</time>
      </trkpt>
      <trkpt lat="50.41419" lon="3.51055">
        <ele>28.015502929688</ele>
        <time>2010-03-07T08:21:01Z</time>
      </trkpt>
      <trkpt lat="50.41373" lon="3.51013">
        <ele>27.054321289062</ele>
        <time>2010-03-07T08:21:08Z</time>
      </trkpt>
      <trkpt lat="50.41328" lon="3.50971">
        <ele>27.534912109375</ele>
        <time>2010-03-07T08:21:15Z</time>
      </trkpt>
      <trkpt lat="50.41296" lon="3.50944">
        <ele>27.054321289062</ele>
        <time>2010-03-07T08:21:20Z</time>
      </trkpt>
      <trkpt lat="50.4128" lon="3.50921">
        <ele>27.534912109375</ele>
        <time>2010-03-07T08:21:23Z</time>
      </trkpt>
      <trkpt lat="50.41256" lon="3.50901">
        <ele>27.054321289062</ele>
        <time>2010-03-07T08:21:27Z</time>
      </trkpt>
      <trkpt lat="50.41241" lon="3.50883">
        <ele>25.131713867188</ele>
        <time>2010-03-07T08:21:30Z</time>
      </trkpt>
      <trkpt lat="50.41216" lon="3.50863">
        <ele>24.651000976562</ele>
        <time>2010-03-07T08:21:34Z</time>
      </trkpt>
      <trkpt lat="50.41186" lon="3.50832">
        <ele>25.6123046875</ele>
        <time>2010-03-07T08:21:39Z</time>
      </trkpt>
      <trkpt lat="50.41163" lon="3.50807">
        <ele>26.092895507812</ele>
        <time>2010-03-07T08:21:43Z</time>
      </trkpt>
      <trkpt lat="50.4113" lon="3.50772">
        <ele>27.534912109375</ele>
        <time>2010-03-07T08:21:49Z</time>
      </trkpt>
      <trkpt lat="50.41103" lon="3.50735">
        <ele>28.976928710938</ele>
        <time>2010-03-07T08:21:55Z</time>
      </trkpt>
      <trkpt lat="50.41087" lon="3.50695">
        <ele>30.418823242188</ele>
        <time>2010-03-07T08:22:00Z</time>
      </trkpt>
      <trkpt lat="50.41073" lon="3.50677">
        <ele>30.899536132812</ele>
        <time>2010-03-07T08:22:03Z</time>
      </trkpt>
      <trkpt lat="50.41064" lon="3.50666">
        <ele>30.899536132812</ele>
        <time>2010-03-07T08:22:05Z</time>
      </trkpt>
      <trkpt lat="50.41056" lon="3.50634">
        <ele>30.899536132812</ele>
        <time>2010-03-07T08:22:09Z</time>
      </trkpt>
      <trkpt lat="50.41048" lon="3.50602">
        <ele>30.899536132812</ele>
        <time>2010-03-07T08:22:13Z</time>
      </trkpt>
      <trkpt lat="50.41042" lon="3.50562">
        <ele>30.899536132812</ele>
        <time>2010-03-07T08:22:18Z</time>
      </trkpt>
      <trkpt lat="50.41043" lon="3.5053">
        <ele>30.418823242188</ele>
        <time>2010-03-07T08:22:22Z</time>
      </trkpt>
      <trkpt lat="50.41043" lon="3.50522">
        <ele>30.418823242188</ele>
        <time>2010-03-07T08:22:23Z</time>
      </trkpt>
      <trkpt lat="50.41042" lon="3.50505">
        <ele>30.418823242188</ele>
        <time>2010-03-07T08:22:25Z</time>
      </trkpt>
      <trkpt lat="50.41042" lon="3.50441">
        <ele>30.899536132812</ele>
        <time>2010-03-07T08:22:32Z</time>
      </trkpt>
      <trkpt lat="50.41039" lon="3.50399">
        <ele>31.860717773438</ele>
        <time>2010-03-07T08:22:37Z</time>
      </trkpt>
      <trkpt lat="50.41037" lon="3.50385">
        <ele>32.822265625</ele>
        <time>2010-03-07T08:22:39Z</time>
      </trkpt>
      <trkpt lat="50.41023" lon="3.50368">
        <ele>33.302856445312</ele>
        <time>2010-03-07T08:22:43Z</time>
      </trkpt>
      <trkpt lat="50.41017" lon="3.50364">
        <ele>33.783447265625</ele>
        <time>2010-03-07T08:22:46Z</time>
      </trkpt>
      <trkpt lat="50.4101" lon="3.50361">
        <ele>34.26416015625</ele>
        <time>2010-03-07T08:22:52Z</time>
      </trkpt>
      <trkpt lat="50.4101" lon="3.50361">
        <ele>33.783447265625</ele>
        <time>2010-03-07T08:22:55Z</time>
      </trkpt>
      <trkpt lat="50.41006" lon="3.50354">
        <ele>33.783447265625</ele>
        <time>2010-03-07T08:23:00Z</time>
      </trkpt>
      <trkpt lat="50.40997" lon="3.50341">
        <ele>33.302856445312</ele>
        <time>2010-03-07T08:23:06Z</time>
      </trkpt>
      <trkpt lat="50.40989" lon="3.50315">
        <ele>32.822265625</ele>
        <time>2010-03-07T08:23:11Z</time>
      </trkpt>
      <trkpt lat="50.40984" lon="3.50292">
        <ele>31.860717773438</ele>
        <time>2010-03-07T08:23:14Z</time>
      </trkpt>
      <trkpt lat="50.40979" lon="3.50233">
        <ele>31.860717773438</ele>
        <time>2010-03-07T08:23:21Z</time>
      </trkpt>
      <trkpt lat="50.40971" lon="3.50175">
        <ele>33.302856445312</ele>
        <time>2010-03-07T08:23:28Z</time>
      </trkpt>
      <trkpt lat="50.40966" lon="3.50143">
        <ele>35.7060546875</ele>
        <time>2010-03-07T08:23:33Z</time>
      </trkpt>
      <trkpt lat="50.40961" lon="3.50137">
        <ele>36.66748046875</ele>
        <time>2010-03-07T08:23:38Z</time>
      </trkpt>
      <trkpt lat="50.40949" lon="3.50142">
        <ele>39.070678710938</ele>
        <time>2010-03-07T08:23:47Z</time>
      </trkpt>
      <trkpt lat="50.40947" lon="3.50138">
        <ele>39.55126953125</ele>
        <time>2010-03-07T08:23:51Z</time>
      </trkpt>
      <trkpt lat="50.40945" lon="3.5012">
        <ele>40.993408203125</ele>
        <time>2010-03-07T08:23:58Z</time>
      </trkpt>
      <trkpt lat="50.40945" lon="3.50099">
        <ele>42.916015625</ele>
        <time>2010-03-07T08:24:07Z</time>
      </trkpt>
      <trkpt lat="50.40945" lon="3.50084">
        <ele>43.877319335938</ele>
        <time>2010-03-07T08:24:15Z</time>
      </trkpt>
      <trkpt lat="50.40948" lon="3.50073">
        <ele>44.838623046875</ele>
        <time>2010-03-07T08:24:22Z</time>
      </trkpt>
      <trkpt lat="50.40948" lon="3.50072">
        <ele>44.838623046875</ele>
        <time>2010-03-07T08:24:23Z</time>
      </trkpt>
      <trkpt lat="50.40947" lon="3.50064">
        <ele>45.319213867188</ele>
        <time>2010-03-07T08:24:29Z</time>
      </trkpt>
      <trkpt lat="50.40947" lon="3.50065">
        <ele>45.799926757812</ele>
        <time>2010-03-07T08:24:30Z</time>
      </trkpt>
      <trkpt lat="50.40947" lon="3.50063">
        <ele>45.799926757812</ele>
        <time>2010-03-07T08:24:33Z</time>
      </trkpt>
      <trkpt lat="50.40947" lon="3.50061">
        <ele>45.799926757812</ele>
        <time>2010-03-07T08:24:34Z</time>
      </trkpt>
      <trkpt lat="50.40944" lon="3.50054">
        <ele>46.76123046875</ele>
        <time>2010-03-07T08:24:40Z</time>
      </trkpt>
      <trkpt lat="50.40945" lon="3.50045">
        <ele>47.241821289062</ele>
        <time>2010-03-07T08:24:48Z</time>
      </trkpt>
      <trkpt lat="50.40947" lon="3.50035">
        <ele>48.683959960938</ele>
        <time>2010-03-07T08:24:57Z</time>
      </trkpt>
      <trkpt lat="50.40944" lon="3.5003">
        <ele>48.683959960938</ele>
        <time>2010-03-07T08:25:04Z</time>
      </trkpt>
      <trkpt lat="50.40943" lon="3.5003">
        <ele>49.16455078125</ele>
        <time>2010-03-07T08:25:05Z</time>
      </trkpt>
      <trkpt lat="50.40936" lon="3.50023">
        <ele>52.048583984375</ele>
        <time>2010-03-07T08:25:15Z</time>
      </trkpt>
      <trkpt lat="50.40935" lon="3.50017">
        <ele>52.048583984375</ele>
        <time>2010-03-07T08:25:22Z</time>
      </trkpt>
      <trkpt lat="50.40937" lon="3.5">
        <ele>51.087158203125</ele>
        <time>2010-03-07T08:25:27Z</time>
      </trkpt>
      <trkpt lat="50.40939" lon="3.49978">
        <ele>49.16455078125</ele>
        <time>2010-03-07T08:25:31Z</time>
      </trkpt>
      <trkpt lat="50.40939" lon="3.49975">
        <ele>48.683959960938</ele>
        <time>2010-03-07T08:25:32Z</time>
      </trkpt>
      <trkpt lat="50.40944" lon="3.4997">
        <ele>47.241821289062</ele>
        <time>2010-03-07T08:25:36Z</time>
      </trkpt>
      <trkpt lat="50.40969" lon="3.49982">
        <ele>43.877319335938</ele>
        <time>2010-03-07T08:25:41Z</time>
      </trkpt>
      <trkpt lat="50.40973" lon="3.49975">
        <ele>41.473999023438</ele>
        <time>2010-03-07T08:25:45Z</time>
      </trkpt>
      <trkpt lat="50.40973" lon="3.49971">
        <ele>40.512817382812</ele>
        <time>2010-03-07T08:25:46Z</time>
      </trkpt>
      <trkpt lat="50.40977" lon="3.49952">
        <ele>38.109375</ele>
        <time>2010-03-07T08:25:49Z</time>
      </trkpt>
      <trkpt lat="50.40979" lon="3.49919">
        <ele>36.186767578125</ele>
        <time>2010-03-07T08:25:53Z</time>
      </trkpt>
      <trkpt lat="50.40982" lon="3.49916">
        <ele>34.744873046875</ele>
        <time>2010-03-07T08:25:55Z</time>
      </trkpt>
      <trkpt lat="50.40986" lon="3.49916">
        <ele>33.783447265625</ele>
        <time>2010-03-07T08:25:56Z</time>
      </trkpt>
      <trkpt lat="50.40998" lon="3.49927">
        <ele>31.860717773438</ele>
        <time>2010-03-07T08:26:01Z</time>
      </trkpt>
      <trkpt lat="50.40993" lon="3.49941">
        <ele>32.341552734375</ele>
        <time>2010-03-07T08:26:05Z</time>
      </trkpt>
      <trkpt lat="50.40989" lon="3.49964">
        <ele>35.7060546875</ele>
        <time>2010-03-07T08:26:12Z</time>
      </trkpt>
      <trkpt lat="50.40987" lon="3.49985">
        <ele>40.512817382812</ele>
        <time>2010-03-07T08:26:19Z</time>
      </trkpt>
      <trkpt lat="50.40985" lon="3.50003">
        <ele>39.55126953125</ele>
        <time>2010-03-07T08:26:23Z</time>
      </trkpt>
      <trkpt lat="50.40986" lon="3.50031">
        <ele>40.032104492188</ele>
        <time>2010-03-07T08:26:28Z</time>
      </trkpt>
      <trkpt lat="50.40989" lon="3.50032">
        <ele>40.032104492188</ele>
        <time>2010-03-07T08:26:30Z</time>
      </trkpt>
      <trkpt lat="50.41001" lon="3.50031">
        <ele>40.032104492188</ele>
        <time>2010-03-07T08:26:34Z</time>
      </trkpt>
      <trkpt lat="50.41015" lon="3.50022">
        <ele>40.032104492188</ele>
        <time>2010-03-07T08:26:38Z</time>
      </trkpt>
      <trkpt lat="50.41023" lon="3.50009">
        <ele>37.148071289062</ele>
        <time>2010-03-07T08:26:42Z</time>
      </trkpt>
      <trkpt lat="50.41035" lon="3.49991">
        <ele>35.225463867188</ele>
        <time>2010-03-07T08:26:48Z</time>
      </trkpt>
      <trkpt lat="50.41037" lon="3.49971">
        <ele>33.783447265625</ele>
        <time>2010-03-07T08:26:52Z</time>
      </trkpt>
      <trkpt lat="50.41029" lon="3.49943">
        <ele>33.783447265625</ele>
        <time>2010-03-07T08:26:57Z</time>
      </trkpt>
      <trkpt lat="50.41022" lon="3.49927">
        <ele>36.186767578125</ele>
        <time>2010-03-07T08:27:01Z</time>
      </trkpt>
      <trkpt lat="50.41013" lon="3.49907">
        <ele>36.66748046875</ele>
        <time>2010-03-07T08:27:06Z</time>
      </trkpt>
      <trkpt lat="50.41008" lon="3.49877">
        <ele>36.66748046875</ele>
        <time>2010-03-07T08:27:11Z</time>
      </trkpt>
      <trkpt lat="50.41007" lon="3.49867">
        <ele>36.66748046875</ele>
        <time>2010-03-07T08:27:13Z</time>
      </trkpt>
      <trkpt lat="50.40999" lon="3.49857">
        <ele>36.186767578125</ele>
        <time>2010-03-07T08:27:17Z</time>
      </trkpt>
      <trkpt lat="50.40995" lon="3.49832">
        <ele>34.744873046875</ele>
        <time>2010-03-07T08:27:21Z</time>
      </trkpt>
      <trkpt lat="50.40994" lon="3.49803">
        <ele>34.744873046875</ele>
        <time>2010-03-07T08:27:25Z</time>
      </trkpt>
      <trkpt lat="50.40985" lon="3.49793">
        <ele>34.26416015625</ele>
        <time>2010-03-07T08:27:28Z</time>
      </trkpt>
      <trkpt lat="50.40962" lon="3.49796">
        <ele>34.26416015625</ele>
        <time>2010-03-07T08:27:33Z</time>
      </trkpt>
      <trkpt lat="50.40947" lon="3.49781">
        <ele>34.26416015625</ele>
        <time>2010-03-07T08:27:37Z</time>
      </trkpt>
      <trkpt lat="50.4094" lon="3.49771">
        <ele>33.783447265625</ele>
        <time>2010-03-07T08:27:39Z</time>
      </trkpt>
      <trkpt lat="50.40916" lon="3.49744">
        <ele>33.302856445312</ele>
        <time>2010-03-07T08:27:45Z</time>
      </trkpt>
      <trkpt lat="50.40905" lon="3.49729">
        <ele>33.302856445312</ele>
        <time>2010-03-07T08:27:48Z</time>
      </trkpt>
      <trkpt lat="50.40894" lon="3.4971">
        <ele>33.302856445312</ele>
        <time>2010-03-07T08:27:51Z</time>
      </trkpt>
      <trkpt lat="50.40888" lon="3.49699">
        <ele>31.860717773438</ele>
        <time>2010-03-07T08:27:53Z</time>
      </trkpt>
      <trkpt lat="50.40882" lon="3.49688">
        <ele>30.418823242188</ele>
        <time>2010-03-07T08:27:55Z</time>
      </trkpt>
      <trkpt lat="50.40876" lon="3.49679">
        <ele>28.496215820312</ele>
        <time>2010-03-07T08:27:57Z</time>
      </trkpt>
      <trkpt lat="50.40858" lon="3.4967">
        <ele>27.054321289062</ele>
        <time>2010-03-07T08:28:02Z</time>
      </trkpt>
      <trkpt lat="50.40849" lon="3.49675">
        <ele>27.054321289062</ele>
        <time>2010-03-07T08:28:06Z</time>
      </trkpt>
      <trkpt lat="50.40843" lon="3.49692">
        <ele>27.054321289062</ele>
        <time>2010-03-07T08:28:11Z</time>
      </trkpt>
      <trkpt lat="50.40842" lon="3.49703">
        <ele>27.054321289062</ele>
        <time>2010-03-07T08:28:14Z</time>
      </trkpt>
      <trkpt lat="50.40831" lon="3.49713">
        <ele>28.015502929688</ele>
        <time>2010-03-07T08:28:18Z</time>
      </trkpt>
      <trkpt lat="50.40822" lon="3.49733">
        <ele>29.45751953125</ele>
        <time>2010-03-07T08:28:22Z</time>
      </trkpt>
      <trkpt lat="50.40809" lon="3.49738">
        <ele>27.534912109375</ele>
        <time>2010-03-07T08:28:26Z</time>
      </trkpt>
      <trkpt lat="50.40793" lon="3.49728">
        <ele>26.573608398438</ele>
        <time>2010-03-07T08:28:29Z</time>
      </trkpt>
      <trkpt lat="50.40781" lon="3.4972">
        <ele>26.573608398438</ele>
        <time>2010-03-07T08:28:32Z</time>
      </trkpt>
      <trkpt lat="50.40774" lon="3.49721">
        <ele>26.573608398438</ele>
        <time>2010-03-07T08:28:34Z</time>
      </trkpt>
      <trkpt lat="50.40751" lon="3.49732">
        <ele>25.6123046875</ele>
        <time>2010-03-07T08:28:40Z</time>
      </trkpt>
      <trkpt lat="50.40735" lon="3.49743">
        <ele>24.170288085938</ele>
        <time>2010-03-07T08:28:44Z</time>
      </trkpt>
      <trkpt lat="50.40714" lon="3.49759">
        <ele>23.208984375</ele>
        <time>2010-03-07T08:28:48Z</time>
      </trkpt>
      <trkpt lat="50.40683" lon="3.49774">
        <ele>23.689575195312</ele>
        <time>2010-03-07T08:28:54Z</time>
      </trkpt>
      <trkpt lat="50.40651" lon="3.49796">
        <ele>25.131713867188</ele>
        <time>2010-03-07T08:29:00Z</time>
      </trkpt>
      <trkpt lat="50.40626" lon="3.49812">
        <ele>23.208984375</ele>
        <time>2010-03-07T08:29:05Z</time>
      </trkpt>
      <trkpt lat="50.40615" lon="3.49815">
        <ele>24.170288085938</ele>
        <time>2010-03-07T08:29:08Z</time>
      </trkpt>
      <trkpt lat="50.40605" lon="3.4981">
        <ele>24.170288085938</ele>
        <time>2010-03-07T08:29:11Z</time>
      </trkpt>
      <trkpt lat="50.40591" lon="3.49799">
        <ele>23.208984375</ele>
        <time>2010-03-07T08:29:14Z</time>
      </trkpt>
      <trkpt lat="50.40577" lon="3.49769">
        <ele>22.24755859375</ele>
        <time>2010-03-07T08:29:19Z</time>
      </trkpt>
      <trkpt lat="50.40571" lon="3.4976">
        <ele>22.24755859375</ele>
        <time>2010-03-07T08:29:21Z</time>
      </trkpt>
      <trkpt lat="50.40558" lon="3.49773">
        <ele>23.689575195312</ele>
        <time>2010-03-07T08:29:25Z</time>
      </trkpt>
      <trkpt lat="50.40548" lon="3.49785">
        <ele>25.131713867188</ele>
        <time>2010-03-07T08:29:28Z</time>
      </trkpt>
      <trkpt lat="50.40547" lon="3.4981">
        <ele>25.131713867188</ele>
        <time>2010-03-07T08:29:32Z</time>
      </trkpt>
      <trkpt lat="50.40558" lon="3.49844">
        <ele>23.689575195312</ele>
        <time>2010-03-07T08:29:38Z</time>
      </trkpt>
      <trkpt lat="50.40575" lon="3.49891">
        <ele>25.6123046875</ele>
        <time>2010-03-07T08:29:45Z</time>
      </trkpt>
      <trkpt lat="50.40581" lon="3.49905">
        <ele>27.054321289062</ele>
        <time>2010-03-07T08:29:47Z</time>
      </trkpt>
      <trkpt lat="50.40586" lon="3.4992">
        <ele>28.015502929688</ele>
        <time>2010-03-07T08:29:49Z</time>
      </trkpt>
      <trkpt lat="50.40601" lon="3.49965">
        <ele>28.015502929688</ele>
        <time>2010-03-07T08:29:55Z</time>
      </trkpt>
      <trkpt lat="50.40621" lon="3.50016">
        <ele>28.976928710938</ele>
        <time>2010-03-07T08:30:02Z</time>
      </trkpt>
      <trkpt lat="50.40641" lon="3.50074">
        <ele>27.054321289062</ele>
        <time>2010-03-07T08:30:09Z</time>
      </trkpt>
      <trkpt lat="50.40662" lon="3.50133">
        <ele>25.6123046875</ele>
        <time>2010-03-07T08:30:16Z</time>
      </trkpt>
      <trkpt lat="50.40685" lon="3.50197">
        <ele>24.170288085938</ele>
        <time>2010-03-07T08:30:24Z</time>
      </trkpt>
      <trkpt lat="50.40707" lon="3.50259">
        <ele>24.170288085938</ele>
        <time>2010-03-07T08:30:32Z</time>
      </trkpt>
      <trkpt lat="50.40726" lon="3.50309">
        <ele>24.651000976562</ele>
        <time>2010-03-07T08:30:39Z</time>
      </trkpt>
      <trkpt lat="50.40742" lon="3.50354">
        <ele>23.689575195312</ele>
        <time>2010-03-07T08:30:45Z</time>
      </trkpt>
      <trkpt lat="50.40759" lon="3.50399">
        <ele>24.170288085938</ele>
        <time>2010-03-07T08:30:51Z</time>
      </trkpt>
      <trkpt lat="50.40772" lon="3.5044">
        <ele>24.170288085938</ele>
        <time>2010-03-07T08:30:57Z</time>
      </trkpt>
      <trkpt lat="50.40773" lon="3.50465">
        <ele>24.170288085938</ele>
        <time>2010-03-07T08:31:01Z</time>
      </trkpt>
      <trkpt lat="50.40761" lon="3.50494">
        <ele>23.689575195312</ele>
        <time>2010-03-07T08:31:07Z</time>
      </trkpt>
      <trkpt lat="50.40752" lon="3.50489">
        <ele>23.208984375</ele>
        <time>2010-03-07T08:31:11Z</time>
      </trkpt>
      <trkpt lat="50.40747" lon="3.50479">
        <ele>22.728271484375</ele>
        <time>2010-03-07T08:31:13Z</time>
      </trkpt>
      <trkpt lat="50.40742" lon="3.50468">
        <ele>22.24755859375</ele>
        <time>2010-03-07T08:31:15Z</time>
      </trkpt>
      <trkpt lat="50.4073" lon="3.50444">
        <ele>23.689575195312</ele>
        <time>2010-03-07T08:31:19Z</time>
      </trkpt>
      <trkpt lat="50.40725" lon="3.50433">
        <ele>24.170288085938</ele>
        <time>2010-03-07T08:31:21Z</time>
      </trkpt>
      <trkpt lat="50.40701" lon="3.50373">
        <ele>26.573608398438</ele>
        <time>2010-03-07T08:31:29Z</time>
      </trkpt>
      <trkpt lat="50.40692" lon="3.50348">
        <ele>27.054321289062</ele>
        <time>2010-03-07T08:31:32Z</time>
      </trkpt>
      <trkpt lat="50.40666" lon="3.50298">
        <ele>26.573608398438</ele>
        <time>2010-03-07T08:31:38Z</time>
      </trkpt>
      <trkpt lat="50.40656" lon="3.50283">
        <ele>26.573608398438</ele>
        <time>2010-03-07T08:31:40Z</time>
      </trkpt>
      <trkpt lat="50.40623" lon="3.50245">
        <ele>27.534912109375</ele>
        <time>2010-03-07T08:31:46Z</time>
      </trkpt>
      <trkpt lat="50.40602" lon="3.50219">
        <ele>31.860717773438</ele>
        <time>2010-03-07T08:31:52Z</time>
      </trkpt>
      <trkpt lat="50.40598" lon="3.5021">
        <ele>32.341552734375</ele>
        <time>2010-03-07T08:31:54Z</time>
      </trkpt>
      <trkpt lat="50.40585" lon="3.50161">
        <ele>31.380126953125</ele>
        <time>2010-03-07T08:32:01Z</time>
      </trkpt>
      <trkpt lat="50.40582" lon="3.50141">
        <ele>30.418823242188</ele>
        <time>2010-03-07T08:32:03Z</time>
      </trkpt>
      <trkpt lat="50.40578" lon="3.50092">
        <ele>29.938110351562</ele>
        <time>2010-03-07T08:32:08Z</time>
      </trkpt>
      <trkpt lat="50.40564" lon="3.50057">
        <ele>30.418823242188</ele>
        <time>2010-03-07T08:32:13Z</time>
      </trkpt>
      <trkpt lat="50.40557" lon="3.50045">
        <ele>30.418823242188</ele>
        <time>2010-03-07T08:32:15Z</time>
      </trkpt>
      <trkpt lat="50.40549" lon="3.50026">
        <ele>30.899536132812</ele>
        <time>2010-03-07T08:32:18Z</time>
      </trkpt>
      <trkpt lat="50.40543" lon="3.49994">
        <ele>29.45751953125</ele>
        <time>2010-03-07T08:32:22Z</time>
      </trkpt>
      <trkpt lat="50.40544" lon="3.49982">
        <ele>28.976928710938</ele>
        <time>2010-03-07T08:32:23Z</time>
      </trkpt>
      <trkpt lat="50.40546" lon="3.49948">
        <ele>28.496215820312</ele>
        <time>2010-03-07T08:32:26Z</time>
      </trkpt>
      <trkpt lat="50.40536" lon="3.49922">
        <ele>27.054321289062</ele>
        <time>2010-03-07T08:32:30Z</time>
      </trkpt>
      <trkpt lat="50.40532" lon="3.49919">
        <ele>27.054321289062</ele>
        <time>2010-03-07T08:32:31Z</time>
      </trkpt>
      <trkpt lat="50.40511" lon="3.49896">
        <ele>26.092895507812</ele>
        <time>2010-03-07T08:32:36Z</time>
      </trkpt>
      <trkpt lat="50.40497" lon="3.49873">
        <ele>26.092895507812</ele>
        <time>2010-03-07T08:32:40Z</time>
      </trkpt>
      <trkpt lat="50.40487" lon="3.49828">
        <ele>25.6123046875</ele>
        <time>2010-03-07T08:32:46Z</time>
      </trkpt>
      <trkpt lat="50.40469" lon="3.49798">
        <ele>25.6123046875</ele>
        <time>2010-03-07T08:32:51Z</time>
      </trkpt>
      <trkpt lat="50.40453" lon="3.49776">
        <ele>25.131713867188</ele>
        <time>2010-03-07T08:32:55Z</time>
      </trkpt>
      <trkpt lat="50.4045" lon="3.49769">
        <ele>25.131713867188</ele>
        <time>2010-03-07T08:32:56Z</time>
      </trkpt>
      <trkpt lat="50.40443" lon="3.49749">
        <ele>25.6123046875</ele>
        <time>2010-03-07T08:32:59Z</time>
      </trkpt>
      <trkpt lat="50.40433" lon="3.49728">
        <ele>25.6123046875</ele>
        <time>2010-03-07T08:33:03Z</time>
      </trkpt>
      <trkpt lat="50.40424" lon="3.49699">
        <ele>25.6123046875</ele>
        <time>2010-03-07T08:33:10Z</time>
      </trkpt>
      <trkpt lat="50.40419" lon="3.49676">
        <ele>25.131713867188</ele>
        <time>2010-03-07T08:33:14Z</time>
      </trkpt>
      <trkpt lat="50.40419" lon="3.49649">
        <ele>25.6123046875</ele>
        <time>2010-03-07T08:33:18Z</time>
      </trkpt>
      <trkpt lat="50.40416" lon="3.49619">
        <ele>25.6123046875</ele>
        <time>2010-03-07T08:33:22Z</time>
      </trkpt>
      <trkpt lat="50.40404" lon="3.49577">
        <ele>25.6123046875</ele>
        <time>2010-03-07T08:33:28Z</time>
      </trkpt>
      <trkpt lat="50.40395" lon="3.49544">
        <ele>25.131713867188</ele>
        <time>2010-03-07T08:33:34Z</time>
      </trkpt>
      <trkpt lat="50.40385" lon="3.49533">
        <ele>24.651000976562</ele>
        <time>2010-03-07T08:33:38Z</time>
      </trkpt>
      <trkpt lat="50.40377" lon="3.49523">
        <ele>25.131713867188</ele>
        <time>2010-03-07T08:33:42Z</time>
      </trkpt>
      <trkpt lat="50.40376" lon="3.49522">
        <ele>25.131713867188</ele>
        <time>2010-03-07T08:33:43Z</time>
      </trkpt>
      <trkpt lat="50.40374" lon="3.49514">
        <ele>30.899536132812</ele>
        <time>2010-03-07T08:34:19Z</time>
      </trkpt>
      <trkpt lat="50.40372" lon="3.49513">
        <ele>29.938110351562</ele>
        <time>2010-03-07T08:34:21Z</time>
      </trkpt>
      <trkpt lat="50.40372" lon="3.49513">
        <ele>29.938110351562</ele>
        <time>2010-03-07T08:34:22Z</time>
      </trkpt>
      <trkpt lat="50.40371" lon="3.49514">
        <ele>28.015502929688</ele>
        <time>2010-03-07T08:34:25Z</time>
      </trkpt>
      <trkpt lat="50.40371" lon="3.49513">
        <ele>27.054321289062</ele>
        <time>2010-03-07T08:34:26Z</time>
      </trkpt>
      <trkpt lat="50.40371" lon="3.49512">
        <ele>26.092895507812</ele>
        <time>2010-03-07T08:34:29Z</time>
      </trkpt>
      <trkpt lat="50.4037" lon="3.49512">
        <ele>26.573608398438</ele>
        <time>2010-03-07T08:34:30Z</time>
      </trkpt>
      <trkpt lat="50.40369" lon="3.49511">
        <ele>26.573608398438</ele>
        <time>2010-03-07T08:34:33Z</time>
      </trkpt>
      <trkpt lat="50.40368" lon="3.4951">
        <ele>26.092895507812</ele>
        <time>2010-03-07T08:34:34Z</time>
      </trkpt>
      <trkpt lat="50.4036" lon="3.49496">
        <ele>28.015502929688</ele>
        <time>2010-03-07T08:35:26Z</time>
      </trkpt>
      <trkpt lat="50.40359" lon="3.49495">
        <ele>26.573608398438</ele>
        <time>2010-03-07T08:35:29Z</time>
      </trkpt>
      <trkpt lat="50.40357" lon="3.49496">
        <ele>27.534912109375</ele>
        <time>2010-03-07T08:35:36Z</time>
      </trkpt>
      <trkpt lat="50.40357" lon="3.49501">
        <ele>28.976928710938</ele>
        <time>2010-03-07T08:35:41Z</time>
      </trkpt>
      <trkpt lat="50.40357" lon="3.49505">
        <ele>28.496215820312</ele>
        <time>2010-03-07T08:35:45Z</time>
      </trkpt>
      <trkpt lat="50.40359" lon="3.49517">
        <ele>26.092895507812</ele>
        <time>2010-03-07T08:35:49Z</time>
      </trkpt>
      <trkpt lat="50.40363" lon="3.49532">
        <ele>26.573608398438</ele>
        <time>2010-03-07T08:35:52Z</time>
      </trkpt>
      <trkpt lat="50.40358" lon="3.49552">
        <ele>25.6123046875</ele>
        <time>2010-03-07T08:35:56Z</time>
      </trkpt>
      <trkpt lat="50.40352" lon="3.49562">
        <ele>24.651000976562</ele>
        <time>2010-03-07T08:35:58Z</time>
      </trkpt>
      <trkpt lat="50.40326" lon="3.49611">
        <ele>22.728271484375</ele>
        <time>2010-03-07T08:36:07Z</time>
      </trkpt>
      <trkpt lat="50.40321" lon="3.49625">
        <ele>23.208984375</ele>
        <time>2010-03-07T08:36:09Z</time>
      </trkpt>
      <trkpt lat="50.40316" lon="3.49639">
        <ele>22.24755859375</ele>
        <time>2010-03-07T08:36:11Z</time>
      </trkpt>
      <trkpt lat="50.40313" lon="3.49665">
        <ele>22.728271484375</ele>
        <time>2010-03-07T08:36:15Z</time>
      </trkpt>
      <trkpt lat="50.40309" lon="3.49689">
        <ele>25.6123046875</ele>
        <time>2010-03-07T08:36:21Z</time>
      </trkpt>
      <trkpt lat="50.4031" lon="3.49706">
        <ele>28.015502929688</ele>
        <time>2010-03-07T08:36:26Z</time>
      </trkpt>
      <trkpt lat="50.40322" lon="3.49727">
        <ele>27.054321289062</ele>
        <time>2010-03-07T08:36:31Z</time>
      </trkpt>
      <trkpt lat="50.40341" lon="3.49756">
        <ele>28.496215820312</ele>
        <time>2010-03-07T08:36:38Z</time>
      </trkpt>
      <trkpt lat="50.40358" lon="3.49789">
        <ele>29.45751953125</ele>
        <time>2010-03-07T08:36:46Z</time>
      </trkpt>
      <trkpt lat="50.40367" lon="3.4981">
        <ele>28.976928710938</ele>
        <time>2010-03-07T08:36:52Z</time>
      </trkpt>
      <trkpt lat="50.40379" lon="3.49851">
        <ele>29.938110351562</ele>
        <time>2010-03-07T08:37:01Z</time>
      </trkpt>
      <trkpt lat="50.40392" lon="3.49871">
        <ele>28.976928710938</ele>
        <time>2010-03-07T08:37:06Z</time>
      </trkpt>
      <trkpt lat="50.40395" lon="3.49874">
        <ele>28.976928710938</ele>
        <time>2010-03-07T08:37:07Z</time>
      </trkpt>
      <trkpt lat="50.40416" lon="3.49895">
        <ele>28.976928710938</ele>
        <time>2010-03-07T08:37:13Z</time>
      </trkpt>
      <trkpt lat="50.40419" lon="3.49901">
        <ele>29.45751953125</ele>
        <time>2010-03-07T08:37:14Z</time>
      </trkpt>
      <trkpt lat="50.40438" lon="3.49948">
        <ele>32.341552734375</ele>
        <time>2010-03-07T08:37:22Z</time>
      </trkpt>
      <trkpt lat="50.4044" lon="3.49954">
        <ele>32.341552734375</ele>
        <time>2010-03-07T08:37:23Z</time>
      </trkpt>
      <trkpt lat="50.40456" lon="3.50001">
        <ele>34.26416015625</ele>
        <time>2010-03-07T08:37:30Z</time>
      </trkpt>
      <trkpt lat="50.40472" lon="3.50064">
        <ele>31.380126953125</ele>
        <time>2010-03-07T08:37:39Z</time>
      </trkpt>
      <trkpt lat="50.40474" lon="3.50078">
        <ele>30.899536132812</ele>
        <time>2010-03-07T08:37:41Z</time>
      </trkpt>
      <trkpt lat="50.40477" lon="3.50133">
        <ele>27.054321289062</ele>
        <time>2010-03-07T08:37:48Z</time>
      </trkpt>
      <trkpt lat="50.40484" lon="3.50171">
        <ele>28.496215820312</ele>
        <time>2010-03-07T08:37:53Z</time>
      </trkpt>
      <trkpt lat="50.40493" lon="3.50207">
        <ele>28.976928710938</ele>
        <time>2010-03-07T08:37:58Z</time>
      </trkpt>
      <trkpt lat="50.40502" lon="3.50251">
        <ele>28.976928710938</ele>
        <time>2010-03-07T08:38:02Z</time>
      </trkpt>
      <trkpt lat="50.40513" lon="3.50282">
        <ele>27.054321289062</ele>
        <time>2010-03-07T08:38:06Z</time>
      </trkpt>
      <trkpt lat="50.40529" lon="3.50318">
        <ele>27.054321289062</ele>
        <time>2010-03-07T08:38:12Z</time>
      </trkpt>
      <trkpt lat="50.40539" lon="3.50333">
        <ele>26.573608398438</ele>
        <time>2010-03-07T08:38:15Z</time>
      </trkpt>
      <trkpt lat="50.40548" lon="3.50364">
        <ele>26.573608398438</ele>
        <time>2010-03-07T08:38:19Z</time>
      </trkpt>
      <trkpt lat="50.40553" lon="3.50396">
        <ele>26.573608398438</ele>
        <time>2010-03-07T08:38:24Z</time>
      </trkpt>
      <trkpt lat="50.40559" lon="3.50417">
        <ele>26.573608398438</ele>
        <time>2010-03-07T08:38:27Z</time>
      </trkpt>
      <trkpt lat="50.40567" lon="3.50445">
        <ele>26.573608398438</ele>
        <time>2010-03-07T08:38:31Z</time>
      </trkpt>
      <trkpt lat="50.40576" lon="3.50484">
        <ele>27.054321289062</ele>
        <time>2010-03-07T08:38:37Z</time>
      </trkpt>
      <trkpt lat="50.40576" lon="3.50503">
        <ele>28.015502929688</ele>
        <time>2010-03-07T08:38:41Z</time>
      </trkpt>
      <trkpt lat="50.40578" lon="3.50514">
        <ele>28.496215820312</ele>
        <time>2010-03-07T08:38:43Z</time>
      </trkpt>
      <trkpt lat="50.40583" lon="3.50558">
        <ele>25.131713867188</ele>
        <time>2010-03-07T08:38:49Z</time>
      </trkpt>
      <trkpt lat="50.40585" lon="3.50572">
        <ele>24.651000976562</ele>
        <time>2010-03-07T08:38:51Z</time>
      </trkpt>
      <trkpt lat="50.40596" lon="3.50597">
        <ele>24.170288085938</ele>
        <time>2010-03-07T08:38:56Z</time>
      </trkpt>
      <trkpt lat="50.40601" lon="3.50596">
        <ele>24.170288085938</ele>
        <time>2010-03-07T08:38:57Z</time>
      </trkpt>
      <trkpt lat="50.40638" lon="3.50579">
        <ele>24.651000976562</ele>
        <time>2010-03-07T08:39:05Z</time>
      </trkpt>
      <trkpt lat="50.40657" lon="3.50569">
        <ele>24.170288085938</ele>
        <time>2010-03-07T08:39:10Z</time>
      </trkpt>
      <trkpt lat="50.40664" lon="3.50566">
        <ele>23.208984375</ele>
        <time>2010-03-07T08:39:12Z</time>
      </trkpt>
      <trkpt lat="50.40696" lon="3.50551">
        <ele>22.728271484375</ele>
        <time>2010-03-07T08:39:20Z</time>
      </trkpt>
      <trkpt lat="50.40732" lon="3.50534">
        <ele>22.728271484375</ele>
        <time>2010-03-07T08:39:29Z</time>
      </trkpt>
      <trkpt lat="50.40747" lon="3.50536">
        <ele>22.728271484375</ele>
        <time>2010-03-07T08:39:34Z</time>
      </trkpt>
      <trkpt lat="50.40752" lon="3.50544">
        <ele>22.728271484375</ele>
        <time>2010-03-07T08:39:38Z</time>
      </trkpt>
      <trkpt lat="50.40752" lon="3.50544">
        <ele>21.766967773438</ele>
        <time>2010-03-07T08:39:42Z</time>
      </trkpt>
      <trkpt lat="50.40748" lon="3.50546">
        <ele>22.728271484375</ele>
        <time>2010-03-07T08:39:47Z</time>
      </trkpt>
      <trkpt lat="50.40747" lon="3.50547">
        <ele>22.24755859375</ele>
        <time>2010-03-07T08:39:49Z</time>
      </trkpt>
      <trkpt lat="50.40747" lon="3.50548">
        <ele>21.286376953125</ele>
        <time>2010-03-07T08:45:29Z</time>
      </trkpt>
      <trkpt lat="50.40747" lon="3.50548">
        <ele>21.766967773438</ele>
        <time>2010-03-07T08:45:30Z</time>
      </trkpt>
      <trkpt lat="50.40747" lon="3.50548">
        <ele>22.728271484375</ele>
        <time>2010-03-07T08:45:38Z</time>
      </trkpt>
      <trkpt lat="50.40747" lon="3.50549">
        <ele>23.208984375</ele>
        <time>2010-03-07T08:45:39Z</time>
      </trkpt>
      <trkpt lat="50.40747" lon="3.50551">
        <ele>19.844360351562</ele>
        <time>2010-03-07T08:48:35Z</time>
      </trkpt>
      <trkpt lat="50.4075" lon="3.5056">
        <ele>19.36376953125</ele>
        <time>2010-03-07T08:48:39Z</time>
      </trkpt>
      <trkpt lat="50.4076" lon="3.50577">
        <ele>19.844360351562</ele>
        <time>2010-03-07T08:48:45Z</time>
      </trkpt>
      <trkpt lat="50.40773" lon="3.50593">
        <ele>21.286376953125</ele>
        <time>2010-03-07T08:48:50Z</time>
      </trkpt>
      <trkpt lat="50.40788" lon="3.50614">
        <ele>22.24755859375</ele>
        <time>2010-03-07T08:48:55Z</time>
      </trkpt>
      <trkpt lat="50.408" lon="3.50631">
        <ele>24.170288085938</ele>
        <time>2010-03-07T08:49:00Z</time>
      </trkpt>
      <trkpt lat="50.40814" lon="3.50645">
        <ele>24.651000976562</ele>
        <time>2010-03-07T08:49:05Z</time>
      </trkpt>
      <trkpt lat="50.40834" lon="3.50664">
        <ele>23.689575195312</ele>
        <time>2010-03-07T08:49:10Z</time>
      </trkpt>
      <trkpt lat="50.40844" lon="3.50674">
        <ele>21.766967773438</ele>
        <time>2010-03-07T08:49:12Z</time>
      </trkpt>
      <trkpt lat="50.40862" lon="3.50703">
        <ele>23.208984375</ele>
        <time>2010-03-07T08:49:17Z</time>
      </trkpt>
      <trkpt lat="50.40885" lon="3.50761">
        <ele>23.208984375</ele>
        <time>2010-03-07T08:49:26Z</time>
      </trkpt>
      <trkpt lat="50.40905" lon="3.50818">
        <ele>22.728271484375</ele>
        <time>2010-03-07T08:49:35Z</time>
      </trkpt>
      <trkpt lat="50.4092" lon="3.50865">
        <ele>22.728271484375</ele>
        <time>2010-03-07T08:49:42Z</time>
      </trkpt>
      <trkpt lat="50.40939" lon="3.50918">
        <ele>22.728271484375</ele>
        <time>2010-03-07T08:49:49Z</time>
      </trkpt>
      <trkpt lat="50.40958" lon="3.50971">
        <ele>24.170288085938</ele>
        <time>2010-03-07T08:49:56Z</time>
      </trkpt>
      <trkpt lat="50.40977" lon="3.51022">
        <ele>25.6123046875</ele>
        <time>2010-03-07T08:50:03Z</time>
      </trkpt>
      <trkpt lat="50.40981" lon="3.51036">
        <ele>25.6123046875</ele>
        <time>2010-03-07T08:50:05Z</time>
      </trkpt>
      <trkpt lat="50.41" lon="3.51086">
        <ele>24.651000976562</ele>
        <time>2010-03-07T08:50:12Z</time>
      </trkpt>
      <trkpt lat="50.41014" lon="3.51128">
        <ele>24.170288085938</ele>
        <time>2010-03-07T08:50:18Z</time>
      </trkpt>
      <trkpt lat="50.41029" lon="3.51174">
        <ele>25.131713867188</ele>
        <time>2010-03-07T08:50:24Z</time>
      </trkpt>
      <trkpt lat="50.41048" lon="3.51224">
        <ele>27.054321289062</ele>
        <time>2010-03-07T08:50:31Z</time>
      </trkpt>
      <trkpt lat="50.41064" lon="3.51269">
        <ele>26.092895507812</ele>
        <time>2010-03-07T08:50:37Z</time>
      </trkpt>
      <trkpt lat="50.41088" lon="3.51334">
        <ele>25.6123046875</ele>
        <time>2010-03-07T08:50:46Z</time>
      </trkpt>
      <trkpt lat="50.411" lon="3.51368">
        <ele>26.092895507812</ele>
        <time>2010-03-07T08:50:51Z</time>
      </trkpt>
      <trkpt lat="50.41113" lon="3.51412">
        <ele>29.45751953125</ele>
        <time>2010-03-07T08:50:58Z</time>
      </trkpt>
      <trkpt lat="50.41122" lon="3.51439">
        <ele>31.860717773438</ele>
        <time>2010-03-07T08:51:03Z</time>
      </trkpt>
      <trkpt lat="50.41133" lon="3.51474">
        <ele>36.66748046875</ele>
        <time>2010-03-07T08:51:09Z</time>
      </trkpt>
      <trkpt lat="50.41148" lon="3.51516">
        <ele>38.109375</ele>
        <time>2010-03-07T08:51:16Z</time>
      </trkpt>
      <trkpt lat="50.41162" lon="3.51549">
        <ele>36.66748046875</ele>
        <time>2010-03-07T08:51:22Z</time>
      </trkpt>
      <trkpt lat="50.41174" lon="3.51581">
        <ele>36.66748046875</ele>
        <time>2010-03-07T08:51:28Z</time>
      </trkpt>
      <trkpt lat="50.41185" lon="3.51612">
        <ele>35.225463867188</ele>
        <time>2010-03-07T08:51:34Z</time>
      </trkpt>
      <trkpt lat="50.41198" lon="3.51642">
        <ele>36.186767578125</ele>
        <time>2010-03-07T08:51:39Z</time>
      </trkpt>
      <trkpt lat="50.41203" lon="3.51681">
        <ele>38.109375</ele>
        <time>2010-03-07T08:51:44Z</time>
      </trkpt>
      <trkpt lat="50.41201" lon="3.51688">
        <ele>38.109375</ele>
        <time>2010-03-07T08:51:45Z</time>
      </trkpt>
      <trkpt lat="50.41174" lon="3.5176">
        <ele>38.590087890625</ele>
        <time>2010-03-07T08:51:55Z</time>
      </trkpt>
      <trkpt lat="50.41153" lon="3.51814">
        <ele>40.032104492188</ele>
        <time>2010-03-07T08:52:03Z</time>
      </trkpt>
      <trkpt lat="50.41126" lon="3.51882">
        <ele>39.55126953125</ele>
        <time>2010-03-07T08:52:13Z</time>
      </trkpt>
      <trkpt lat="50.41105" lon="3.51938">
        <ele>41.473999023438</ele>
        <time>2010-03-07T08:52:21Z</time>
      </trkpt>
      <trkpt lat="50.41084" lon="3.5199">
        <ele>43.396606445312</ele>
        <time>2010-03-07T08:52:28Z</time>
      </trkpt>
      <trkpt lat="50.41067" lon="3.52035">
        <ele>44.358032226562</ele>
        <time>2010-03-07T08:52:34Z</time>
      </trkpt>
      <trkpt lat="50.41045" lon="3.52091">
        <ele>44.838623046875</ele>
        <time>2010-03-07T08:52:41Z</time>
      </trkpt>
      <trkpt lat="50.41021" lon="3.52151">
        <ele>43.877319335938</ele>
        <time>2010-03-07T08:52:48Z</time>
      </trkpt>
      <trkpt lat="50.40992" lon="3.52226">
        <ele>43.877319335938</ele>
        <time>2010-03-07T08:52:56Z</time>
      </trkpt>
      <trkpt lat="50.40965" lon="3.52295">
        <ele>42.435424804688</ele>
        <time>2010-03-07T08:53:03Z</time>
      </trkpt>
      <trkpt lat="50.40938" lon="3.52362">
        <ele>41.473999023438</ele>
        <time>2010-03-07T08:53:10Z</time>
      </trkpt>
      <trkpt lat="50.40904" lon="3.52446">
        <ele>40.993408203125</ele>
        <time>2010-03-07T08:53:19Z</time>
      </trkpt>
      <trkpt lat="50.40871" lon="3.5253">
        <ele>40.512817382812</ele>
        <time>2010-03-07T08:53:28Z</time>
      </trkpt>
      <trkpt lat="50.40856" lon="3.52573">
        <ele>39.55126953125</ele>
        <time>2010-03-07T08:53:33Z</time>
      </trkpt>
      <trkpt lat="50.40844" lon="3.52577">
        <ele>40.032104492188</ele>
        <time>2010-03-07T08:53:37Z</time>
      </trkpt>
      <trkpt lat="50.40823" lon="3.52561">
        <ele>40.993408203125</ele>
        <time>2010-03-07T08:53:43Z</time>
      </trkpt>
      <trkpt lat="50.40816" lon="3.52557">
        <ele>40.993408203125</ele>
        <time>2010-03-07T08:53:45Z</time>
      </trkpt>
      <trkpt lat="50.40809" lon="3.5255">
        <ele>40.993408203125</ele>
        <time>2010-03-07T08:53:47Z</time>
      </trkpt>
      <trkpt lat="50.40798" lon="3.5254">
        <ele>40.993408203125</ele>
        <time>2010-03-07T08:53:50Z</time>
      </trkpt>
      <trkpt lat="50.40784" lon="3.52511">
        <ele>40.993408203125</ele>
        <time>2010-03-07T08:53:56Z</time>
      </trkpt>
      <trkpt lat="50.4077" lon="3.52495">
        <ele>38.590087890625</ele>
        <time>2010-03-07T08:54:01Z</time>
      </trkpt>
      <trkpt lat="50.40763" lon="3.52466">
        <ele>36.66748046875</ele>
        <time>2010-03-07T08:54:07Z</time>
      </trkpt>
      <trkpt lat="50.40757" lon="3.52442">
        <ele>36.66748046875</ele>
        <time>2010-03-07T08:54:12Z</time>
      </trkpt>
      <trkpt lat="50.40756" lon="3.52439">
        <ele>36.186767578125</ele>
        <time>2010-03-07T08:54:14Z</time>
      </trkpt>
      <trkpt lat="50.40747" lon="3.52441">
        <ele>36.186767578125</ele>
        <time>2010-03-07T08:54:20Z</time>
      </trkpt>
      <trkpt lat="50.40739" lon="3.52454">
        <ele>36.66748046875</ele>
        <time>2010-03-07T08:54:26Z</time>
      </trkpt>
      <trkpt lat="50.40735" lon="3.5246">
        <ele>37.148071289062</ele>
        <time>2010-03-07T08:54:29Z</time>
      </trkpt>
      <trkpt lat="50.40725" lon="3.52469">
        <ele>38.109375</ele>
        <time>2010-03-07T08:54:35Z</time>
      </trkpt>
      <trkpt lat="50.40712" lon="3.52486">
        <ele>40.993408203125</ele>
        <time>2010-03-07T08:54:41Z</time>
      </trkpt>
      <trkpt lat="50.40697" lon="3.52504">
        <ele>43.877319335938</ele>
        <time>2010-03-07T08:54:47Z</time>
      </trkpt>
      <trkpt lat="50.40683" lon="3.52522">
        <ele>45.319213867188</ele>
        <time>2010-03-07T08:54:52Z</time>
      </trkpt>
      <trkpt lat="50.40681" lon="3.52525">
        <ele>46.280639648438</ele>
        <time>2010-03-07T08:54:53Z</time>
      </trkpt>
      <trkpt lat="50.4068" lon="3.52539">
        <ele>47.241821289062</ele>
        <time>2010-03-07T08:54:57Z</time>
      </trkpt>
      <trkpt lat="50.40689" lon="3.52555">
        <ele>44.838623046875</ele>
        <time>2010-03-07T08:55:01Z</time>
      </trkpt>
      <trkpt lat="50.40691" lon="3.52562">
        <ele>44.358032226562</ele>
        <time>2010-03-07T08:55:02Z</time>
      </trkpt>
      <trkpt lat="50.40695" lon="3.52588">
        <ele>43.396606445312</ele>
        <time>2010-03-07T08:55:06Z</time>
      </trkpt>
      <trkpt lat="50.40689" lon="3.52616">
        <ele>42.435424804688</ele>
        <time>2010-03-07T08:55:10Z</time>
      </trkpt>
      <trkpt lat="50.40686" lon="3.52621">
        <ele>41.954711914062</ele>
        <time>2010-03-07T08:55:11Z</time>
      </trkpt>
      <trkpt lat="50.40669" lon="3.52638">
        <ele>41.473999023438</ele>
        <time>2010-03-07T08:55:15Z</time>
      </trkpt>
      <trkpt lat="50.40647" lon="3.52667">
        <ele>40.032104492188</ele>
        <time>2010-03-07T08:55:19Z</time>
      </trkpt>
      <trkpt lat="50.40633" lon="3.52715">
        <ele>36.66748046875</ele>
        <time>2010-03-07T08:55:23Z</time>
      </trkpt>
      <trkpt lat="50.40636" lon="3.52743">
        <ele>35.7060546875</ele>
        <time>2010-03-07T08:55:26Z</time>
      </trkpt>
      <trkpt lat="50.40642" lon="3.5277">
        <ele>33.783447265625</ele>
        <time>2010-03-07T08:55:30Z</time>
      </trkpt>
      <trkpt lat="50.40658" lon="3.52789">
        <ele>33.783447265625</ele>
        <time>2010-03-07T08:55:33Z</time>
      </trkpt>
      <trkpt lat="50.4067" lon="3.52799">
        <ele>34.26416015625</ele>
        <time>2010-03-07T08:55:35Z</time>
      </trkpt>
      <trkpt lat="50.40701" lon="3.52833">
        <ele>35.225463867188</ele>
        <time>2010-03-07T08:55:41Z</time>
      </trkpt>
      <trkpt lat="50.40711" lon="3.52848">
        <ele>36.186767578125</ele>
        <time>2010-03-07T08:55:44Z</time>
      </trkpt>
      <trkpt lat="50.40728" lon="3.52875">
        <ele>38.109375</ele>
        <time>2010-03-07T08:55:50Z</time>
      </trkpt>
      <trkpt lat="50.40727" lon="3.52897">
        <ele>40.032104492188</ele>
        <time>2010-03-07T08:55:54Z</time>
      </trkpt>
      <trkpt lat="50.40712" lon="3.52942">
        <ele>42.435424804688</ele>
        <time>2010-03-07T08:56:01Z</time>
      </trkpt>
      <trkpt lat="50.40693" lon="3.52991">
        <ele>45.319213867188</ele>
        <time>2010-03-07T08:56:08Z</time>
      </trkpt>
      <trkpt lat="50.40669" lon="3.53053">
        <ele>47.241821289062</ele>
        <time>2010-03-07T08:56:16Z</time>
      </trkpt>
      <trkpt lat="50.40643" lon="3.53118">
        <ele>48.683959960938</ele>
        <time>2010-03-07T08:56:24Z</time>
      </trkpt>
      <trkpt lat="50.40637" lon="3.53134">
        <ele>48.683959960938</ele>
        <time>2010-03-07T08:56:26Z</time>
      </trkpt>
      <trkpt lat="50.40638" lon="3.53163">
        <ele>45.799926757812</ele>
        <time>2010-03-07T08:56:30Z</time>
      </trkpt>
      <trkpt lat="50.40646" lon="3.53173">
        <ele>45.319213867188</ele>
        <time>2010-03-07T08:56:32Z</time>
      </trkpt>
      <trkpt lat="50.40666" lon="3.53231">
        <ele>40.512817382812</ele>
        <time>2010-03-07T08:56:38Z</time>
      </trkpt>
      <trkpt lat="50.40668" lon="3.53242">
        <ele>40.032104492188</ele>
        <time>2010-03-07T08:56:39Z</time>
      </trkpt>
      <trkpt lat="50.40668" lon="3.53305">
        <ele>37.628662109375</ele>
        <time>2010-03-07T08:56:45Z</time>
      </trkpt>
      <trkpt lat="50.40668" lon="3.53315">
        <ele>37.628662109375</ele>
        <time>2010-03-07T08:56:46Z</time>
      </trkpt>
      <trkpt lat="50.40668" lon="3.53368">
        <ele>34.744873046875</ele>
        <time>2010-03-07T08:56:51Z</time>
      </trkpt>
      <trkpt lat="50.40673" lon="3.53433">
        <ele>31.860717773438</ele>
        <time>2010-03-07T08:56:58Z</time>
      </trkpt>
      <trkpt lat="50.40675" lon="3.53452">
        <ele>31.380126953125</ele>
        <time>2010-03-07T08:57:00Z</time>
      </trkpt>
      <trkpt lat="50.4067" lon="3.53528">
        <ele>30.418823242188</ele>
        <time>2010-03-07T08:57:07Z</time>
      </trkpt>
      <trkpt lat="50.40682" lon="3.53568">
        <ele>31.380126953125</ele>
        <time>2010-03-07T08:57:11Z</time>
      </trkpt>
      <trkpt lat="50.40705" lon="3.53603">
        <ele>32.822265625</ele>
        <time>2010-03-07T08:57:16Z</time>
      </trkpt>
      <trkpt lat="50.4073" lon="3.5363">
        <ele>34.26416015625</ele>
        <time>2010-03-07T08:57:21Z</time>
      </trkpt>
      <trkpt lat="50.40751" lon="3.53655">
        <ele>34.744873046875</ele>
        <time>2010-03-07T08:57:25Z</time>
      </trkpt>
      <trkpt lat="50.40773" lon="3.5368">
        <ele>36.66748046875</ele>
        <time>2010-03-07T08:57:29Z</time>
      </trkpt>
      <trkpt lat="50.40811" lon="3.53721">
        <ele>38.109375</ele>
        <time>2010-03-07T08:57:36Z</time>
      </trkpt>
      <trkpt lat="50.40815" lon="3.53726">
        <ele>37.148071289062</ele>
        <time>2010-03-07T08:57:37Z</time>
      </trkpt>
      <trkpt lat="50.40827" lon="3.53746">
        <ele>36.66748046875</ele>
        <time>2010-03-07T08:57:40Z</time>
      </trkpt>
      <trkpt lat="50.40845" lon="3.53748">
        <ele>36.186767578125</ele>
        <time>2010-03-07T08:57:44Z</time>
      </trkpt>
      <trkpt lat="50.4088" lon="3.53718">
        <ele>34.744873046875</ele>
        <time>2010-03-07T08:57:50Z</time>
      </trkpt>
      <trkpt lat="50.40917" lon="3.53689">
        <ele>34.744873046875</ele>
        <time>2010-03-07T08:57:56Z</time>
      </trkpt>
      <trkpt lat="50.40954" lon="3.53661">
        <ele>34.26416015625</ele>
        <time>2010-03-07T08:58:02Z</time>
      </trkpt>
      <trkpt lat="50.40996" lon="3.53627">
        <ele>33.783447265625</ele>
        <time>2010-03-07T08:58:09Z</time>
      </trkpt>
      <trkpt lat="50.41027" lon="3.53599">
        <ele>35.7060546875</ele>
        <time>2010-03-07T08:58:14Z</time>
      </trkpt>
      <trkpt lat="50.4105" lon="3.53569">
        <ele>34.744873046875</ele>
        <time>2010-03-07T08:58:18Z</time>
      </trkpt>
      <trkpt lat="50.41072" lon="3.53512">
        <ele>35.7060546875</ele>
        <time>2010-03-07T08:58:24Z</time>
      </trkpt>
      <trkpt lat="50.41093" lon="3.53455">
        <ele>36.186767578125</ele>
        <time>2010-03-07T08:58:30Z</time>
      </trkpt>
      <trkpt lat="50.41117" lon="3.53392">
        <ele>36.186767578125</ele>
        <time>2010-03-07T08:58:37Z</time>
      </trkpt>
      <trkpt lat="50.41145" lon="3.53307">
        <ele>35.7060546875</ele>
        <time>2010-03-07T08:58:46Z</time>
      </trkpt>
      <trkpt lat="50.41158" lon="3.53272">
        <ele>35.7060546875</ele>
        <time>2010-03-07T08:58:50Z</time>
      </trkpt>
      <trkpt lat="50.41183" lon="3.5319">
        <ele>35.225463867188</ele>
        <time>2010-03-07T08:58:59Z</time>
      </trkpt>
      <trkpt lat="50.41195" lon="3.53133">
        <ele>34.744873046875</ele>
        <time>2010-03-07T08:59:05Z</time>
      </trkpt>
      <trkpt lat="50.41202" lon="3.53064">
        <ele>35.225463867188</ele>
        <time>2010-03-07T08:59:12Z</time>
      </trkpt>
      <trkpt lat="50.41208" lon="3.53006">
        <ele>36.186767578125</ele>
        <time>2010-03-07T08:59:18Z</time>
      </trkpt>
      <trkpt lat="50.41216" lon="3.52943">
        <ele>38.590087890625</ele>
        <time>2010-03-07T08:59:25Z</time>
      </trkpt>
      <trkpt lat="50.41222" lon="3.52878">
        <ele>38.590087890625</ele>
        <time>2010-03-07T08:59:32Z</time>
      </trkpt>
      <trkpt lat="50.41224" lon="3.5285">
        <ele>38.590087890625</ele>
        <time>2010-03-07T08:59:35Z</time>
      </trkpt>
      <trkpt lat="50.4122" lon="3.52784">
        <ele>38.590087890625</ele>
        <time>2010-03-07T08:59:42Z</time>
      </trkpt>
      <trkpt lat="50.41225" lon="3.52747">
        <ele>40.512817382812</ele>
        <time>2010-03-07T08:59:47Z</time>
      </trkpt>
      <trkpt lat="50.4123" lon="3.52735">
        <ele>40.512817382812</ele>
        <time>2010-03-07T08:59:49Z</time>
      </trkpt>
      <trkpt lat="50.41235" lon="3.52714">
        <ele>40.512817382812</ele>
        <time>2010-03-07T08:59:54Z</time>
      </trkpt>
      <trkpt lat="50.41235" lon="3.52713">
        <ele>40.512817382812</ele>
        <time>2010-03-07T08:59:55Z</time>
      </trkpt>
      <trkpt lat="50.41241" lon="3.52693">
        <ele>38.590087890625</ele>
        <time>2010-03-07T09:00:01Z</time>
      </trkpt>
      <trkpt lat="50.41249" lon="3.52671">
        <ele>40.032104492188</ele>
        <time>2010-03-07T09:00:06Z</time>
      </trkpt>
      <trkpt lat="50.41254" lon="3.52661">
        <ele>41.473999023438</ele>
        <time>2010-03-07T09:00:10Z</time>
      </trkpt>
      <trkpt lat="50.41265" lon="3.52656">
        <ele>42.916015625</ele>
        <time>2010-03-07T09:00:17Z</time>
      </trkpt>
      <trkpt lat="50.41273" lon="3.52651">
        <ele>44.838623046875</ele>
        <time>2010-03-07T09:00:23Z</time>
      </trkpt>
      <trkpt lat="50.41286" lon="3.52653">
        <ele>45.319213867188</ele>
        <time>2010-03-07T09:00:30Z</time>
      </trkpt>
      <trkpt lat="50.41293" lon="3.52653">
        <ele>46.280639648438</ele>
        <time>2010-03-07T09:00:35Z</time>
      </trkpt>
      <trkpt lat="50.41309" lon="3.52652">
        <ele>47.722534179688</ele>
        <time>2010-03-07T09:00:43Z</time>
      </trkpt>
      <trkpt lat="50.41321" lon="3.52647">
        <ele>49.16455078125</ele>
        <time>2010-03-07T09:00:49Z</time>
      </trkpt>
      <trkpt lat="50.41336" lon="3.52634">
        <ele>53.009765625</ele>
        <time>2010-03-07T09:00:58Z</time>
      </trkpt>
      <trkpt lat="50.41346" lon="3.52625">
        <ele>54.451782226562</ele>
        <time>2010-03-07T09:01:04Z</time>
      </trkpt>
      <trkpt lat="50.41354" lon="3.52616">
        <ele>55.4130859375</ele>
        <time>2010-03-07T09:01:10Z</time>
      </trkpt>
      <trkpt lat="50.4136" lon="3.52604">
        <ele>55.893798828125</ele>
        <time>2010-03-07T09:01:17Z</time>
      </trkpt>
      <trkpt lat="50.41368" lon="3.52601">
        <ele>54.932373046875</ele>
        <time>2010-03-07T09:01:23Z</time>
      </trkpt>
      <trkpt lat="50.41376" lon="3.52594">
        <ele>54.451782226562</ele>
        <time>2010-03-07T09:01:30Z</time>
      </trkpt>
      <trkpt lat="50.41377" lon="3.52584">
        <ele>59.739135742188</ele>
        <time>2010-03-07T09:01:36Z</time>
      </trkpt>
      <trkpt lat="50.41378" lon="3.52579">
        <ele>61.181030273438</ele>
        <time>2010-03-07T09:01:39Z</time>
      </trkpt>
      <trkpt lat="50.4138" lon="3.52575">
        <ele>61.661743164062</ele>
        <time>2010-03-07T09:01:41Z</time>
      </trkpt>
      <trkpt lat="50.41381" lon="3.52571">
        <ele>63.584350585938</ele>
        <time>2010-03-07T09:01:44Z</time>
      </trkpt>
      <trkpt lat="50.4138" lon="3.52568">
        <ele>65.507080078125</ele>
        <time>2010-03-07T09:01:50Z</time>
      </trkpt>
      <trkpt lat="50.41379" lon="3.52566">
        <ele>67.4296875</ele>
        <time>2010-03-07T09:01:53Z</time>
      </trkpt>
      <trkpt lat="50.41379" lon="3.52565">
        <ele>67.910278320312</ele>
        <time>2010-03-07T09:01:56Z</time>
      </trkpt>
      <trkpt lat="50.41378" lon="3.52561">
        <ele>68.87158203125</ele>
        <time>2010-03-07T09:01:57Z</time>
      </trkpt>
      <trkpt lat="50.41381" lon="3.52551">
        <ele>69.832885742188</ele>
        <time>2010-03-07T09:02:05Z</time>
      </trkpt>
      <trkpt lat="50.41382" lon="3.52542">
        <ele>71.755493164062</ele>
        <time>2010-03-07T09:02:12Z</time>
      </trkpt>
      <trkpt lat="50.4138" lon="3.52533">
        <ele>74.158813476562</ele>
        <time>2010-03-07T09:02:21Z</time>
      </trkpt>
      <trkpt lat="50.41379" lon="3.52524">
        <ele>77.042846679688</ele>
        <time>2010-03-07T09:02:29Z</time>
      </trkpt>
      <trkpt lat="50.4138" lon="3.52522">
        <ele>78.004028320312</ele>
        <time>2010-03-07T09:02:36Z</time>
      </trkpt>
      <trkpt lat="50.41386" lon="3.52507">
        <ele>77.5234375</ele>
        <time>2010-03-07T09:02:41Z</time>
      </trkpt>
      <trkpt lat="50.41393" lon="3.52494">
        <ele>74.639526367188</ele>
        <time>2010-03-07T09:02:44Z</time>
      </trkpt>
      <trkpt lat="50.41397" lon="3.52488">
        <ele>74.158813476562</ele>
        <time>2010-03-07T09:02:45Z</time>
      </trkpt>
      <trkpt lat="50.41414" lon="3.52453">
        <ele>74.639526367188</ele>
        <time>2010-03-07T09:02:52Z</time>
      </trkpt>
      <trkpt lat="50.41423" lon="3.52423">
        <ele>74.158813476562</ele>
        <time>2010-03-07T09:03:00Z</time>
      </trkpt>
      <trkpt lat="50.41431" lon="3.52404">
        <ele>75.120239257812</ele>
        <time>2010-03-07T09:03:07Z</time>
      </trkpt>
      <trkpt lat="50.41439" lon="3.5238">
        <ele>78.484741210938</ele>
        <time>2010-03-07T09:03:16Z</time>
      </trkpt>
      <trkpt lat="50.41443" lon="3.52357">
        <ele>83.291381835938</ele>
        <time>2010-03-07T09:03:25Z</time>
      </trkpt>
      <trkpt lat="50.41438" lon="3.52341">
        <ele>85.694580078125</ele>
        <time>2010-03-07T09:03:32Z</time>
      </trkpt>
      <trkpt lat="50.4143" lon="3.52339">
        <ele>87.136596679688</ele>
        <time>2010-03-07T09:03:37Z</time>
      </trkpt>
      <trkpt lat="50.41426" lon="3.5233">
        <ele>88.098022460938</ele>
        <time>2010-03-07T09:03:44Z</time>
      </trkpt>
      <trkpt lat="50.41423" lon="3.52314">
        <ele>87.6171875</ele>
        <time>2010-03-07T09:03:53Z</time>
      </trkpt>
      <trkpt lat="50.41419" lon="3.52316">
        <ele>87.6171875</ele>
        <time>2010-03-07T09:03:57Z</time>
      </trkpt>
      <trkpt lat="50.41419" lon="3.52319">
        <ele>87.136596679688</ele>
        <time>2010-03-07T09:03:58Z</time>
      </trkpt>
      <trkpt lat="50.41423" lon="3.52331">
        <ele>86.656005859375</ele>
        <time>2010-03-07T09:04:05Z</time>
      </trkpt>
      <trkpt lat="50.41424" lon="3.52338">
        <ele>86.656005859375</ele>
        <time>2010-03-07T09:04:07Z</time>
      </trkpt>
      <trkpt lat="50.41416" lon="3.52347">
        <ele>87.136596679688</ele>
        <time>2010-03-07T09:04:11Z</time>
      </trkpt>
      <trkpt lat="50.41407" lon="3.52348">
        <ele>87.136596679688</ele>
        <time>2010-03-07T09:04:14Z</time>
      </trkpt>
      <trkpt lat="50.41399" lon="3.52356">
        <ele>87.136596679688</ele>
        <time>2010-03-07T09:04:18Z</time>
      </trkpt>
      <trkpt lat="50.4139" lon="3.52366">
        <ele>86.17529296875</ele>
        <time>2010-03-07T09:04:22Z</time>
      </trkpt>
      <trkpt lat="50.41381" lon="3.52368">
        <ele>86.656005859375</ele>
        <time>2010-03-07T09:04:26Z</time>
      </trkpt>
      <trkpt lat="50.41375" lon="3.52369">
        <ele>87.136596679688</ele>
        <time>2010-03-07T09:04:28Z</time>
      </trkpt>
      <trkpt lat="50.41355" lon="3.52374">
        <ele>86.656005859375</ele>
        <time>2010-03-07T09:04:33Z</time>
      </trkpt>
      <trkpt lat="50.41345" lon="3.52357">
        <ele>84.7333984375</ele>
        <time>2010-03-07T09:04:37Z</time>
      </trkpt>
      <trkpt lat="50.41343" lon="3.52351">
        <ele>84.7333984375</ele>
        <time>2010-03-07T09:04:38Z</time>
      </trkpt>
      <trkpt lat="50.41334" lon="3.52328">
        <ele>85.213989257812</ele>
        <time>2010-03-07T09:04:42Z</time>
      </trkpt>
      <trkpt lat="50.4133" lon="3.52296">
        <ele>85.213989257812</ele>
        <time>2010-03-07T09:04:47Z</time>
      </trkpt>
      <trkpt lat="50.41318" lon="3.52275">
        <ele>85.694580078125</ele>
        <time>2010-03-07T09:04:51Z</time>
      </trkpt>
      <trkpt lat="50.41304" lon="3.5225">
        <ele>87.6171875</ele>
        <time>2010-03-07T09:04:56Z</time>
      </trkpt>
      <trkpt lat="50.41301" lon="3.52237">
        <ele>87.6171875</ele>
        <time>2010-03-07T09:04:58Z</time>
      </trkpt>
      <trkpt lat="50.41298" lon="3.52223">
        <ele>87.6171875</ele>
        <time>2010-03-07T09:05:00Z</time>
      </trkpt>
      <trkpt lat="50.41287" lon="3.52196">
        <ele>87.6171875</ele>
        <time>2010-03-07T09:05:04Z</time>
      </trkpt>
      <trkpt lat="50.41275" lon="3.52164">
        <ele>88.578735351562</ele>
        <time>2010-03-07T09:05:09Z</time>
      </trkpt>
      <trkpt lat="50.41259" lon="3.52147">
        <ele>90.020629882812</ele>
        <time>2010-03-07T09:05:13Z</time>
      </trkpt>
      <trkpt lat="50.4124" lon="3.52139">
        <ele>91.462524414062</ele>
        <time>2010-03-07T09:05:17Z</time>
      </trkpt>
      <trkpt lat="50.41228" lon="3.5212">
        <ele>92.423950195312</ele>
        <time>2010-03-07T09:05:21Z</time>
      </trkpt>
      <trkpt lat="50.41222" lon="3.52097">
        <ele>91.943237304688</ele>
        <time>2010-03-07T09:05:25Z</time>
      </trkpt>
      <trkpt lat="50.4122" lon="3.52075">
        <ele>91.462524414062</ele>
        <time>2010-03-07T09:05:28Z</time>
      </trkpt>
      <trkpt lat="50.4123" lon="3.52059">
        <ele>91.462524414062</ele>
        <time>2010-03-07T09:05:31Z</time>
      </trkpt>
      <trkpt lat="50.41237" lon="3.52053">
        <ele>91.462524414062</ele>
        <time>2010-03-07T09:05:33Z</time>
      </trkpt>
      <trkpt lat="50.41255" lon="3.52024">
        <ele>92.904541015625</ele>
        <time>2010-03-07T09:05:40Z</time>
      </trkpt>
      <trkpt lat="50.41256" lon="3.52019">
        <ele>92.904541015625</ele>
        <time>2010-03-07T09:05:41Z</time>
      </trkpt>
      <trkpt lat="50.41252" lon="3.51999">
        <ele>92.904541015625</ele>
        <time>2010-03-07T09:05:45Z</time>
      </trkpt>
      <trkpt lat="50.41252" lon="3.51982">
        <ele>92.423950195312</ele>
        <time>2010-03-07T09:05:48Z</time>
      </trkpt>
      <trkpt lat="50.41259" lon="3.51956">
        <ele>90.98193359375</ele>
        <time>2010-03-07T09:05:52Z</time>
      </trkpt>
      <trkpt lat="50.41271" lon="3.51925">
        <ele>90.501342773438</ele>
        <time>2010-03-07T09:05:58Z</time>
      </trkpt>
      <trkpt lat="50.41279" lon="3.51906">
        <ele>90.98193359375</ele>
        <time>2010-03-07T09:06:02Z</time>
      </trkpt>
      <trkpt lat="50.41273" lon="3.51892">
        <ele>91.462524414062</ele>
        <time>2010-03-07T09:06:05Z</time>
      </trkpt>
      <trkpt lat="50.41271" lon="3.51883">
        <ele>91.462524414062</ele>
        <time>2010-03-07T09:06:07Z</time>
      </trkpt>
      <trkpt lat="50.41272" lon="3.51847">
        <ele>90.020629882812</ele>
        <time>2010-03-07T09:06:12Z</time>
      </trkpt>
      <trkpt lat="50.41276" lon="3.51837">
        <ele>89.539916992188</ele>
        <time>2010-03-07T09:06:14Z</time>
      </trkpt>
      <trkpt lat="50.41285" lon="3.51838">
        <ele>89.539916992188</ele>
        <time>2010-03-07T09:06:18Z</time>
      </trkpt>
      <trkpt lat="50.41286" lon="3.51841">
        <ele>89.059326171875</ele>
        <time>2010-03-07T09:06:19Z</time>
      </trkpt>
      <trkpt lat="50.41302" lon="3.51857">
        <ele>90.98193359375</ele>
        <time>2010-03-07T09:06:24Z</time>
      </trkpt>
      <trkpt lat="50.41316" lon="3.5184">
        <ele>91.943237304688</ele>
        <time>2010-03-07T09:06:29Z</time>
      </trkpt>
      <trkpt lat="50.41317" lon="3.51834">
        <ele>92.423950195312</ele>
        <time>2010-03-07T09:06:30Z</time>
      </trkpt>
      <trkpt lat="50.41319" lon="3.5181">
        <ele>92.423950195312</ele>
        <time>2010-03-07T09:06:34Z</time>
      </trkpt>
      <trkpt lat="50.41324" lon="3.51786">
        <ele>93.385131835938</ele>
        <time>2010-03-07T09:06:38Z</time>
      </trkpt>
      <trkpt lat="50.41327" lon="3.51774">
        <ele>92.904541015625</ele>
        <time>2010-03-07T09:06:40Z</time>
      </trkpt>
      <trkpt lat="50.41335" lon="3.5176">
        <ele>92.904541015625</ele>
        <time>2010-03-07T09:06:43Z</time>
      </trkpt>
      <trkpt lat="50.41348" lon="3.51734">
        <ele>92.423950195312</ele>
        <time>2010-03-07T09:06:47Z</time>
      </trkpt>
      <trkpt lat="50.41367" lon="3.51703">
        <ele>92.423950195312</ele>
        <time>2010-03-07T09:06:52Z</time>
      </trkpt>
      <trkpt lat="50.41385" lon="3.51669">
        <ele>91.462524414062</ele>
        <time>2010-03-07T09:06:57Z</time>
      </trkpt>
      <trkpt lat="50.41411" lon="3.51631">
        <ele>89.059326171875</ele>
        <time>2010-03-07T09:07:03Z</time>
      </trkpt>
      <trkpt lat="50.41418" lon="3.51637">
        <ele>88.578735351562</ele>
        <time>2010-03-07T09:07:05Z</time>
      </trkpt>
      <trkpt lat="50.41435" lon="3.51653">
        <ele>89.539916992188</ele>
        <time>2010-03-07T09:07:09Z</time>
      </trkpt>
      <trkpt lat="50.41452" lon="3.51648">
        <ele>89.059326171875</ele>
        <time>2010-03-07T09:07:13Z</time>
      </trkpt>
      <trkpt lat="50.41466" lon="3.51639">
        <ele>88.098022460938</ele>
        <time>2010-03-07T09:07:16Z</time>
      </trkpt>
      <trkpt lat="50.41483" lon="3.51641">
        <ele>87.136596679688</ele>
        <time>2010-03-07T09:07:19Z</time>
      </trkpt>
      <trkpt lat="50.41492" lon="3.51653">
        <ele>86.17529296875</ele>
        <time>2010-03-07T09:07:21Z</time>
      </trkpt>
      <trkpt lat="50.41496" lon="3.51679">
        <ele>85.694580078125</ele>
        <time>2010-03-07T09:07:24Z</time>
      </trkpt>
      <trkpt lat="50.41498" lon="3.51687">
        <ele>85.694580078125</ele>
        <time>2010-03-07T09:07:25Z</time>
      </trkpt>
      <trkpt lat="50.41504" lon="3.51721">
        <ele>86.17529296875</ele>
        <time>2010-03-07T09:07:30Z</time>
      </trkpt>
      <trkpt lat="50.41502" lon="3.51739">
        <ele>85.213989257812</ele>
        <time>2010-03-07T09:07:32Z</time>
      </trkpt>
      <trkpt lat="50.41496" lon="3.51767">
        <ele>84.7333984375</ele>
        <time>2010-03-07T09:07:35Z</time>
      </trkpt>
      <trkpt lat="50.41479" lon="3.51779">
        <ele>85.694580078125</ele>
        <time>2010-03-07T09:07:40Z</time>
      </trkpt>
      <trkpt lat="50.41472" lon="3.51779">
        <ele>86.656005859375</ele>
        <time>2010-03-07T09:07:42Z</time>
      </trkpt>
      <trkpt lat="50.41455" lon="3.51786">
        <ele>88.578735351562</ele>
        <time>2010-03-07T09:07:47Z</time>
      </trkpt>
      <trkpt lat="50.41444" lon="3.51815">
        <ele>88.098022460938</ele>
        <time>2010-03-07T09:07:52Z</time>
      </trkpt>
      <trkpt lat="50.41442" lon="3.51829">
        <ele>88.098022460938</ele>
        <time>2010-03-07T09:07:54Z</time>
      </trkpt>
      <trkpt lat="50.41446" lon="3.51875">
        <ele>88.098022460938</ele>
        <time>2010-03-07T09:08:01Z</time>
      </trkpt>
      <trkpt lat="50.41449" lon="3.51888">
        <ele>87.136596679688</ele>
        <time>2010-03-07T09:08:03Z</time>
      </trkpt>
      <trkpt lat="50.41447" lon="3.51916">
        <ele>86.656005859375</ele>
        <time>2010-03-07T09:08:07Z</time>
      </trkpt>
      <trkpt lat="50.41442" lon="3.51924">
        <ele>86.656005859375</ele>
        <time>2010-03-07T09:08:10Z</time>
      </trkpt>
      <trkpt lat="50.41441" lon="3.51935">
        <ele>86.656005859375</ele>
        <time>2010-03-07T09:08:12Z</time>
      </trkpt>
      <trkpt lat="50.4144" lon="3.51948">
        <ele>86.656005859375</ele>
        <time>2010-03-07T09:08:14Z</time>
      </trkpt>
      <trkpt lat="50.41431" lon="3.51955">
        <ele>86.656005859375</ele>
        <time>2010-03-07T09:08:17Z</time>
      </trkpt>
      <trkpt lat="50.41426" lon="3.5194">
        <ele>87.6171875</ele>
        <time>2010-03-07T09:08:20Z</time>
      </trkpt>
      <trkpt lat="50.41424" lon="3.51936">
        <ele>87.6171875</ele>
        <time>2010-03-07T09:08:21Z</time>
      </trkpt>
      <trkpt lat="50.41413" lon="3.51915">
        <ele>88.098022460938</ele>
        <time>2010-03-07T09:08:26Z</time>
      </trkpt>
      <trkpt lat="50.41403" lon="3.51921">
        <ele>88.578735351562</ele>
        <time>2010-03-07T09:08:30Z</time>
      </trkpt>
      <trkpt lat="50.41402" lon="3.51927">
        <ele>88.578735351562</ele>
        <time>2010-03-07T09:08:31Z</time>
      </trkpt>
      <trkpt lat="50.41397" lon="3.51954">
        <ele>90.501342773438</ele>
        <time>2010-03-07T09:08:37Z</time>
      </trkpt>
      <trkpt lat="50.41389" lon="3.51962">
        <ele>89.539916992188</ele>
        <time>2010-03-07T09:08:40Z</time>
      </trkpt>
      <trkpt lat="50.41381" lon="3.51981">
        <ele>89.539916992188</ele>
        <time>2010-03-07T09:08:44Z</time>
      </trkpt>
      <trkpt lat="50.41384" lon="3.51984">
        <ele>89.539916992188</ele>
        <time>2010-03-07T09:08:45Z</time>
      </trkpt>
      <trkpt lat="50.41402" lon="3.52024">
        <ele>88.578735351562</ele>
        <time>2010-03-07T09:08:53Z</time>
      </trkpt>
      <trkpt lat="50.41404" lon="3.52033">
        <ele>88.098022460938</ele>
        <time>2010-03-07T09:08:55Z</time>
      </trkpt>
      <trkpt lat="50.41413" lon="3.52054">
        <ele>86.656005859375</ele>
        <time>2010-03-07T09:09:00Z</time>
      </trkpt>
      <trkpt lat="50.41418" lon="3.52075">
        <ele>86.656005859375</ele>
        <time>2010-03-07T09:09:04Z</time>
      </trkpt>
      <trkpt lat="50.41414" lon="3.52085">
        <ele>86.17529296875</ele>
        <time>2010-03-07T09:09:06Z</time>
      </trkpt>
      <trkpt lat="50.414" lon="3.5212">
        <ele>85.694580078125</ele>
        <time>2010-03-07T09:09:12Z</time>
      </trkpt>
      <trkpt lat="50.41398" lon="3.52126">
        <ele>85.694580078125</ele>
        <time>2010-03-07T09:09:13Z</time>
      </trkpt>
      <trkpt lat="50.41393" lon="3.52155">
        <ele>86.656005859375</ele>
        <time>2010-03-07T09:09:18Z</time>
      </trkpt>
      <trkpt lat="50.41394" lon="3.5218">
        <ele>87.136596679688</ele>
        <time>2010-03-07T09:09:22Z</time>
      </trkpt>
      <trkpt lat="50.41392" lon="3.52211">
        <ele>87.136596679688</ele>
        <time>2010-03-07T09:09:26Z</time>
      </trkpt>
      <trkpt lat="50.41399" lon="3.52223">
        <ele>86.17529296875</ele>
        <time>2010-03-07T09:09:28Z</time>
      </trkpt>
      <trkpt lat="50.41412" lon="3.5222">
        <ele>84.252685546875</ele>
        <time>2010-03-07T09:09:31Z</time>
      </trkpt>
      <trkpt lat="50.4143" lon="3.52209">
        <ele>81.849365234375</ele>
        <time>2010-03-07T09:09:35Z</time>
      </trkpt>
      <trkpt lat="50.41444" lon="3.52222">
        <ele>76.562133789062</ele>
        <time>2010-03-07T09:09:39Z</time>
      </trkpt>
      <trkpt lat="50.41455" lon="3.52243">
        <ele>71.27490234375</ele>
        <time>2010-03-07T09:09:43Z</time>
      </trkpt>
      <trkpt lat="50.41468" lon="3.52285">
        <ele>64.545654296875</ele>
        <time>2010-03-07T09:09:48Z</time>
      </trkpt>
      <trkpt lat="50.41475" lon="3.52317">
        <ele>58.777709960938</ele>
        <time>2010-03-07T09:09:52Z</time>
      </trkpt>
      <trkpt lat="50.41476" lon="3.5235">
        <ele>53.490478515625</ele>
        <time>2010-03-07T09:09:55Z</time>
      </trkpt>
      <trkpt lat="50.41473" lon="3.52388">
        <ele>49.645263671875</ele>
        <time>2010-03-07T09:09:58Z</time>
      </trkpt>
      <trkpt lat="50.41459" lon="3.52419">
        <ele>46.76123046875</ele>
        <time>2010-03-07T09:10:01Z</time>
      </trkpt>
      <trkpt lat="50.41435" lon="3.52483">
        <ele>43.877319335938</ele>
        <time>2010-03-07T09:10:08Z</time>
      </trkpt>
      <trkpt lat="50.4142" lon="3.52524">
        <ele>41.473999023438</ele>
        <time>2010-03-07T09:10:12Z</time>
      </trkpt>
      <trkpt lat="50.41414" lon="3.52566">
        <ele>38.590087890625</ele>
        <time>2010-03-07T09:10:16Z</time>
      </trkpt>
      <trkpt lat="50.41406" lon="3.52615">
        <ele>35.225463867188</ele>
        <time>2010-03-07T09:10:20Z</time>
      </trkpt>
      <trkpt lat="50.41403" lon="3.52632">
        <ele>34.744873046875</ele>
        <time>2010-03-07T09:10:22Z</time>
      </trkpt>
      <trkpt lat="50.41403" lon="3.52635">
        <ele>36.66748046875</ele>
        <time>2010-03-07T09:10:27Z</time>
      </trkpt>
      <trkpt lat="50.41404" lon="3.52634">
        <ele>36.66748046875</ele>
        <time>2010-03-07T09:10:30Z</time>
      </trkpt>
      <trkpt lat="50.41405" lon="3.52633">
        <ele>37.148071289062</ele>
        <time>2010-03-07T09:10:34Z</time>
      </trkpt>
      <trkpt lat="50.41414" lon="3.52615">
        <ele>38.109375</ele>
        <time>2010-03-07T09:10:39Z</time>
      </trkpt>
      <trkpt lat="50.41429" lon="3.52594">
        <ele>40.032104492188</ele>
        <time>2010-03-07T09:10:45Z</time>
      </trkpt>
      <trkpt lat="50.41438" lon="3.52584">
        <ele>40.993408203125</ele>
        <time>2010-03-07T09:10:48Z</time>
      </trkpt>
      <trkpt lat="50.41446" lon="3.52562">
        <ele>42.916015625</ele>
        <time>2010-03-07T09:10:53Z</time>
      </trkpt>
      <trkpt lat="50.41459" lon="3.52537">
        <ele>41.473999023438</ele>
        <time>2010-03-07T09:10:59Z</time>
      </trkpt>
      <trkpt lat="50.41465" lon="3.52531">
        <ele>40.993408203125</ele>
        <time>2010-03-07T09:11:01Z</time>
      </trkpt>
      <trkpt lat="50.4147" lon="3.52498">
        <ele>41.954711914062</ele>
        <time>2010-03-07T09:11:08Z</time>
      </trkpt>
      <trkpt lat="50.41475" lon="3.52469">
        <ele>45.799926757812</ele>
        <time>2010-03-07T09:11:14Z</time>
      </trkpt>
      <trkpt lat="50.41482" lon="3.52432">
        <ele>50.606567382812</ele>
        <time>2010-03-07T09:11:22Z</time>
      </trkpt>
      <trkpt lat="50.41486" lon="3.52409">
        <ele>53.97119140625</ele>
        <time>2010-03-07T09:11:28Z</time>
      </trkpt>
      <trkpt lat="50.41489" lon="3.5239">
        <ele>57.816528320312</ele>
        <time>2010-03-07T09:11:35Z</time>
      </trkpt>
      <trkpt lat="50.41492" lon="3.52369">
        <ele>58.777709960938</ele>
        <time>2010-03-07T09:11:42Z</time>
      </trkpt>
      <trkpt lat="50.41495" lon="3.5235">
        <ele>62.622924804688</ele>
        <time>2010-03-07T09:11:50Z</time>
      </trkpt>
      <trkpt lat="50.41498" lon="3.52328">
        <ele>63.103637695312</ele>
        <time>2010-03-07T09:11:56Z</time>
      </trkpt>
      <trkpt lat="50.41501" lon="3.52304">
        <ele>59.739135742188</ele>
        <time>2010-03-07T09:12:01Z</time>
      </trkpt>
      <trkpt lat="50.41504" lon="3.52273">
        <ele>61.181030273438</ele>
        <time>2010-03-07T09:12:06Z</time>
      </trkpt>
      <trkpt lat="50.41506" lon="3.52243">
        <ele>60.2197265625</ele>
        <time>2010-03-07T09:12:11Z</time>
      </trkpt>
      <trkpt lat="50.41513" lon="3.52199">
        <ele>58.297119140625</ele>
        <time>2010-03-07T09:12:18Z</time>
      </trkpt>
      <trkpt lat="50.41519" lon="3.52165">
        <ele>54.451782226562</ele>
        <time>2010-03-07T09:12:22Z</time>
      </trkpt>
      <trkpt lat="50.4152" lon="3.52156">
        <ele>53.009765625</ele>
        <time>2010-03-07T09:12:23Z</time>
      </trkpt>
      <trkpt lat="50.41521" lon="3.52118">
        <ele>46.76123046875</ele>
        <time>2010-03-07T09:12:27Z</time>
      </trkpt>
      <trkpt lat="50.41514" lon="3.52076">
        <ele>40.512817382812</ele>
        <time>2010-03-07T09:12:32Z</time>
      </trkpt>
      <trkpt lat="50.41508" lon="3.52047">
        <ele>38.590087890625</ele>
        <time>2010-03-07T09:12:36Z</time>
      </trkpt>
      <trkpt lat="50.41512" lon="3.52004">
        <ele>36.66748046875</ele>
        <time>2010-03-07T09:12:42Z</time>
      </trkpt>
      <trkpt lat="50.41526" lon="3.5196">
        <ele>38.109375</ele>
        <time>2010-03-07T09:12:49Z</time>
      </trkpt>
      <trkpt lat="50.41534" lon="3.51917">
        <ele>40.512817382812</ele>
        <time>2010-03-07T09:12:56Z</time>
      </trkpt>
      <trkpt lat="50.41543" lon="3.51879">
        <ele>41.473999023438</ele>
        <time>2010-03-07T09:13:03Z</time>
      </trkpt>
      <trkpt lat="50.41543" lon="3.51875">
        <ele>41.954711914062</ele>
        <time>2010-03-07T09:13:04Z</time>
      </trkpt>
      <trkpt lat="50.41544" lon="3.51872">
        <ele>43.396606445312</ele>
        <time>2010-03-07T09:13:08Z</time>
      </trkpt>
      <trkpt lat="50.41546" lon="3.51868">
        <ele>59.258422851562</ele>
        <time>2010-03-07T09:15:00Z</time>
      </trkpt>
      <trkpt lat="50.41552" lon="3.5187">
        <ele>55.4130859375</ele>
        <time>2010-03-07T09:15:04Z</time>
      </trkpt>
      <trkpt lat="50.41553" lon="3.5187">
        <ele>55.4130859375</ele>
        <time>2010-03-07T09:15:05Z</time>
      </trkpt>
      <trkpt lat="50.41566" lon="3.51871">
        <ele>53.490478515625</ele>
        <time>2010-03-07T09:15:11Z</time>
      </trkpt>
      <trkpt lat="50.41575" lon="3.51869">
        <ele>54.451782226562</ele>
        <time>2010-03-07T09:15:15Z</time>
      </trkpt>
      <trkpt lat="50.41585" lon="3.51863">
        <ele>55.4130859375</ele>
        <time>2010-03-07T09:15:20Z</time>
      </trkpt>
      <trkpt lat="50.41591" lon="3.51856">
        <ele>55.4130859375</ele>
        <time>2010-03-07T09:15:24Z</time>
      </trkpt>
      <trkpt lat="50.41592" lon="3.51851">
        <ele>55.4130859375</ele>
        <time>2010-03-07T09:15:25Z</time>
      </trkpt>
      <trkpt lat="50.41597" lon="3.51794">
        <ele>51.087158203125</ele>
        <time>2010-03-07T09:15:34Z</time>
      </trkpt>
      <trkpt lat="50.41601" lon="3.51726">
        <ele>49.645263671875</ele>
        <time>2010-03-07T09:15:44Z</time>
      </trkpt>
      <trkpt lat="50.41601" lon="3.51719">
        <ele>49.645263671875</ele>
        <time>2010-03-07T09:15:45Z</time>
      </trkpt>
      <trkpt lat="50.41604" lon="3.517">
        <ele>49.645263671875</ele>
        <time>2010-03-07T09:15:48Z</time>
      </trkpt>
      <trkpt lat="50.41618" lon="3.51692">
        <ele>51.087158203125</ele>
        <time>2010-03-07T09:15:52Z</time>
      </trkpt>
      <trkpt lat="50.41663" lon="3.51696">
        <ele>52.048583984375</ele>
        <time>2010-03-07T09:16:01Z</time>
      </trkpt>
      <trkpt lat="50.41677" lon="3.5171">
        <ele>51.087158203125</ele>
        <time>2010-03-07T09:16:05Z</time>
      </trkpt>
      <trkpt lat="50.41683" lon="3.51726">
        <ele>49.645263671875</ele>
        <time>2010-03-07T09:16:07Z</time>
      </trkpt>
      <trkpt lat="50.41712" lon="3.51794">
        <ele>42.435424804688</ele>
        <time>2010-03-07T09:16:15Z</time>
      </trkpt>
      <trkpt lat="50.41717" lon="3.51838">
        <ele>40.512817382812</ele>
        <time>2010-03-07T09:16:19Z</time>
      </trkpt>
      <trkpt lat="50.41715" lon="3.51913">
        <ele>35.225463867188</ele>
        <time>2010-03-07T09:16:26Z</time>
      </trkpt>
      <trkpt lat="50.4171" lon="3.51966">
        <ele>37.148071289062</ele>
        <time>2010-03-07T09:16:31Z</time>
      </trkpt>
      <trkpt lat="50.41699" lon="3.52046">
        <ele>40.032104492188</ele>
        <time>2010-03-07T09:16:39Z</time>
      </trkpt>
      <trkpt lat="50.41684" lon="3.52121">
        <ele>41.473999023438</ele>
        <time>2010-03-07T09:16:47Z</time>
      </trkpt>
      <trkpt lat="50.41666" lon="3.5218">
        <ele>40.993408203125</ele>
        <time>2010-03-07T09:16:54Z</time>
      </trkpt>
      <trkpt lat="50.41645" lon="3.5224">
        <ele>43.396606445312</ele>
        <time>2010-03-07T09:17:01Z</time>
      </trkpt>
      <trkpt lat="50.4162" lon="3.52309">
        <ele>44.838623046875</ele>
        <time>2010-03-07T09:17:09Z</time>
      </trkpt>
      <trkpt lat="50.41599" lon="3.52379">
        <ele>44.358032226562</ele>
        <time>2010-03-07T09:17:17Z</time>
      </trkpt>
      <trkpt lat="50.41583" lon="3.52436">
        <ele>43.877319335938</ele>
        <time>2010-03-07T09:17:24Z</time>
      </trkpt>
      <trkpt lat="50.41562" lon="3.52475">
        <ele>42.435424804688</ele>
        <time>2010-03-07T09:17:31Z</time>
      </trkpt>
      <trkpt lat="50.41552" lon="3.52494">
        <ele>41.954711914062</ele>
        <time>2010-03-07T09:17:35Z</time>
      </trkpt>
      <trkpt lat="50.41547" lon="3.52527">
        <ele>41.473999023438</ele>
        <time>2010-03-07T09:17:40Z</time>
      </trkpt>
      <trkpt lat="50.41548" lon="3.52535">
        <ele>41.473999023438</ele>
        <time>2010-03-07T09:17:41Z</time>
      </trkpt>
      <trkpt lat="50.41552" lon="3.52559">
        <ele>40.512817382812</ele>
        <time>2010-03-07T09:17:44Z</time>
      </trkpt>
      <trkpt lat="50.41553" lon="3.52584">
        <ele>40.512817382812</ele>
        <time>2010-03-07T09:17:47Z</time>
      </trkpt>
      <trkpt lat="50.41548" lon="3.52658">
        <ele>39.070678710938</ele>
        <time>2010-03-07T09:17:55Z</time>
      </trkpt>
      <trkpt lat="50.41542" lon="3.52725">
        <ele>37.628662109375</ele>
        <time>2010-03-07T09:18:02Z</time>
      </trkpt>
      <trkpt lat="50.41534" lon="3.52771">
        <ele>37.148071289062</ele>
        <time>2010-03-07T09:18:07Z</time>
      </trkpt>
      <trkpt lat="50.4153" lon="3.52838">
        <ele>38.590087890625</ele>
        <time>2010-03-07T09:18:14Z</time>
      </trkpt>
      <trkpt lat="50.4153" lon="3.52855">
        <ele>39.070678710938</ele>
        <time>2010-03-07T09:18:16Z</time>
      </trkpt>
      <trkpt lat="50.41536" lon="3.52877">
        <ele>39.55126953125</ele>
        <time>2010-03-07T09:18:19Z</time>
      </trkpt>
      <trkpt lat="50.41541" lon="3.52898">
        <ele>40.512817382812</ele>
        <time>2010-03-07T09:18:24Z</time>
      </trkpt>
      <trkpt lat="50.41539" lon="3.52903">
        <ele>41.954711914062</ele>
        <time>2010-03-07T09:18:30Z</time>
      </trkpt>
      <trkpt lat="50.41541" lon="3.52913">
        <ele>43.877319335938</ele>
        <time>2010-03-07T09:18:35Z</time>
      </trkpt>
      <trkpt lat="50.41542" lon="3.52915">
        <ele>44.838623046875</ele>
        <time>2010-03-07T09:18:40Z</time>
      </trkpt>
      <trkpt lat="50.41541" lon="3.5292">
        <ele>45.799926757812</ele>
        <time>2010-03-07T09:18:46Z</time>
      </trkpt>
      <trkpt lat="50.41542" lon="3.52919">
        <ele>45.799926757812</ele>
        <time>2010-03-07T09:18:52Z</time>
      </trkpt>
      <trkpt lat="50.41542" lon="3.52918">
        <ele>45.799926757812</ele>
        <time>2010-03-07T09:18:53Z</time>
      </trkpt>
      <trkpt lat="50.4155" lon="3.52912">
        <ele>46.280639648438</ele>
        <time>2010-03-07T09:18:58Z</time>
      </trkpt>
      <trkpt lat="50.4157" lon="3.52916">
        <ele>45.799926757812</ele>
        <time>2010-03-07T09:19:04Z</time>
      </trkpt>
      <trkpt lat="50.41574" lon="3.52918">
        <ele>45.799926757812</ele>
        <time>2010-03-07T09:19:05Z</time>
      </trkpt>
      <trkpt lat="50.41607" lon="3.52941">
        <ele>45.319213867188</ele>
        <time>2010-03-07T09:19:13Z</time>
      </trkpt>
      <trkpt lat="50.41635" lon="3.52972">
        <ele>44.358032226562</ele>
        <time>2010-03-07T09:19:20Z</time>
      </trkpt>
      <trkpt lat="50.41639" lon="3.52976">
        <ele>44.358032226562</ele>
        <time>2010-03-07T09:19:21Z</time>
      </trkpt>
      <trkpt lat="50.41672" lon="3.53002">
        <ele>43.396606445312</ele>
        <time>2010-03-07T09:19:28Z</time>
      </trkpt>
      <trkpt lat="50.41685" lon="3.53017">
        <ele>43.396606445312</ele>
        <time>2010-03-07T09:19:31Z</time>
      </trkpt>
      <trkpt lat="50.41715" lon="3.53068">
        <ele>43.396606445312</ele>
        <time>2010-03-07T09:19:39Z</time>
      </trkpt>
      <trkpt lat="50.41746" lon="3.53123">
        <ele>42.916015625</ele>
        <time>2010-03-07T09:19:47Z</time>
      </trkpt>
      <trkpt lat="50.4178" lon="3.53185">
        <ele>42.916015625</ele>
        <time>2010-03-07T09:19:56Z</time>
      </trkpt>
      <trkpt lat="50.41808" lon="3.53232">
        <ele>42.435424804688</ele>
        <time>2010-03-07T09:20:03Z</time>
      </trkpt>
      <trkpt lat="50.41844" lon="3.53295">
        <ele>41.473999023438</ele>
        <time>2010-03-07T09:20:12Z</time>
      </trkpt>
      <trkpt lat="50.41882" lon="3.53355">
        <ele>40.993408203125</ele>
        <time>2010-03-07T09:20:21Z</time>
      </trkpt>
      <trkpt lat="50.41916" lon="3.53409">
        <ele>40.032104492188</ele>
        <time>2010-03-07T09:20:29Z</time>
      </trkpt>
      <trkpt lat="50.41924" lon="3.53423">
        <ele>39.55126953125</ele>
        <time>2010-03-07T09:20:31Z</time>
      </trkpt>
      <trkpt lat="50.41935" lon="3.53441">
        <ele>39.070678710938</ele>
        <time>2010-03-07T09:20:35Z</time>
      </trkpt>
      <trkpt lat="50.41951" lon="3.53439">
        <ele>35.7060546875</ele>
        <time>2010-03-07T09:20:39Z</time>
      </trkpt>
      <trkpt lat="50.41963" lon="3.53426">
        <ele>32.822265625</ele>
        <time>2010-03-07T09:20:43Z</time>
      </trkpt>
      <trkpt lat="50.41967" lon="3.53406">
        <ele>30.899536132812</ele>
        <time>2010-03-07T09:20:46Z</time>
      </trkpt>
      <trkpt lat="50.4197" lon="3.53392">
        <ele>31.380126953125</ele>
        <time>2010-03-07T09:20:48Z</time>
      </trkpt>
      <trkpt lat="50.41982" lon="3.53339">
        <ele>30.899536132812</ele>
        <time>2010-03-07T09:20:55Z</time>
      </trkpt>
      <trkpt lat="50.41993" lon="3.53288">
        <ele>29.938110351562</ele>
        <time>2010-03-07T09:21:01Z</time>
      </trkpt>
      <trkpt lat="50.42004" lon="3.53237">
        <ele>28.976928710938</ele>
        <time>2010-03-07T09:21:07Z</time>
      </trkpt>
      <trkpt lat="50.42015" lon="3.53182">
        <ele>29.938110351562</ele>
        <time>2010-03-07T09:21:14Z</time>
      </trkpt>
      <trkpt lat="50.42024" lon="3.53134">
        <ele>28.496215820312</ele>
        <time>2010-03-07T09:21:20Z</time>
      </trkpt>
      <trkpt lat="50.42025" lon="3.53126">
        <ele>28.496215820312</ele>
        <time>2010-03-07T09:21:21Z</time>
      </trkpt>
      <trkpt lat="50.4203" lon="3.53098">
        <ele>27.054321289062</ele>
        <time>2010-03-07T09:21:24Z</time>
      </trkpt>
      <trkpt lat="50.42033" lon="3.53073">
        <ele>26.092895507812</ele>
        <time>2010-03-07T09:21:27Z</time>
      </trkpt>
      <trkpt lat="50.42042" lon="3.53056">
        <ele>26.573608398438</ele>
        <time>2010-03-07T09:21:31Z</time>
      </trkpt>
      <trkpt lat="50.42045" lon="3.53058">
        <ele>26.573608398438</ele>
        <time>2010-03-07T09:21:32Z</time>
      </trkpt>
      <trkpt lat="50.42057" lon="3.53076">
        <ele>27.534912109375</ele>
        <time>2010-03-07T09:21:37Z</time>
      </trkpt>
      <trkpt lat="50.42064" lon="3.53084">
        <ele>27.534912109375</ele>
        <time>2010-03-07T09:21:41Z</time>
      </trkpt>
      <trkpt lat="50.42078" lon="3.53093">
        <ele>28.496215820312</ele>
        <time>2010-03-07T09:21:46Z</time>
      </trkpt>
      <trkpt lat="50.42095" lon="3.53087">
        <ele>27.534912109375</ele>
        <time>2010-03-07T09:21:50Z</time>
      </trkpt>
      <trkpt lat="50.42102" lon="3.53077">
        <ele>28.015502929688</ele>
        <time>2010-03-07T09:21:52Z</time>
      </trkpt>
      <trkpt lat="50.42126" lon="3.53049">
        <ele>28.496215820312</ele>
        <time>2010-03-07T09:21:58Z</time>
      </trkpt>
      <trkpt lat="50.4216" lon="3.53017">
        <ele>28.976928710938</ele>
        <time>2010-03-07T09:22:05Z</time>
      </trkpt>
      <trkpt lat="50.422" lon="3.5299">
        <ele>28.496215820312</ele>
        <time>2010-03-07T09:22:13Z</time>
      </trkpt>
      <trkpt lat="50.4223" lon="3.52977">
        <ele>27.534912109375</ele>
        <time>2010-03-07T09:22:19Z</time>
      </trkpt>
      <trkpt lat="50.42262" lon="3.52965">
        <ele>27.054321289062</ele>
        <time>2010-03-07T09:22:25Z</time>
      </trkpt>
      <trkpt lat="50.42268" lon="3.52963">
        <ele>27.054321289062</ele>
        <time>2010-03-07T09:22:26Z</time>
      </trkpt>
      <trkpt lat="50.42304" lon="3.52955">
        <ele>27.054321289062</ele>
        <time>2010-03-07T09:22:33Z</time>
      </trkpt>
      <trkpt lat="50.42315" lon="3.52953">
        <ele>27.054321289062</ele>
        <time>2010-03-07T09:22:35Z</time>
      </trkpt>
      <trkpt lat="50.42343" lon="3.52953">
        <ele>28.496215820312</ele>
        <time>2010-03-07T09:22:40Z</time>
      </trkpt>
      <trkpt lat="50.42358" lon="3.52956">
        <ele>28.015502929688</ele>
        <time>2010-03-07T09:22:43Z</time>
      </trkpt>
      <trkpt lat="50.4238" lon="3.52952">
        <ele>28.496215820312</ele>
        <time>2010-03-07T09:22:47Z</time>
      </trkpt>
      <trkpt lat="50.42387" lon="3.5294">
        <ele>29.45751953125</ele>
        <time>2010-03-07T09:22:49Z</time>
      </trkpt>
      <trkpt lat="50.42422" lon="3.5285">
        <ele>32.341552734375</ele>
        <time>2010-03-07T09:23:01Z</time>
      </trkpt>
      <trkpt lat="50.4244" lon="3.52801">
        <ele>33.783447265625</ele>
        <time>2010-03-07T09:23:08Z</time>
      </trkpt>
      <trkpt lat="50.42455" lon="3.52759">
        <ele>35.225463867188</ele>
        <time>2010-03-07T09:23:14Z</time>
      </trkpt>
      <trkpt lat="50.4247" lon="3.52715">
        <ele>36.66748046875</ele>
        <time>2010-03-07T09:23:21Z</time>
      </trkpt>
      <trkpt lat="50.42489" lon="3.52663">
        <ele>37.148071289062</ele>
        <time>2010-03-07T09:23:29Z</time>
      </trkpt>
      <trkpt lat="50.42491" lon="3.52657">
        <ele>37.628662109375</ele>
        <time>2010-03-07T09:23:30Z</time>
      </trkpt>
      <trkpt lat="50.42509" lon="3.52611">
        <ele>37.628662109375</ele>
        <time>2010-03-07T09:23:38Z</time>
      </trkpt>
      <trkpt lat="50.4253" lon="3.52549">
        <ele>37.148071289062</ele>
        <time>2010-03-07T09:23:47Z</time>
      </trkpt>
      <trkpt lat="50.42549" lon="3.52496">
        <ele>37.148071289062</ele>
        <time>2010-03-07T09:23:54Z</time>
      </trkpt>
      <trkpt lat="50.42573" lon="3.5243">
        <ele>36.186767578125</ele>
        <time>2010-03-07T09:24:02Z</time>
      </trkpt>
      <trkpt lat="50.42603" lon="3.52347">
        <ele>35.7060546875</ele>
        <time>2010-03-07T09:24:12Z</time>
      </trkpt>
      <trkpt lat="50.4263" lon="3.52272">
        <ele>34.744873046875</ele>
        <time>2010-03-07T09:24:21Z</time>
      </trkpt>
      <trkpt lat="50.42652" lon="3.52209">
        <ele>34.744873046875</ele>
        <time>2010-03-07T09:24:29Z</time>
      </trkpt>
      <trkpt lat="50.42679" lon="3.52133">
        <ele>35.7060546875</ele>
        <time>2010-03-07T09:24:39Z</time>
      </trkpt>
      <trkpt lat="50.42692" lon="3.52091">
        <ele>37.628662109375</ele>
        <time>2010-03-07T09:24:45Z</time>
      </trkpt>
      <trkpt lat="50.42704" lon="3.52053">
        <ele>39.55126953125</ele>
        <time>2010-03-07T09:24:52Z</time>
      </trkpt>
      <trkpt lat="50.4271" lon="3.52032">
        <ele>41.473999023438</ele>
        <time>2010-03-07T09:24:56Z</time>
      </trkpt>
      <trkpt lat="50.42725" lon="3.51988">
        <ele>40.512817382812</ele>
        <time>2010-03-07T09:25:03Z</time>
      </trkpt>
      <trkpt lat="50.42734" lon="3.51959">
        <ele>39.070678710938</ele>
        <time>2010-03-07T09:25:08Z</time>
      </trkpt>
      <trkpt lat="50.42749" lon="3.51917">
        <ele>40.032104492188</ele>
        <time>2010-03-07T09:25:15Z</time>
      </trkpt>
      <trkpt lat="50.42763" lon="3.51883">
        <ele>42.435424804688</ele>
        <time>2010-03-07T09:25:21Z</time>
      </trkpt>
      <trkpt lat="50.42773" lon="3.5185">
        <ele>41.954711914062</ele>
        <time>2010-03-07T09:25:27Z</time>
      </trkpt>
      <trkpt lat="50.42783" lon="3.51819">
        <ele>42.916015625</ele>
        <time>2010-03-07T09:25:32Z</time>
      </trkpt>
      <trkpt lat="50.42797" lon="3.51777">
        <ele>42.435424804688</ele>
        <time>2010-03-07T09:25:39Z</time>
      </trkpt>
      <trkpt lat="50.428" lon="3.51772">
        <ele>41.954711914062</ele>
        <time>2010-03-07T09:25:40Z</time>
      </trkpt>
      <trkpt lat="50.42807" lon="3.51751">
        <ele>40.993408203125</ele>
        <time>2010-03-07T09:25:44Z</time>
      </trkpt>
      <trkpt lat="50.42817" lon="3.51728">
        <ele>40.512817382812</ele>
        <time>2010-03-07T09:25:49Z</time>
      </trkpt>
      <trkpt lat="50.42822" lon="3.51728">
        <ele>40.512817382812</ele>
        <time>2010-03-07T09:25:50Z</time>
      </trkpt>
      <trkpt lat="50.4286" lon="3.51732">
        <ele>42.916015625</ele>
        <time>2010-03-07T09:25:58Z</time>
      </trkpt>
      <trkpt lat="50.42887" lon="3.51737">
        <ele>42.435424804688</ele>
        <time>2010-03-07T09:26:03Z</time>
      </trkpt>
      <trkpt lat="50.42918" lon="3.51741">
        <ele>43.396606445312</ele>
        <time>2010-03-07T09:26:09Z</time>
      </trkpt>
      <trkpt lat="50.42934" lon="3.51743">
        <ele>43.396606445312</ele>
        <time>2010-03-07T09:26:12Z</time>
      </trkpt>
      <trkpt lat="50.42953" lon="3.51744">
        <ele>43.396606445312</ele>
        <time>2010-03-07T09:26:16Z</time>
      </trkpt>
      <trkpt lat="50.42975" lon="3.51747">
        <ele>43.877319335938</ele>
        <time>2010-03-07T09:26:20Z</time>
      </trkpt>
      <trkpt lat="50.43016" lon="3.51752">
        <ele>43.877319335938</ele>
        <time>2010-03-07T09:26:27Z</time>
      </trkpt>
      <trkpt lat="50.43061" lon="3.51758">
        <ele>43.877319335938</ele>
        <time>2010-03-07T09:26:35Z</time>
      </trkpt>
      <trkpt lat="50.43108" lon="3.51764">
        <ele>43.877319335938</ele>
        <time>2010-03-07T09:26:43Z</time>
      </trkpt>
      <trkpt lat="50.43142" lon="3.51768">
        <ele>43.396606445312</ele>
        <time>2010-03-07T09:26:49Z</time>
      </trkpt>
      <trkpt lat="50.43182" lon="3.51772">
        <ele>42.916015625</ele>
        <time>2010-03-07T09:26:56Z</time>
      </trkpt>
      <trkpt lat="50.43217" lon="3.51777">
        <ele>41.473999023438</ele>
        <time>2010-03-07T09:27:02Z</time>
      </trkpt>
      <trkpt lat="50.43229" lon="3.51777">
        <ele>41.473999023438</ele>
        <time>2010-03-07T09:27:04Z</time>
      </trkpt>
      <trkpt lat="50.43285" lon="3.51782">
        <ele>41.954711914062</ele>
        <time>2010-03-07T09:27:13Z</time>
      </trkpt>
      <trkpt lat="50.43334" lon="3.51787">
        <ele>42.435424804688</ele>
        <time>2010-03-07T09:27:21Z</time>
      </trkpt>
      <trkpt lat="50.43388" lon="3.51794">
        <ele>41.473999023438</ele>
        <time>2010-03-07T09:27:30Z</time>
      </trkpt>
      <trkpt lat="50.43406" lon="3.51796">
        <ele>41.473999023438</ele>
        <time>2010-03-07T09:27:33Z</time>
      </trkpt>
      <trkpt lat="50.43448" lon="3.51804">
        <ele>40.512817382812</ele>
        <time>2010-03-07T09:27:40Z</time>
      </trkpt>
      <trkpt lat="50.43496" lon="3.5181">
        <ele>40.512817382812</ele>
        <time>2010-03-07T09:27:48Z</time>
      </trkpt>
      <trkpt lat="50.43546" lon="3.51814">
        <ele>41.954711914062</ele>
        <time>2010-03-07T09:27:56Z</time>
      </trkpt>
      <trkpt lat="50.43575" lon="3.51818">
        <ele>41.473999023438</ele>
        <time>2010-03-07T09:28:01Z</time>
      </trkpt>
      <trkpt lat="50.43591" lon="3.51804">
        <ele>41.954711914062</ele>
        <time>2010-03-07T09:28:05Z</time>
      </trkpt>
      <trkpt lat="50.43615" lon="3.51762">
        <ele>40.993408203125</ele>
        <time>2010-03-07T09:28:12Z</time>
      </trkpt>
      <trkpt lat="50.43616" lon="3.5174">
        <ele>40.993408203125</ele>
        <time>2010-03-07T09:28:16Z</time>
      </trkpt>
      <trkpt lat="50.43616" lon="3.51719">
        <ele>40.512817382812</ele>
        <time>2010-03-07T09:28:20Z</time>
      </trkpt>
      <trkpt lat="50.43617" lon="3.51706">
        <ele>39.55126953125</ele>
        <time>2010-03-07T09:28:22Z</time>
      </trkpt>
      <trkpt lat="50.43624" lon="3.51678">
        <ele>39.070678710938</ele>
        <time>2010-03-07T09:28:27Z</time>
      </trkpt>
      <trkpt lat="50.43628" lon="3.51667">
        <ele>39.55126953125</ele>
        <time>2010-03-07T09:28:29Z</time>
      </trkpt>
      <trkpt lat="50.43645" lon="3.51643">
        <ele>38.109375</ele>
        <time>2010-03-07T09:28:34Z</time>
      </trkpt>
      <trkpt lat="50.43651" lon="3.51633">
        <ele>37.628662109375</ele>
        <time>2010-03-07T09:28:36Z</time>
      </trkpt>
      <trkpt lat="50.43666" lon="3.51598">
        <ele>36.186767578125</ele>
        <time>2010-03-07T09:28:41Z</time>
      </trkpt>
      <trkpt lat="50.43681" lon="3.5157">
        <ele>33.783447265625</ele>
        <time>2010-03-07T09:28:45Z</time>
      </trkpt>
      <trkpt lat="50.43687" lon="3.51558">
        <ele>33.783447265625</ele>
        <time>2010-03-07T09:28:47Z</time>
      </trkpt>
      <trkpt lat="50.43701" lon="3.51533">
        <ele>33.783447265625</ele>
        <time>2010-03-07T09:28:52Z</time>
      </trkpt>
      <trkpt lat="50.43708" lon="3.51517">
        <ele>33.302856445312</ele>
        <time>2010-03-07T09:28:55Z</time>
      </trkpt>
      <trkpt lat="50.43719" lon="3.51495">
        <ele>33.302856445312</ele>
        <time>2010-03-07T09:28:59Z</time>
      </trkpt>
      <trkpt lat="50.43732" lon="3.51471">
        <ele>34.744873046875</ele>
        <time>2010-03-07T09:29:04Z</time>
      </trkpt>
      <trkpt lat="50.43747" lon="3.51461">
        <ele>34.26416015625</ele>
        <time>2010-03-07T09:29:08Z</time>
      </trkpt>
      <trkpt lat="50.43757" lon="3.5145">
        <ele>36.186767578125</ele>
        <time>2010-03-07T09:29:12Z</time>
      </trkpt>
      <trkpt lat="50.43767" lon="3.51443">
        <ele>37.148071289062</ele>
        <time>2010-03-07T09:29:16Z</time>
      </trkpt>
      <trkpt lat="50.43785" lon="3.51451">
        <ele>40.993408203125</ele>
        <time>2010-03-07T09:29:22Z</time>
      </trkpt>
      <trkpt lat="50.43805" lon="3.51471">
        <ele>42.916015625</ele>
        <time>2010-03-07T09:29:28Z</time>
      </trkpt>
      <trkpt lat="50.43825" lon="3.5149">
        <ele>44.838623046875</ele>
        <time>2010-03-07T09:29:34Z</time>
      </trkpt>
      <trkpt lat="50.4384" lon="3.51499">
        <ele>46.280639648438</ele>
        <time>2010-03-07T09:29:38Z</time>
      </trkpt>
      <trkpt lat="50.43858" lon="3.5151">
        <ele>46.76123046875</ele>
        <time>2010-03-07T09:29:43Z</time>
      </trkpt>
      <trkpt lat="50.43861" lon="3.51513">
        <ele>46.76123046875</ele>
        <time>2010-03-07T09:29:44Z</time>
      </trkpt>
      <trkpt lat="50.43891" lon="3.51537">
        <ele>43.877319335938</ele>
        <time>2010-03-07T09:29:51Z</time>
      </trkpt>
      <trkpt lat="50.43908" lon="3.5155">
        <ele>43.877319335938</ele>
        <time>2010-03-07T09:29:56Z</time>
      </trkpt>
      <trkpt lat="50.43921" lon="3.5156">
        <ele>47.722534179688</ele>
        <time>2010-03-07T09:30:01Z</time>
      </trkpt>
      <trkpt lat="50.43931" lon="3.51576">
        <ele>49.16455078125</ele>
        <time>2010-03-07T09:30:05Z</time>
      </trkpt>
      <trkpt lat="50.43938" lon="3.51594">
        <ele>52.529174804688</ele>
        <time>2010-03-07T09:30:09Z</time>
      </trkpt>
      <trkpt lat="50.43952" lon="3.51609">
        <ele>52.529174804688</ele>
        <time>2010-03-07T09:30:15Z</time>
      </trkpt>
      <trkpt lat="50.4397" lon="3.51627">
        <ele>48.683959960938</ele>
        <time>2010-03-07T09:30:21Z</time>
      </trkpt>
      <trkpt lat="50.43981" lon="3.51626">
        <ele>48.203369140625</ele>
        <time>2010-03-07T09:30:25Z</time>
      </trkpt>
      <trkpt lat="50.43983" lon="3.51613">
        <ele>46.76123046875</ele>
        <time>2010-03-07T09:30:28Z</time>
      </trkpt>
      <trkpt lat="50.43982" lon="3.51587">
        <ele>44.358032226562</ele>
        <time>2010-03-07T09:30:32Z</time>
      </trkpt>
      <trkpt lat="50.43977" lon="3.51548">
        <ele>41.473999023438</ele>
        <time>2010-03-07T09:30:36Z</time>
      </trkpt>
      <trkpt lat="50.43976" lon="3.51527">
        <ele>39.55126953125</ele>
        <time>2010-03-07T09:30:38Z</time>
      </trkpt>
      <trkpt lat="50.43967" lon="3.51497">
        <ele>37.148071289062</ele>
        <time>2010-03-07T09:30:42Z</time>
      </trkpt>
      <trkpt lat="50.43956" lon="3.51475">
        <ele>31.380126953125</ele>
        <time>2010-03-07T09:30:46Z</time>
      </trkpt>
      <trkpt lat="50.43948" lon="3.51458">
        <ele>30.418823242188</ele>
        <time>2010-03-07T09:30:49Z</time>
      </trkpt>
      <trkpt lat="50.43937" lon="3.5142">
        <ele>30.418823242188</ele>
        <time>2010-03-07T09:30:55Z</time>
      </trkpt>
      <trkpt lat="50.43927" lon="3.51391">
        <ele>27.534912109375</ele>
        <time>2010-03-07T09:31:00Z</time>
      </trkpt>
      <trkpt lat="50.43918" lon="3.51362">
        <ele>27.054321289062</ele>
        <time>2010-03-07T09:31:04Z</time>
      </trkpt>
      <trkpt lat="50.43914" lon="3.51332">
        <ele>27.054321289062</ele>
        <time>2010-03-07T09:31:08Z</time>
      </trkpt>
      <trkpt lat="50.43901" lon="3.51304">
        <ele>25.6123046875</ele>
        <time>2010-03-07T09:31:12Z</time>
      </trkpt>
      <trkpt lat="50.43888" lon="3.51276">
        <ele>24.170288085938</ele>
        <time>2010-03-07T09:31:15Z</time>
      </trkpt>
      <trkpt lat="50.43871" lon="3.51211">
        <ele>19.36376953125</ele>
        <time>2010-03-07T09:31:20Z</time>
      </trkpt>
      <trkpt lat="50.43852" lon="3.51155">
        <ele>16.96044921875</ele>
        <time>2010-03-07T09:31:24Z</time>
      </trkpt>
      <trkpt lat="50.43837" lon="3.51078">
        <ele>10.711791992188</ele>
        <time>2010-03-07T09:31:30Z</time>
      </trkpt>
      <trkpt lat="50.43834" lon="3.51067">
        <ele>10.711791992188</ele>
        <time>2010-03-07T09:31:31Z</time>
      </trkpt>
      <trkpt lat="50.43828" lon="3.51019">
        <ele>11.192504882812</ele>
        <time>2010-03-07T09:31:35Z</time>
      </trkpt>
      <trkpt lat="50.43818" lon="3.50995">
        <ele>13.115112304688</ele>
        <time>2010-03-07T09:31:37Z</time>
      </trkpt>
      <trkpt lat="50.43789" lon="3.50917">
        <ele>15.037719726562</ele>
        <time>2010-03-07T09:31:43Z</time>
      </trkpt>
      <trkpt lat="50.43759" lon="3.50839">
        <ele>16.479736328125</ele>
        <time>2010-03-07T09:31:49Z</time>
      </trkpt>
      <trkpt lat="50.43754" lon="3.50826">
        <ele>16.479736328125</ele>
        <time>2010-03-07T09:31:50Z</time>
      </trkpt>
      <trkpt lat="50.43714" lon="3.50728">
        <ele>18.40234375</ele>
        <time>2010-03-07T09:31:58Z</time>
      </trkpt>
      <trkpt lat="50.43707" lon="3.50706">
        <ele>18.40234375</ele>
        <time>2010-03-07T09:32:00Z</time>
      </trkpt>
      <trkpt lat="50.43687" lon="3.50681">
        <ele>20.324951171875</ele>
        <time>2010-03-07T09:32:04Z</time>
      </trkpt>
      <trkpt lat="50.4367" lon="3.50675">
        <ele>23.689575195312</ele>
        <time>2010-03-07T09:32:07Z</time>
      </trkpt>
      <trkpt lat="50.43638" lon="3.50661">
        <ele>24.170288085938</ele>
        <time>2010-03-07T09:32:12Z</time>
      </trkpt>
      <trkpt lat="50.43617" lon="3.50638">
        <ele>23.208984375</ele>
        <time>2010-03-07T09:32:16Z</time>
      </trkpt>
      <trkpt lat="50.43603" lon="3.50606">
        <ele>25.131713867188</ele>
        <time>2010-03-07T09:32:20Z</time>
      </trkpt>
      <trkpt lat="50.43608" lon="3.5059">
        <ele>25.6123046875</ele>
        <time>2010-03-07T09:32:22Z</time>
      </trkpt>
      <trkpt lat="50.43623" lon="3.50566">
        <ele>27.054321289062</ele>
        <time>2010-03-07T09:32:25Z</time>
      </trkpt>
      <trkpt lat="50.43626" lon="3.50556">
        <ele>27.534912109375</ele>
        <time>2010-03-07T09:32:26Z</time>
      </trkpt>
      <trkpt lat="50.43634" lon="3.50528">
        <ele>27.534912109375</ele>
        <time>2010-03-07T09:32:29Z</time>
      </trkpt>
      <trkpt lat="50.43648" lon="3.50496">
        <ele>28.015502929688</ele>
        <time>2010-03-07T09:32:33Z</time>
      </trkpt>
      <trkpt lat="50.43671" lon="3.50464">
        <ele>28.496215820312</ele>
        <time>2010-03-07T09:32:38Z</time>
      </trkpt>
      <trkpt lat="50.43714" lon="3.50425">
        <ele>30.418823242188</ele>
        <time>2010-03-07T09:32:46Z</time>
      </trkpt>
      <trkpt lat="50.43735" lon="3.50407">
        <ele>30.418823242188</ele>
        <time>2010-03-07T09:32:50Z</time>
      </trkpt>
      <trkpt lat="50.43747" lon="3.50411">
        <ele>29.938110351562</ele>
        <time>2010-03-07T09:32:52Z</time>
      </trkpt>
      <trkpt lat="50.43778" lon="3.50427">
        <ele>28.496215820312</ele>
        <time>2010-03-07T09:32:58Z</time>
      </trkpt>
      <trkpt lat="50.43798" lon="3.50424">
        <ele>28.976928710938</ele>
        <time>2010-03-07T09:33:03Z</time>
      </trkpt>
      <trkpt lat="50.43796" lon="3.50407">
        <ele>28.496215820312</ele>
        <time>2010-03-07T09:33:06Z</time>
      </trkpt>
      <trkpt lat="50.43794" lon="3.50402">
        <ele>28.496215820312</ele>
        <time>2010-03-07T09:33:07Z</time>
      </trkpt>
      <trkpt lat="50.43781" lon="3.50362">
        <ele>30.418823242188</ele>
        <time>2010-03-07T09:33:14Z</time>
      </trkpt>
      <trkpt lat="50.43776" lon="3.50342">
        <ele>30.418823242188</ele>
        <time>2010-03-07T09:33:18Z</time>
      </trkpt>
      <trkpt lat="50.43774" lon="3.50331">
        <ele>32.341552734375</ele>
        <time>2010-03-07T09:33:23Z</time>
      </trkpt>
      <trkpt lat="50.4377" lon="3.50335">
        <ele>35.7060546875</ele>
        <time>2010-03-07T09:33:38Z</time>
      </trkpt>
      <trkpt lat="50.43768" lon="3.50324">
        <ele>33.783447265625</ele>
        <time>2010-03-07T09:33:41Z</time>
      </trkpt>
      <trkpt lat="50.43768" lon="3.5032">
        <ele>33.783447265625</ele>
        <time>2010-03-07T09:33:42Z</time>
      </trkpt>
      <trkpt lat="50.43759" lon="3.50279">
        <ele>30.899536132812</ele>
        <time>2010-03-07T09:33:47Z</time>
      </trkpt>
      <trkpt lat="50.43752" lon="3.5025">
        <ele>30.899536132812</ele>
        <time>2010-03-07T09:33:50Z</time>
      </trkpt>
      <trkpt lat="50.43734" lon="3.50172">
        <ele>30.418823242188</ele>
        <time>2010-03-07T09:33:58Z</time>
      </trkpt>
      <trkpt lat="50.43726" lon="3.50134">
        <ele>30.899536132812</ele>
        <time>2010-03-07T09:34:02Z</time>
      </trkpt>
      <trkpt lat="50.4371" lon="3.50067">
        <ele>31.380126953125</ele>
        <time>2010-03-07T09:34:09Z</time>
      </trkpt>
      <trkpt lat="50.437" lon="3.5002">
        <ele>30.899536132812</ele>
        <time>2010-03-07T09:34:14Z</time>
      </trkpt>
      <trkpt lat="50.43696" lon="3.50001">
        <ele>30.899536132812</ele>
        <time>2010-03-07T09:34:16Z</time>
      </trkpt>
      <trkpt lat="50.43682" lon="3.49921">
        <ele>27.054321289062</ele>
        <time>2010-03-07T09:34:24Z</time>
      </trkpt>
      <trkpt lat="50.43671" lon="3.49865">
        <ele>25.6123046875</ele>
        <time>2010-03-07T09:34:30Z</time>
      </trkpt>
      <trkpt lat="50.43654" lon="3.49799">
        <ele>26.092895507812</ele>
        <time>2010-03-07T09:34:37Z</time>
      </trkpt>
      <trkpt lat="50.43636" lon="3.49744">
        <ele>29.45751953125</ele>
        <time>2010-03-07T09:34:42Z</time>
      </trkpt>
      <trkpt lat="50.43627" lon="3.49697">
        <ele>28.976928710938</ele>
        <time>2010-03-07T09:34:47Z</time>
      </trkpt>
      <trkpt lat="50.43613" lon="3.49655">
        <ele>30.418823242188</ele>
        <time>2010-03-07T09:34:51Z</time>
      </trkpt>
      <trkpt lat="50.43604" lon="3.49623">
        <ele>32.822265625</ele>
        <time>2010-03-07T09:34:55Z</time>
      </trkpt>
      <trkpt lat="50.43591" lon="3.49558">
        <ele>31.860717773438</ele>
        <time>2010-03-07T09:35:02Z</time>
      </trkpt>
      <trkpt lat="50.43578" lon="3.49503">
        <ele>31.380126953125</ele>
        <time>2010-03-07T09:35:07Z</time>
      </trkpt>
      <trkpt lat="50.43564" lon="3.49447">
        <ele>31.380126953125</ele>
        <time>2010-03-07T09:35:12Z</time>
      </trkpt>
      <trkpt lat="50.43555" lon="3.49397">
        <ele>29.938110351562</ele>
        <time>2010-03-07T09:35:17Z</time>
      </trkpt>
      <trkpt lat="50.43543" lon="3.49347">
        <ele>30.899536132812</ele>
        <time>2010-03-07T09:35:22Z</time>
      </trkpt>
      <trkpt lat="50.43522" lon="3.49275">
        <ele>33.783447265625</ele>
        <time>2010-03-07T09:35:29Z</time>
      </trkpt>
      <trkpt lat="50.43508" lon="3.49208">
        <ele>29.938110351562</ele>
        <time>2010-03-07T09:35:36Z</time>
      </trkpt>
      <trkpt lat="50.43494" lon="3.49143">
        <ele>27.054321289062</ele>
        <time>2010-03-07T09:35:43Z</time>
      </trkpt>
      <trkpt lat="50.43481" lon="3.49087">
        <ele>28.015502929688</ele>
        <time>2010-03-07T09:35:49Z</time>
      </trkpt>
      <trkpt lat="50.43467" lon="3.49033">
        <ele>27.054321289062</ele>
        <time>2010-03-07T09:35:55Z</time>
      </trkpt>
      <trkpt lat="50.43454" lon="3.48977">
        <ele>26.573608398438</ele>
        <time>2010-03-07T09:36:01Z</time>
      </trkpt>
      <trkpt lat="50.43443" lon="3.48939">
        <ele>28.015502929688</ele>
        <time>2010-03-07T09:36:05Z</time>
      </trkpt>
      <trkpt lat="50.43431" lon="3.48884">
        <ele>30.418823242188</ele>
        <time>2010-03-07T09:36:11Z</time>
      </trkpt>
      <trkpt lat="50.43423" lon="3.48846">
        <ele>32.822265625</ele>
        <time>2010-03-07T09:36:16Z</time>
      </trkpt>
      <trkpt lat="50.43409" lon="3.48774">
        <ele>29.45751953125</ele>
        <time>2010-03-07T09:36:24Z</time>
      </trkpt>
      <trkpt lat="50.43404" lon="3.48752">
        <ele>28.976928710938</ele>
        <time>2010-03-07T09:36:26Z</time>
      </trkpt>
      <trkpt lat="50.43389" lon="3.48691">
        <ele>27.534912109375</ele>
        <time>2010-03-07T09:36:32Z</time>
      </trkpt>
      <trkpt lat="50.43382" lon="3.4866">
        <ele>25.131713867188</ele>
        <time>2010-03-07T09:36:35Z</time>
      </trkpt>
      <trkpt lat="50.43365" lon="3.48594">
        <ele>21.286376953125</ele>
        <time>2010-03-07T09:36:42Z</time>
      </trkpt>
      <trkpt lat="50.43356" lon="3.48567">
        <ele>23.208984375</ele>
        <time>2010-03-07T09:36:45Z</time>
      </trkpt>
      <trkpt lat="50.43352" lon="3.48549">
        <ele>24.651000976562</ele>
        <time>2010-03-07T09:36:47Z</time>
      </trkpt>
      <trkpt lat="50.43337" lon="3.48488">
        <ele>29.938110351562</ele>
        <time>2010-03-07T09:36:54Z</time>
      </trkpt>
      <trkpt lat="50.43324" lon="3.48438">
        <ele>32.822265625</ele>
        <time>2010-03-07T09:36:59Z</time>
      </trkpt>
      <trkpt lat="50.43314" lon="3.48407">
        <ele>34.744873046875</ele>
        <time>2010-03-07T09:37:03Z</time>
      </trkpt>
      <trkpt lat="50.43311" lon="3.48398">
        <ele>35.225463867188</ele>
        <time>2010-03-07T09:37:04Z</time>
      </trkpt>
      <trkpt lat="50.43298" lon="3.48338">
        <ele>32.822265625</ele>
        <time>2010-03-07T09:37:10Z</time>
      </trkpt>
      <trkpt lat="50.43282" lon="3.48271">
        <ele>30.899536132812</ele>
        <time>2010-03-07T09:37:17Z</time>
      </trkpt>
      <trkpt lat="50.43271" lon="3.48228">
        <ele>31.380126953125</ele>
        <time>2010-03-07T09:37:23Z</time>
      </trkpt>
      <trkpt lat="50.43265" lon="3.4821">
        <ele>34.744873046875</ele>
        <time>2010-03-07T09:37:25Z</time>
      </trkpt>
      <trkpt lat="50.4326" lon="3.48191">
        <ele>33.783447265625</ele>
        <time>2010-03-07T09:37:27Z</time>
      </trkpt>
      <trkpt lat="50.43265" lon="3.48163">
        <ele>25.6123046875</ele>
        <time>2010-03-07T09:37:32Z</time>
      </trkpt>
      <trkpt lat="50.43268" lon="3.48141">
        <ele>23.689575195312</ele>
        <time>2010-03-07T09:37:37Z</time>
      </trkpt>
      <trkpt lat="50.43272" lon="3.48129">
        <ele>23.208984375</ele>
        <time>2010-03-07T09:37:40Z</time>
      </trkpt>
      <trkpt lat="50.43277" lon="3.48134">
        <ele>22.24755859375</ele>
        <time>2010-03-07T09:37:43Z</time>
      </trkpt>
      <trkpt lat="50.43279" lon="3.48139">
        <ele>22.728271484375</ele>
        <time>2010-03-07T09:37:46Z</time>
      </trkpt>
      <trkpt lat="50.4328" lon="3.48143">
        <ele>18.883056640625</ele>
        <time>2010-03-07T09:47:24Z</time>
      </trkpt>
      <trkpt lat="50.4328" lon="3.48144">
        <ele>18.883056640625</ele>
        <time>2010-03-07T09:47:25Z</time>
      </trkpt>
      <trkpt lat="50.43282" lon="3.48144">
        <ele>19.844360351562</ele>
        <time>2010-03-07T09:47:40Z</time>
      </trkpt>
      <trkpt lat="50.43283" lon="3.48146">
        <ele>20.324951171875</ele>
        <time>2010-03-07T09:47:41Z</time>
      </trkpt>
      <trkpt lat="50.43291" lon="3.4816">
        <ele>21.766967773438</ele>
        <time>2010-03-07T09:47:47Z</time>
      </trkpt>
      <trkpt lat="50.43298" lon="3.48172">
        <ele>22.728271484375</ele>
        <time>2010-03-07T09:47:51Z</time>
      </trkpt>
      <trkpt lat="50.43303" lon="3.48178">
        <ele>22.728271484375</ele>
        <time>2010-03-07T09:47:53Z</time>
      </trkpt>
      <trkpt lat="50.43322" lon="3.48203">
        <ele>21.286376953125</ele>
        <time>2010-03-07T09:47:59Z</time>
      </trkpt>
      <trkpt lat="50.43339" lon="3.48222">
        <ele>21.286376953125</ele>
        <time>2010-03-07T09:48:03Z</time>
      </trkpt>
      <trkpt lat="50.43372" lon="3.48262">
        <ele>19.844360351562</ele>
        <time>2010-03-07T09:48:11Z</time>
      </trkpt>
      <trkpt lat="50.43381" lon="3.48272">
        <ele>18.883056640625</ele>
        <time>2010-03-07T09:48:13Z</time>
      </trkpt>
      <trkpt lat="50.43412" lon="3.48308">
        <ele>17.921752929688</ele>
        <time>2010-03-07T09:48:20Z</time>
      </trkpt>
      <trkpt lat="50.43439" lon="3.4834">
        <ele>16.96044921875</ele>
        <time>2010-03-07T09:48:26Z</time>
      </trkpt>
      <trkpt lat="50.43475" lon="3.48386">
        <ele>16.96044921875</ele>
        <time>2010-03-07T09:48:34Z</time>
      </trkpt>
      <trkpt lat="50.43488" lon="3.48401">
        <ele>16.479736328125</ele>
        <time>2010-03-07T09:48:37Z</time>
      </trkpt>
      <trkpt lat="50.4351" lon="3.48425">
        <ele>16.479736328125</ele>
        <time>2010-03-07T09:48:42Z</time>
      </trkpt>
      <trkpt lat="50.43517" lon="3.48434">
        <ele>17.441162109375</ele>
        <time>2010-03-07T09:48:44Z</time>
      </trkpt>
      <trkpt lat="50.43551" lon="3.48476">
        <ele>15.9990234375</ele>
        <time>2010-03-07T09:48:52Z</time>
      </trkpt>
      <trkpt lat="50.43577" lon="3.48507">
        <ele>16.96044921875</ele>
        <time>2010-03-07T09:48:58Z</time>
      </trkpt>
      <trkpt lat="50.43604" lon="3.48541">
        <ele>18.40234375</ele>
        <time>2010-03-07T09:49:04Z</time>
      </trkpt>
      <trkpt lat="50.43631" lon="3.48575">
        <ele>20.8056640625</ele>
        <time>2010-03-07T09:49:10Z</time>
      </trkpt>
      <trkpt lat="50.43664" lon="3.48617">
        <ele>21.766967773438</ele>
        <time>2010-03-07T09:49:17Z</time>
      </trkpt>
      <trkpt lat="50.43684" lon="3.48641">
        <ele>22.728271484375</ele>
        <time>2010-03-07T09:49:21Z</time>
      </trkpt>
      <trkpt lat="50.43701" lon="3.48662">
        <ele>23.689575195312</ele>
        <time>2010-03-07T09:49:25Z</time>
      </trkpt>
      <trkpt lat="50.43717" lon="3.48681">
        <ele>23.689575195312</ele>
        <time>2010-03-07T09:49:29Z</time>
      </trkpt>
      <trkpt lat="50.43753" lon="3.48724">
        <ele>24.170288085938</ele>
        <time>2010-03-07T09:49:37Z</time>
      </trkpt>
      <trkpt lat="50.43795" lon="3.48775">
        <ele>20.8056640625</ele>
        <time>2010-03-07T09:49:46Z</time>
      </trkpt>
      <trkpt lat="50.43823" lon="3.48806">
        <ele>20.8056640625</ele>
        <time>2010-03-07T09:49:52Z</time>
      </trkpt>
      <trkpt lat="50.43837" lon="3.48822">
        <ele>19.844360351562</ele>
        <time>2010-03-07T09:49:55Z</time>
      </trkpt>
      <trkpt lat="50.43872" lon="3.48863">
        <ele>20.324951171875</ele>
        <time>2010-03-07T09:50:03Z</time>
      </trkpt>
      <trkpt lat="50.43883" lon="3.48896">
        <ele>19.844360351562</ele>
        <time>2010-03-07T09:50:08Z</time>
      </trkpt>
      <trkpt lat="50.43895" lon="3.4894">
        <ele>19.844360351562</ele>
        <time>2010-03-07T09:50:14Z</time>
      </trkpt>
      <trkpt lat="50.43904" lon="3.48973">
        <ele>20.324951171875</ele>
        <time>2010-03-07T09:50:18Z</time>
      </trkpt>
      <trkpt lat="50.4391" lon="3.48997">
        <ele>21.286376953125</ele>
        <time>2010-03-07T09:50:21Z</time>
      </trkpt>
      <trkpt lat="50.43919" lon="3.49029">
        <ele>22.728271484375</ele>
        <time>2010-03-07T09:50:26Z</time>
      </trkpt>
      <trkpt lat="50.43921" lon="3.49046">
        <ele>23.689575195312</ele>
        <time>2010-03-07T09:50:29Z</time>
      </trkpt>
      <trkpt lat="50.43927" lon="3.49061">
        <ele>23.689575195312</ele>
        <time>2010-03-07T09:50:31Z</time>
      </trkpt>
      <trkpt lat="50.43937" lon="3.49101">
        <ele>25.131713867188</ele>
        <time>2010-03-07T09:50:36Z</time>
      </trkpt>
      <trkpt lat="50.43948" lon="3.49143">
        <ele>24.651000976562</ele>
        <time>2010-03-07T09:50:42Z</time>
      </trkpt>
      <trkpt lat="50.43951" lon="3.49155">
        <ele>24.170288085938</ele>
        <time>2010-03-07T09:50:44Z</time>
      </trkpt>
      <trkpt lat="50.43963" lon="3.492">
        <ele>24.651000976562</ele>
        <time>2010-03-07T09:50:50Z</time>
      </trkpt>
      <trkpt lat="50.43965" lon="3.49208">
        <ele>25.131713867188</ele>
        <time>2010-03-07T09:50:51Z</time>
      </trkpt>
      <trkpt lat="50.43975" lon="3.49237">
        <ele>26.573608398438</ele>
        <time>2010-03-07T09:50:56Z</time>
      </trkpt>
      <trkpt lat="50.43979" lon="3.49259">
        <ele>26.092895507812</ele>
        <time>2010-03-07T09:51:00Z</time>
      </trkpt>
      <trkpt lat="50.43989" lon="3.49294">
        <ele>24.170288085938</ele>
        <time>2010-03-07T09:51:05Z</time>
      </trkpt>
      <trkpt lat="50.43991" lon="3.49301">
        <ele>23.689575195312</ele>
        <time>2010-03-07T09:51:06Z</time>
      </trkpt>
      <trkpt lat="50.44004" lon="3.49348">
        <ele>22.728271484375</ele>
        <time>2010-03-07T09:51:13Z</time>
      </trkpt>
      <trkpt lat="50.44013" lon="3.49381">
        <ele>23.208984375</ele>
        <time>2010-03-07T09:51:18Z</time>
      </trkpt>
      <trkpt lat="50.44018" lon="3.49413">
        <ele>23.689575195312</ele>
        <time>2010-03-07T09:51:23Z</time>
      </trkpt>
      <trkpt lat="50.44028" lon="3.49447">
        <ele>21.766967773438</ele>
        <time>2010-03-07T09:51:28Z</time>
      </trkpt>
      <trkpt lat="50.44032" lon="3.49455">
        <ele>21.286376953125</ele>
        <time>2010-03-07T09:51:29Z</time>
      </trkpt>
      <trkpt lat="50.4404" lon="3.49485">
        <ele>20.8056640625</ele>
        <time>2010-03-07T09:51:34Z</time>
      </trkpt>
      <trkpt lat="50.44054" lon="3.49536">
        <ele>20.324951171875</ele>
        <time>2010-03-07T09:51:40Z</time>
      </trkpt>
      <trkpt lat="50.44061" lon="3.49562">
        <ele>20.324951171875</ele>
        <time>2010-03-07T09:51:43Z</time>
      </trkpt>
      <trkpt lat="50.44067" lon="3.49579">
        <ele>20.324951171875</ele>
        <time>2010-03-07T09:51:45Z</time>
      </trkpt>
      <trkpt lat="50.44075" lon="3.49604">
        <ele>22.24755859375</ele>
        <time>2010-03-07T09:51:48Z</time>
      </trkpt>
      <trkpt lat="50.44086" lon="3.49651">
        <ele>24.170288085938</ele>
        <time>2010-03-07T09:51:53Z</time>
      </trkpt>
      <trkpt lat="50.44088" lon="3.4966">
        <ele>25.131713867188</ele>
        <time>2010-03-07T09:51:54Z</time>
      </trkpt>
      <trkpt lat="50.44094" lon="3.49679">
        <ele>26.092895507812</ele>
        <time>2010-03-07T09:51:56Z</time>
      </trkpt>
      <trkpt lat="50.44097" lon="3.49694">
        <ele>27.534912109375</ele>
        <time>2010-03-07T09:51:58Z</time>
      </trkpt>
      <trkpt lat="50.44099" lon="3.49708">
        <ele>29.45751953125</ele>
        <time>2010-03-07T09:52:00Z</time>
      </trkpt>
      <trkpt lat="50.44111" lon="3.49752">
        <ele>30.899536132812</ele>
        <time>2010-03-07T09:52:06Z</time>
      </trkpt>
      <trkpt lat="50.44117" lon="3.49774">
        <ele>31.860717773438</ele>
        <time>2010-03-07T09:52:09Z</time>
      </trkpt>
      <trkpt lat="50.4413" lon="3.49823">
        <ele>32.822265625</ele>
        <time>2010-03-07T09:52:15Z</time>
      </trkpt>
      <trkpt lat="50.44138" lon="3.49858">
        <ele>31.860717773438</ele>
        <time>2010-03-07T09:52:19Z</time>
      </trkpt>
      <trkpt lat="50.44154" lon="3.49907">
        <ele>30.418823242188</ele>
        <time>2010-03-07T09:52:23Z</time>
      </trkpt>
      <trkpt lat="50.4417" lon="3.49957">
        <ele>27.534912109375</ele>
        <time>2010-03-07T09:52:28Z</time>
      </trkpt>
      <trkpt lat="50.44177" lon="3.49984">
        <ele>25.6123046875</ele>
        <time>2010-03-07T09:52:33Z</time>
      </trkpt>
      <trkpt lat="50.44183" lon="3.50002">
        <ele>26.092895507812</ele>
        <time>2010-03-07T09:52:36Z</time>
      </trkpt>
      <trkpt lat="50.4419" lon="3.50041">
        <ele>29.45751953125</ele>
        <time>2010-03-07T09:52:42Z</time>
      </trkpt>
      <trkpt lat="50.44196" lon="3.50069">
        <ele>28.976928710938</ele>
        <time>2010-03-07T09:52:46Z</time>
      </trkpt>
      <trkpt lat="50.44203" lon="3.50093">
        <ele>28.976928710938</ele>
        <time>2010-03-07T09:52:49Z</time>
      </trkpt>
      <trkpt lat="50.44213" lon="3.50129">
        <ele>29.938110351562</ele>
        <time>2010-03-07T09:52:54Z</time>
      </trkpt>
      <trkpt lat="50.44219" lon="3.50158">
        <ele>28.015502929688</ele>
        <time>2010-03-07T09:52:59Z</time>
      </trkpt>
      <trkpt lat="50.44234" lon="3.50214">
        <ele>25.131713867188</ele>
        <time>2010-03-07T09:53:05Z</time>
      </trkpt>
      <trkpt lat="50.44243" lon="3.50244">
        <ele>24.170288085938</ele>
        <time>2010-03-07T09:53:08Z</time>
      </trkpt>
      <trkpt lat="50.44261" lon="3.50298">
        <ele>27.054321289062</ele>
        <time>2010-03-07T09:53:14Z</time>
      </trkpt>
      <trkpt lat="50.44264" lon="3.50308">
        <ele>27.054321289062</ele>
        <time>2010-03-07T09:53:15Z</time>
      </trkpt>
      <trkpt lat="50.44275" lon="3.5036">
        <ele>25.6123046875</ele>
        <time>2010-03-07T09:53:21Z</time>
      </trkpt>
      <trkpt lat="50.44284" lon="3.50396">
        <ele>25.131713867188</ele>
        <time>2010-03-07T09:53:26Z</time>
      </trkpt>
      <trkpt lat="50.44297" lon="3.50441">
        <ele>27.054321289062</ele>
        <time>2010-03-07T09:53:32Z</time>
      </trkpt>
      <trkpt lat="50.44306" lon="3.50479">
        <ele>28.015502929688</ele>
        <time>2010-03-07T09:53:37Z</time>
      </trkpt>
      <trkpt lat="50.44313" lon="3.50507">
        <ele>27.534912109375</ele>
        <time>2010-03-07T09:53:40Z</time>
      </trkpt>
      <trkpt lat="50.4432" lon="3.5054">
        <ele>29.45751953125</ele>
        <time>2010-03-07T09:53:44Z</time>
      </trkpt>
      <trkpt lat="50.44327" lon="3.5057">
        <ele>30.899536132812</ele>
        <time>2010-03-07T09:53:48Z</time>
      </trkpt>
      <trkpt lat="50.44339" lon="3.50609">
        <ele>29.45751953125</ele>
        <time>2010-03-07T09:53:52Z</time>
      </trkpt>
      <trkpt lat="50.44342" lon="3.50616">
        <ele>29.45751953125</ele>
        <time>2010-03-07T09:53:53Z</time>
      </trkpt>
      <trkpt lat="50.44356" lon="3.50666">
        <ele>28.015502929688</ele>
        <time>2010-03-07T09:53:59Z</time>
      </trkpt>
      <trkpt lat="50.44374" lon="3.50688">
        <ele>28.976928710938</ele>
        <time>2010-03-07T09:54:04Z</time>
      </trkpt>
      <trkpt lat="50.44379" lon="3.50688">
        <ele>29.45751953125</ele>
        <time>2010-03-07T09:54:05Z</time>
      </trkpt>
      <trkpt lat="50.44395" lon="3.50692">
        <ele>28.976928710938</ele>
        <time>2010-03-07T09:54:08Z</time>
      </trkpt>
      <trkpt lat="50.44406" lon="3.50696">
        <ele>29.938110351562</ele>
        <time>2010-03-07T09:54:10Z</time>
      </trkpt>
      <trkpt lat="50.44449" lon="3.50714">
        <ele>30.899536132812</ele>
        <time>2010-03-07T09:54:17Z</time>
      </trkpt>
      <trkpt lat="50.44484" lon="3.50728">
        <ele>32.822265625</ele>
        <time>2010-03-07T09:54:23Z</time>
      </trkpt>
      <trkpt lat="50.44496" lon="3.50731">
        <ele>34.26416015625</ele>
        <time>2010-03-07T09:54:25Z</time>
      </trkpt>
      <trkpt lat="50.44518" lon="3.50744">
        <ele>33.783447265625</ele>
        <time>2010-03-07T09:54:29Z</time>
      </trkpt>
      <trkpt lat="50.4455" lon="3.50754">
        <ele>37.148071289062</ele>
        <time>2010-03-07T09:54:34Z</time>
      </trkpt>
      <trkpt lat="50.44562" lon="3.50759">
        <ele>36.66748046875</ele>
        <time>2010-03-07T09:54:36Z</time>
      </trkpt>
      <trkpt lat="50.44583" lon="3.50771">
        <ele>35.225463867188</ele>
        <time>2010-03-07T09:54:40Z</time>
      </trkpt>
      <trkpt lat="50.44605" lon="3.50778">
        <ele>38.590087890625</ele>
        <time>2010-03-07T09:54:44Z</time>
      </trkpt>
      <trkpt lat="50.44631" lon="3.50784">
        <ele>41.954711914062</ele>
        <time>2010-03-07T09:54:49Z</time>
      </trkpt>
      <trkpt lat="50.44644" lon="3.50791">
        <ele>40.512817382812</ele>
        <time>2010-03-07T09:54:52Z</time>
      </trkpt>
      <trkpt lat="50.44687" lon="3.50817">
        <ele>36.66748046875</ele>
        <time>2010-03-07T09:54:59Z</time>
      </trkpt>
      <trkpt lat="50.44692" lon="3.50819">
        <ele>36.186767578125</ele>
        <time>2010-03-07T09:55:00Z</time>
      </trkpt>
      <trkpt lat="50.4472" lon="3.50825">
        <ele>39.070678710938</ele>
        <time>2010-03-07T09:55:04Z</time>
      </trkpt>
      <trkpt lat="50.44744" lon="3.50839">
        <ele>36.66748046875</ele>
        <time>2010-03-07T09:55:09Z</time>
      </trkpt>
      <trkpt lat="50.44762" lon="3.50849">
        <ele>35.225463867188</ele>
        <time>2010-03-07T09:55:14Z</time>
      </trkpt>
      <trkpt lat="50.44785" lon="3.50855">
        <ele>38.109375</ele>
        <time>2010-03-07T09:55:19Z</time>
      </trkpt>
      <trkpt lat="50.44817" lon="3.50875">
        <ele>30.899536132812</ele>
        <time>2010-03-07T09:55:25Z</time>
      </trkpt>
      <trkpt lat="50.44832" lon="3.50879">
        <ele>30.418823242188</ele>
        <time>2010-03-07T09:55:28Z</time>
      </trkpt>
      <trkpt lat="50.44854" lon="3.50894">
        <ele>26.573608398438</ele>
        <time>2010-03-07T09:55:33Z</time>
      </trkpt>
      <trkpt lat="50.44873" lon="3.50899">
        <ele>28.976928710938</ele>
        <time>2010-03-07T09:55:37Z</time>
      </trkpt>
      <trkpt lat="50.44893" lon="3.50909">
        <ele>27.534912109375</ele>
        <time>2010-03-07T09:55:41Z</time>
      </trkpt>
      <trkpt lat="50.44902" lon="3.50913">
        <ele>26.573608398438</ele>
        <time>2010-03-07T09:55:43Z</time>
      </trkpt>
      <trkpt lat="50.44915" lon="3.50924">
        <ele>23.208984375</ele>
        <time>2010-03-07T09:55:46Z</time>
      </trkpt>
      <trkpt lat="50.44939" lon="3.50932">
        <ele>24.651000976562</ele>
        <time>2010-03-07T09:55:51Z</time>
      </trkpt>
      <trkpt lat="50.44956" lon="3.50917">
        <ele>24.651000976562</ele>
        <time>2010-03-07T09:55:56Z</time>
      </trkpt>
      <trkpt lat="50.44972" lon="3.50892">
        <ele>26.092895507812</ele>
        <time>2010-03-07T09:56:02Z</time>
      </trkpt>
      <trkpt lat="50.44985" lon="3.50874">
        <ele>27.534912109375</ele>
        <time>2010-03-07T09:56:07Z</time>
      </trkpt>
      <trkpt lat="50.45005" lon="3.50852">
        <ele>28.496215820312</ele>
        <time>2010-03-07T09:56:13Z</time>
      </trkpt>
      <trkpt lat="50.45017" lon="3.50836">
        <ele>28.976928710938</ele>
        <time>2010-03-07T09:56:18Z</time>
      </trkpt>
      <trkpt lat="50.45034" lon="3.50815">
        <ele>28.976928710938</ele>
        <time>2010-03-07T09:56:25Z</time>
      </trkpt>
      <trkpt lat="50.45047" lon="3.50801">
        <ele>28.976928710938</ele>
        <time>2010-03-07T09:56:31Z</time>
      </trkpt>
      <trkpt lat="50.45059" lon="3.50785">
        <ele>28.015502929688</ele>
        <time>2010-03-07T09:56:38Z</time>
      </trkpt>
      <trkpt lat="50.45066" lon="3.50775">
        <ele>27.534912109375</ele>
        <time>2010-03-07T09:56:43Z</time>
      </trkpt>
      <trkpt lat="50.45078" lon="3.50759">
        <ele>28.015502929688</ele>
        <time>2010-03-07T09:56:49Z</time>
      </trkpt>
      <trkpt lat="50.45085" lon="3.50749">
        <ele>30.418823242188</ele>
        <time>2010-03-07T09:56:53Z</time>
      </trkpt>
      <trkpt lat="50.45092" lon="3.50734">
        <ele>32.822265625</ele>
        <time>2010-03-07T09:56:59Z</time>
      </trkpt>
      <trkpt lat="50.45094" lon="3.50731">
        <ele>33.302856445312</ele>
        <time>2010-03-07T09:57:00Z</time>
      </trkpt>
      <trkpt lat="50.4511" lon="3.50709">
        <ele>38.109375</ele>
        <time>2010-03-07T09:57:08Z</time>
      </trkpt>
      <trkpt lat="50.45121" lon="3.50694">
        <ele>39.55126953125</ele>
        <time>2010-03-07T09:57:14Z</time>
      </trkpt>
      <trkpt lat="50.45129" lon="3.50682">
        <ele>39.070678710938</ele>
        <time>2010-03-07T09:57:19Z</time>
      </trkpt>
      <trkpt lat="50.45138" lon="3.5067">
        <ele>39.070678710938</ele>
        <time>2010-03-07T09:57:25Z</time>
      </trkpt>
      <trkpt lat="50.45147" lon="3.50658">
        <ele>37.148071289062</ele>
        <time>2010-03-07T09:57:31Z</time>
      </trkpt>
      <trkpt lat="50.45156" lon="3.50646">
        <ele>37.148071289062</ele>
        <time>2010-03-07T09:57:36Z</time>
      </trkpt>
      <trkpt lat="50.45166" lon="3.50635">
        <ele>38.590087890625</ele>
        <time>2010-03-07T09:57:41Z</time>
      </trkpt>
      <trkpt lat="50.45175" lon="3.50621">
        <ele>37.148071289062</ele>
        <time>2010-03-07T09:57:46Z</time>
      </trkpt>
      <trkpt lat="50.45183" lon="3.50608">
        <ele>34.26416015625</ele>
        <time>2010-03-07T09:57:52Z</time>
      </trkpt>
      <trkpt lat="50.45192" lon="3.50597">
        <ele>31.860717773438</ele>
        <time>2010-03-07T09:57:57Z</time>
      </trkpt>
      <trkpt lat="50.45203" lon="3.50581">
        <ele>28.496215820312</ele>
        <time>2010-03-07T09:58:03Z</time>
      </trkpt>
      <trkpt lat="50.45217" lon="3.50563">
        <ele>30.418823242188</ele>
        <time>2010-03-07T09:58:09Z</time>
      </trkpt>
      <trkpt lat="50.45235" lon="3.50541">
        <ele>30.899536132812</ele>
        <time>2010-03-07T09:58:17Z</time>
      </trkpt>
      <trkpt lat="50.45249" lon="3.50522">
        <ele>30.418823242188</ele>
        <time>2010-03-07T09:58:23Z</time>
      </trkpt>
      <trkpt lat="50.45261" lon="3.50503">
        <ele>28.976928710938</ele>
        <time>2010-03-07T09:58:30Z</time>
      </trkpt>
      <trkpt lat="50.45274" lon="3.50486">
        <ele>29.45751953125</ele>
        <time>2010-03-07T09:58:36Z</time>
      </trkpt>
      <trkpt lat="50.45287" lon="3.50467">
        <ele>27.534912109375</ele>
        <time>2010-03-07T09:58:43Z</time>
      </trkpt>
      <trkpt lat="50.45297" lon="3.50455">
        <ele>25.6123046875</ele>
        <time>2010-03-07T09:58:48Z</time>
      </trkpt>
      <trkpt lat="50.45309" lon="3.50438">
        <ele>26.092895507812</ele>
        <time>2010-03-07T09:58:54Z</time>
      </trkpt>
      <trkpt lat="50.45319" lon="3.50424">
        <ele>26.092895507812</ele>
        <time>2010-03-07T09:59:00Z</time>
      </trkpt>
      <trkpt lat="50.4533" lon="3.5041">
        <ele>28.015502929688</ele>
        <time>2010-03-07T09:59:05Z</time>
      </trkpt>
      <trkpt lat="50.45345" lon="3.50391">
        <ele>28.496215820312</ele>
        <time>2010-03-07T09:59:12Z</time>
      </trkpt>
      <trkpt lat="50.45352" lon="3.50375">
        <ele>28.015502929688</ele>
        <time>2010-03-07T09:59:17Z</time>
      </trkpt>
      <trkpt lat="50.45364" lon="3.50355">
        <ele>28.015502929688</ele>
        <time>2010-03-07T09:59:23Z</time>
      </trkpt>
      <trkpt lat="50.45377" lon="3.50345">
        <ele>27.054321289062</ele>
        <time>2010-03-07T09:59:28Z</time>
      </trkpt>
      <trkpt lat="50.45387" lon="3.5033">
        <ele>26.573608398438</ele>
        <time>2010-03-07T09:59:33Z</time>
      </trkpt>
      <trkpt lat="50.45402" lon="3.50303">
        <ele>27.054321289062</ele>
        <time>2010-03-07T09:59:40Z</time>
      </trkpt>
      <trkpt lat="50.45422" lon="3.50274">
        <ele>28.015502929688</ele>
        <time>2010-03-07T09:59:47Z</time>
      </trkpt>
      <trkpt lat="50.45447" lon="3.50242">
        <ele>29.45751953125</ele>
        <time>2010-03-07T09:59:54Z</time>
      </trkpt>
      <trkpt lat="50.45458" lon="3.50229">
        <ele>30.418823242188</ele>
        <time>2010-03-07T09:59:57Z</time>
      </trkpt>
      <trkpt lat="50.45475" lon="3.50211">
        <ele>29.45751953125</ele>
        <time>2010-03-07T10:00:02Z</time>
      </trkpt>
      <trkpt lat="50.45486" lon="3.50193">
        <ele>28.976928710938</ele>
        <time>2010-03-07T10:00:07Z</time>
      </trkpt>
      <trkpt lat="50.45505" lon="3.50162">
        <ele>27.534912109375</ele>
        <time>2010-03-07T10:00:14Z</time>
      </trkpt>
      <trkpt lat="50.45525" lon="3.5013">
        <ele>25.6123046875</ele>
        <time>2010-03-07T10:00:21Z</time>
      </trkpt>
      <trkpt lat="50.45535" lon="3.50118">
        <ele>26.092895507812</ele>
        <time>2010-03-07T10:00:24Z</time>
      </trkpt>
      <trkpt lat="50.45548" lon="3.501">
        <ele>26.092895507812</ele>
        <time>2010-03-07T10:00:28Z</time>
      </trkpt>
      <trkpt lat="50.45555" lon="3.50092">
        <ele>26.092895507812</ele>
        <time>2010-03-07T10:00:30Z</time>
      </trkpt>
      <trkpt lat="50.4558" lon="3.50063">
        <ele>25.6123046875</ele>
        <time>2010-03-07T10:00:37Z</time>
      </trkpt>
      <trkpt lat="50.45606" lon="3.50021">
        <ele>26.573608398438</ele>
        <time>2010-03-07T10:00:45Z</time>
      </trkpt>
      <trkpt lat="50.45617" lon="3.50007">
        <ele>27.054321289062</ele>
        <time>2010-03-07T10:00:48Z</time>
      </trkpt>
      <trkpt lat="50.45649" lon="3.49969">
        <ele>25.6123046875</ele>
        <time>2010-03-07T10:00:57Z</time>
      </trkpt>
      <trkpt lat="50.45676" lon="3.49928">
        <ele>27.534912109375</ele>
        <time>2010-03-07T10:01:05Z</time>
      </trkpt>
      <trkpt lat="50.45689" lon="3.4991">
        <ele>27.054321289062</ele>
        <time>2010-03-07T10:01:09Z</time>
      </trkpt>
      <trkpt lat="50.4571" lon="3.49878">
        <ele>26.092895507812</ele>
        <time>2010-03-07T10:01:16Z</time>
      </trkpt>
      <trkpt lat="50.45733" lon="3.49843">
        <ele>26.092895507812</ele>
        <time>2010-03-07T10:01:24Z</time>
      </trkpt>
      <trkpt lat="50.45749" lon="3.49825">
        <ele>26.092895507812</ele>
        <time>2010-03-07T10:01:30Z</time>
      </trkpt>
      <trkpt lat="50.45752" lon="3.49821">
        <ele>26.092895507812</ele>
        <time>2010-03-07T10:01:31Z</time>
      </trkpt>
      <trkpt lat="50.45749" lon="3.49805">
        <ele>25.6123046875</ele>
        <time>2010-03-07T10:01:35Z</time>
      </trkpt>
      <trkpt lat="50.45746" lon="3.49801">
        <ele>25.131713867188</ele>
        <time>2010-03-07T10:01:36Z</time>
      </trkpt>
      <trkpt lat="50.45733" lon="3.4979">
        <ele>25.6123046875</ele>
        <time>2010-03-07T10:01:40Z</time>
      </trkpt>
      <trkpt lat="50.45707" lon="3.49765">
        <ele>26.092895507812</ele>
        <time>2010-03-07T10:01:46Z</time>
      </trkpt>
      <trkpt lat="50.45689" lon="3.49753">
        <ele>27.054321289062</ele>
        <time>2010-03-07T10:01:50Z</time>
      </trkpt>
      <trkpt lat="50.45659" lon="3.49725">
        <ele>27.054321289062</ele>
        <time>2010-03-07T10:01:56Z</time>
      </trkpt>
      <trkpt lat="50.45633" lon="3.49699">
        <ele>28.015502929688</ele>
        <time>2010-03-07T10:02:01Z</time>
      </trkpt>
      <trkpt lat="50.45627" lon="3.49693">
        <ele>28.976928710938</ele>
        <time>2010-03-07T10:02:02Z</time>
      </trkpt>
      <trkpt lat="50.45616" lon="3.4968">
        <ele>28.976928710938</ele>
        <time>2010-03-07T10:02:06Z</time>
      </trkpt>
      <trkpt lat="50.4562" lon="3.49665">
        <ele>28.496215820312</ele>
        <time>2010-03-07T10:02:10Z</time>
      </trkpt>
      <trkpt lat="50.45626" lon="3.49644">
        <ele>32.341552734375</ele>
        <time>2010-03-07T10:02:14Z</time>
      </trkpt>
      <trkpt lat="50.4564" lon="3.49611">
        <ele>35.7060546875</ele>
        <time>2010-03-07T10:02:21Z</time>
      </trkpt>
      <trkpt lat="50.45648" lon="3.49589">
        <ele>37.628662109375</ele>
        <time>2010-03-07T10:02:26Z</time>
      </trkpt>
      <trkpt lat="50.45652" lon="3.49566">
        <ele>40.032104492188</ele>
        <time>2010-03-07T10:02:31Z</time>
      </trkpt>
      <trkpt lat="50.45661" lon="3.4955">
        <ele>41.473999023438</ele>
        <time>2010-03-07T10:02:35Z</time>
      </trkpt>
      <trkpt lat="50.45678" lon="3.49517">
        <ele>43.877319335938</ele>
        <time>2010-03-07T10:02:41Z</time>
      </trkpt>
      <trkpt lat="50.45683" lon="3.49496">
        <ele>45.319213867188</ele>
        <time>2010-03-07T10:02:46Z</time>
      </trkpt>
      <trkpt lat="50.45686" lon="3.49484">
        <ele>45.319213867188</ele>
        <time>2010-03-07T10:02:50Z</time>
      </trkpt>
      <trkpt lat="50.45688" lon="3.4948">
        <ele>42.916015625</ele>
        <time>2010-03-07T10:02:51Z</time>
      </trkpt>
      <trkpt lat="50.45701" lon="3.49454">
        <ele>42.435424804688</ele>
        <time>2010-03-07T10:02:57Z</time>
      </trkpt>
      <trkpt lat="50.45711" lon="3.49431">
        <ele>46.76123046875</ele>
        <time>2010-03-07T10:03:03Z</time>
      </trkpt>
      <trkpt lat="50.45717" lon="3.49415">
        <ele>45.319213867188</ele>
        <time>2010-03-07T10:03:07Z</time>
      </trkpt>
      <trkpt lat="50.45726" lon="3.49398">
        <ele>44.838623046875</ele>
        <time>2010-03-07T10:03:12Z</time>
      </trkpt>
      <trkpt lat="50.45727" lon="3.49395">
        <ele>44.838623046875</ele>
        <time>2010-03-07T10:03:13Z</time>
      </trkpt>
      <trkpt lat="50.45729" lon="3.49388">
        <ele>45.319213867188</ele>
        <time>2010-03-07T10:03:15Z</time>
      </trkpt>
      <trkpt lat="50.45735" lon="3.49375">
        <ele>45.319213867188</ele>
        <time>2010-03-07T10:03:20Z</time>
      </trkpt>
      <trkpt lat="50.45748" lon="3.4935">
        <ele>39.070678710938</ele>
        <time>2010-03-07T10:03:25Z</time>
      </trkpt>
      <trkpt lat="50.45754" lon="3.49335">
        <ele>36.66748046875</ele>
        <time>2010-03-07T10:03:28Z</time>
      </trkpt>
      <trkpt lat="50.45753" lon="3.49327">
        <ele>36.186767578125</ele>
        <time>2010-03-07T10:03:31Z</time>
      </trkpt>
      <trkpt lat="50.45748" lon="3.49323">
        <ele>37.148071289062</ele>
        <time>2010-03-07T10:03:35Z</time>
      </trkpt>
      <trkpt lat="50.45732" lon="3.49321">
        <ele>38.109375</ele>
        <time>2010-03-07T10:03:42Z</time>
      </trkpt>
      <trkpt lat="50.45709" lon="3.49323">
        <ele>35.7060546875</ele>
        <time>2010-03-07T10:03:48Z</time>
      </trkpt>
      <trkpt lat="50.45693" lon="3.49332">
        <ele>37.148071289062</ele>
        <time>2010-03-07T10:03:53Z</time>
      </trkpt>
      <trkpt lat="50.45673" lon="3.49346">
        <ele>30.899536132812</ele>
        <time>2010-03-07T10:03:57Z</time>
      </trkpt>
      <trkpt lat="50.45657" lon="3.4935">
        <ele>28.496215820312</ele>
        <time>2010-03-07T10:04:01Z</time>
      </trkpt>
      <trkpt lat="50.45646" lon="3.49348">
        <ele>28.496215820312</ele>
        <time>2010-03-07T10:04:05Z</time>
      </trkpt>
      <trkpt lat="50.45631" lon="3.49343">
        <ele>28.015502929688</ele>
        <time>2010-03-07T10:04:10Z</time>
      </trkpt>
      <trkpt lat="50.45626" lon="3.49341">
        <ele>28.976928710938</ele>
        <time>2010-03-07T10:04:12Z</time>
      </trkpt>
      <trkpt lat="50.45611" lon="3.49324">
        <ele>31.860717773438</ele>
        <time>2010-03-07T10:04:17Z</time>
      </trkpt>
      <trkpt lat="50.45591" lon="3.49314">
        <ele>37.628662109375</ele>
        <time>2010-03-07T10:04:23Z</time>
      </trkpt>
      <trkpt lat="50.45573" lon="3.49313">
        <ele>39.070678710938</ele>
        <time>2010-03-07T10:04:28Z</time>
      </trkpt>
      <trkpt lat="50.45559" lon="3.49309">
        <ele>41.473999023438</ele>
        <time>2010-03-07T10:04:32Z</time>
      </trkpt>
      <trkpt lat="50.45548" lon="3.4931">
        <ele>43.396606445312</ele>
        <time>2010-03-07T10:04:36Z</time>
      </trkpt>
      <trkpt lat="50.45525" lon="3.49295">
        <ele>40.512817382812</ele>
        <time>2010-03-07T10:04:41Z</time>
      </trkpt>
      <trkpt lat="50.45517" lon="3.49292">
        <ele>40.032104492188</ele>
        <time>2010-03-07T10:04:43Z</time>
      </trkpt>
      <trkpt lat="50.45505" lon="3.49303">
        <ele>40.993408203125</ele>
        <time>2010-03-07T10:04:48Z</time>
      </trkpt>
      <trkpt lat="50.45504" lon="3.49306">
        <ele>41.473999023438</ele>
        <time>2010-03-07T10:04:50Z</time>
      </trkpt>
      <trkpt lat="50.45502" lon="3.4931">
        <ele>40.993408203125</ele>
        <time>2010-03-07T10:04:58Z</time>
      </trkpt>
      <trkpt lat="50.45492" lon="3.49315">
        <ele>41.954711914062</ele>
        <time>2010-03-07T10:05:02Z</time>
      </trkpt>
      <trkpt lat="50.4547" lon="3.49328">
        <ele>41.473999023438</ele>
        <time>2010-03-07T10:05:08Z</time>
      </trkpt>
      <trkpt lat="50.45458" lon="3.49334">
        <ele>42.435424804688</ele>
        <time>2010-03-07T10:05:12Z</time>
      </trkpt>
      <trkpt lat="50.45442" lon="3.49344">
        <ele>41.473999023438</ele>
        <time>2010-03-07T10:05:17Z</time>
      </trkpt>
      <trkpt lat="50.45424" lon="3.49357">
        <ele>39.55126953125</ele>
        <time>2010-03-07T10:05:22Z</time>
      </trkpt>
      <trkpt lat="50.45405" lon="3.49369">
        <ele>40.993408203125</ele>
        <time>2010-03-07T10:05:28Z</time>
      </trkpt>
      <trkpt lat="50.45385" lon="3.49381">
        <ele>35.7060546875</ele>
        <time>2010-03-07T10:05:32Z</time>
      </trkpt>
      <trkpt lat="50.45359" lon="3.49401">
        <ele>33.302856445312</ele>
        <time>2010-03-07T10:05:38Z</time>
      </trkpt>
      <trkpt lat="50.45354" lon="3.49404">
        <ele>34.744873046875</ele>
        <time>2010-03-07T10:05:40Z</time>
      </trkpt>
      <trkpt lat="50.45334" lon="3.49402">
        <ele>32.341552734375</ele>
        <time>2010-03-07T10:05:46Z</time>
      </trkpt>
      <trkpt lat="50.45323" lon="3.49393">
        <ele>30.899536132812</ele>
        <time>2010-03-07T10:05:50Z</time>
      </trkpt>
      <trkpt lat="50.45305" lon="3.49382">
        <ele>28.976928710938</ele>
        <time>2010-03-07T10:05:55Z</time>
      </trkpt>
      <trkpt lat="50.45283" lon="3.49362">
        <ele>28.496215820312</ele>
        <time>2010-03-07T10:06:00Z</time>
      </trkpt>
      <trkpt lat="50.4526" lon="3.49339">
        <ele>29.938110351562</ele>
        <time>2010-03-07T10:06:05Z</time>
      </trkpt>
      <trkpt lat="50.45256" lon="3.49335">
        <ele>30.418823242188</ele>
        <time>2010-03-07T10:06:06Z</time>
      </trkpt>
      <trkpt lat="50.45231" lon="3.49312">
        <ele>32.341552734375</ele>
        <time>2010-03-07T10:06:11Z</time>
      </trkpt>
      <trkpt lat="50.45211" lon="3.49292">
        <ele>33.783447265625</ele>
        <time>2010-03-07T10:06:16Z</time>
      </trkpt>
      <trkpt lat="50.45193" lon="3.49273">
        <ele>33.783447265625</ele>
        <time>2010-03-07T10:06:21Z</time>
      </trkpt>
      <trkpt lat="50.45171" lon="3.49252">
        <ele>33.302856445312</ele>
        <time>2010-03-07T10:06:27Z</time>
      </trkpt>
      <trkpt lat="50.45156" lon="3.49235">
        <ele>32.341552734375</ele>
        <time>2010-03-07T10:06:31Z</time>
      </trkpt>
      <trkpt lat="50.45137" lon="3.49217">
        <ele>33.783447265625</ele>
        <time>2010-03-07T10:06:36Z</time>
      </trkpt>
      <trkpt lat="50.45121" lon="3.49201">
        <ele>32.822265625</ele>
        <time>2010-03-07T10:06:41Z</time>
      </trkpt>
      <trkpt lat="50.45094" lon="3.49175">
        <ele>35.7060546875</ele>
        <time>2010-03-07T10:06:47Z</time>
      </trkpt>
      <trkpt lat="50.45079" lon="3.49161">
        <ele>34.26416015625</ele>
        <time>2010-03-07T10:06:51Z</time>
      </trkpt>
      <trkpt lat="50.45052" lon="3.49132">
        <ele>37.628662109375</ele>
        <time>2010-03-07T10:06:56Z</time>
      </trkpt>
      <trkpt lat="50.45031" lon="3.49109">
        <ele>39.55126953125</ele>
        <time>2010-03-07T10:07:01Z</time>
      </trkpt>
      <trkpt lat="50.4501" lon="3.49092">
        <ele>39.55126953125</ele>
        <time>2010-03-07T10:07:06Z</time>
      </trkpt>
      <trkpt lat="50.45006" lon="3.49088">
        <ele>39.55126953125</ele>
        <time>2010-03-07T10:07:07Z</time>
      </trkpt>
      <trkpt lat="50.44975" lon="3.49054">
        <ele>39.070678710938</ele>
        <time>2010-03-07T10:07:15Z</time>
      </trkpt>
      <trkpt lat="50.44954" lon="3.49031">
        <ele>40.993408203125</ele>
        <time>2010-03-07T10:07:20Z</time>
      </trkpt>
      <trkpt lat="50.4495" lon="3.49027">
        <ele>41.473999023438</ele>
        <time>2010-03-07T10:07:21Z</time>
      </trkpt>
      <trkpt lat="50.44924" lon="3.49004">
        <ele>42.435424804688</ele>
        <time>2010-03-07T10:07:28Z</time>
      </trkpt>
      <trkpt lat="50.44909" lon="3.48993">
        <ele>40.032104492188</ele>
        <time>2010-03-07T10:07:32Z</time>
      </trkpt>
      <trkpt lat="50.44883" lon="3.48971">
        <ele>38.109375</ele>
        <time>2010-03-07T10:07:38Z</time>
      </trkpt>
      <trkpt lat="50.44867" lon="3.48959">
        <ele>37.628662109375</ele>
        <time>2010-03-07T10:07:42Z</time>
      </trkpt>
      <trkpt lat="50.44841" lon="3.48935">
        <ele>34.744873046875</ele>
        <time>2010-03-07T10:07:49Z</time>
      </trkpt>
      <trkpt lat="50.44833" lon="3.48928">
        <ele>34.26416015625</ele>
        <time>2010-03-07T10:07:51Z</time>
      </trkpt>
      <trkpt lat="50.4481" lon="3.48906">
        <ele>31.380126953125</ele>
        <time>2010-03-07T10:07:57Z</time>
      </trkpt>
      <trkpt lat="50.44807" lon="3.48902">
        <ele>30.899536132812</ele>
        <time>2010-03-07T10:07:58Z</time>
      </trkpt>
      <trkpt lat="50.44792" lon="3.48885">
        <ele>28.976928710938</ele>
        <time>2010-03-07T10:08:02Z</time>
      </trkpt>
      <trkpt lat="50.44769" lon="3.48862">
        <ele>28.015502929688</ele>
        <time>2010-03-07T10:08:08Z</time>
      </trkpt>
      <trkpt lat="50.44751" lon="3.48845">
        <ele>28.976928710938</ele>
        <time>2010-03-07T10:08:13Z</time>
      </trkpt>
      <trkpt lat="50.44738" lon="3.48828">
        <ele>29.45751953125</ele>
        <time>2010-03-07T10:08:17Z</time>
      </trkpt>
      <trkpt lat="50.44719" lon="3.48808">
        <ele>30.899536132812</ele>
        <time>2010-03-07T10:08:23Z</time>
      </trkpt>
      <trkpt lat="50.44704" lon="3.48799">
        <ele>30.899536132812</ele>
        <time>2010-03-07T10:08:28Z</time>
      </trkpt>
      <trkpt lat="50.44686" lon="3.48787">
        <ele>29.45751953125</ele>
        <time>2010-03-07T10:08:33Z</time>
      </trkpt>
      <trkpt lat="50.44669" lon="3.48767">
        <ele>28.976928710938</ele>
        <time>2010-03-07T10:08:38Z</time>
      </trkpt>
      <trkpt lat="50.44654" lon="3.48751">
        <ele>30.418823242188</ele>
        <time>2010-03-07T10:08:42Z</time>
      </trkpt>
      <trkpt lat="50.44635" lon="3.48732">
        <ele>31.860717773438</ele>
        <time>2010-03-07T10:08:47Z</time>
      </trkpt>
      <trkpt lat="50.44609" lon="3.48711">
        <ele>32.341552734375</ele>
        <time>2010-03-07T10:08:53Z</time>
      </trkpt>
      <trkpt lat="50.44588" lon="3.48687">
        <ele>34.26416015625</ele>
        <time>2010-03-07T10:08:58Z</time>
      </trkpt>
      <trkpt lat="50.44569" lon="3.48668">
        <ele>35.7060546875</ele>
        <time>2010-03-07T10:09:03Z</time>
      </trkpt>
      <trkpt lat="50.4455" lon="3.48646">
        <ele>36.186767578125</ele>
        <time>2010-03-07T10:09:08Z</time>
      </trkpt>
      <trkpt lat="50.44527" lon="3.48619">
        <ele>41.954711914062</ele>
        <time>2010-03-07T10:09:13Z</time>
      </trkpt>
      <trkpt lat="50.44515" lon="3.48609">
        <ele>41.473999023438</ele>
        <time>2010-03-07T10:09:17Z</time>
      </trkpt>
      <trkpt lat="50.44493" lon="3.48592">
        <ele>36.186767578125</ele>
        <time>2010-03-07T10:09:23Z</time>
      </trkpt>
      <trkpt lat="50.44474" lon="3.48575">
        <ele>33.302856445312</ele>
        <time>2010-03-07T10:09:28Z</time>
      </trkpt>
      <trkpt lat="50.44466" lon="3.48544">
        <ele>34.744873046875</ele>
        <time>2010-03-07T10:09:33Z</time>
      </trkpt>
      <trkpt lat="50.44465" lon="3.48537">
        <ele>35.225463867188</ele>
        <time>2010-03-07T10:09:34Z</time>
      </trkpt>
      <trkpt lat="50.44472" lon="3.48499">
        <ele>35.7060546875</ele>
        <time>2010-03-07T10:09:40Z</time>
      </trkpt>
      <trkpt lat="50.44481" lon="3.48476">
        <ele>33.302856445312</ele>
        <time>2010-03-07T10:09:44Z</time>
      </trkpt>
      <trkpt lat="50.4449" lon="3.48446">
        <ele>27.534912109375</ele>
        <time>2010-03-07T10:09:49Z</time>
      </trkpt>
      <trkpt lat="50.44502" lon="3.48412">
        <ele>26.573608398438</ele>
        <time>2010-03-07T10:09:54Z</time>
      </trkpt>
      <trkpt lat="50.44511" lon="3.48384">
        <ele>27.054321289062</ele>
        <time>2010-03-07T10:09:59Z</time>
      </trkpt>
      <trkpt lat="50.44526" lon="3.48352">
        <ele>25.131713867188</ele>
        <time>2010-03-07T10:10:05Z</time>
      </trkpt>
      <trkpt lat="50.44526" lon="3.48329">
        <ele>25.6123046875</ele>
        <time>2010-03-07T10:10:09Z</time>
      </trkpt>
      <trkpt lat="50.44527" lon="3.48314">
        <ele>27.534912109375</ele>
        <time>2010-03-07T10:10:11Z</time>
      </trkpt>
      <trkpt lat="50.44525" lon="3.48281">
        <ele>30.418823242188</ele>
        <time>2010-03-07T10:10:16Z</time>
      </trkpt>
      <trkpt lat="50.44521" lon="3.48249">
        <ele>31.860717773438</ele>
        <time>2010-03-07T10:10:21Z</time>
      </trkpt>
      <trkpt lat="50.44516" lon="3.48219">
        <ele>31.380126953125</ele>
        <time>2010-03-07T10:10:26Z</time>
      </trkpt>
      <trkpt lat="50.44509" lon="3.48193">
        <ele>35.7060546875</ele>
        <time>2010-03-07T10:10:31Z</time>
      </trkpt>
      <trkpt lat="50.44496" lon="3.48171">
        <ele>39.070678710938</ele>
        <time>2010-03-07T10:10:36Z</time>
      </trkpt>
      <trkpt lat="50.44482" lon="3.48153">
        <ele>40.032104492188</ele>
        <time>2010-03-07T10:10:41Z</time>
      </trkpt>
      <trkpt lat="50.44471" lon="3.48137">
        <ele>36.66748046875</ele>
        <time>2010-03-07T10:10:45Z</time>
      </trkpt>
      <trkpt lat="50.44463" lon="3.48119">
        <ele>34.744873046875</ele>
        <time>2010-03-07T10:10:49Z</time>
      </trkpt>
      <trkpt lat="50.44447" lon="3.48102">
        <ele>36.66748046875</ele>
        <time>2010-03-07T10:10:54Z</time>
      </trkpt>
      <trkpt lat="50.44424" lon="3.48076">
        <ele>39.070678710938</ele>
        <time>2010-03-07T10:11:00Z</time>
      </trkpt>
      <trkpt lat="50.44402" lon="3.48049">
        <ele>40.512817382812</ele>
        <time>2010-03-07T10:11:05Z</time>
      </trkpt>
      <trkpt lat="50.44376" lon="3.48028">
        <ele>32.822265625</ele>
        <time>2010-03-07T10:11:11Z</time>
      </trkpt>
      <trkpt lat="50.44355" lon="3.48012">
        <ele>30.899536132812</ele>
        <time>2010-03-07T10:11:16Z</time>
      </trkpt>
      <trkpt lat="50.44323" lon="3.47994">
        <ele>30.899536132812</ele>
        <time>2010-03-07T10:11:23Z</time>
      </trkpt>
      <trkpt lat="50.443" lon="3.47987">
        <ele>28.976928710938</ele>
        <time>2010-03-07T10:11:28Z</time>
      </trkpt>
      <trkpt lat="50.44284" lon="3.47988">
        <ele>28.015502929688</ele>
        <time>2010-03-07T10:11:32Z</time>
      </trkpt>
      <trkpt lat="50.44275" lon="3.48006">
        <ele>29.938110351562</ele>
        <time>2010-03-07T10:11:36Z</time>
      </trkpt>
      <trkpt lat="50.44267" lon="3.48025">
        <ele>30.418823242188</ele>
        <time>2010-03-07T10:11:39Z</time>
      </trkpt>
      <trkpt lat="50.44254" lon="3.48055">
        <ele>30.899536132812</ele>
        <time>2010-03-07T10:11:44Z</time>
      </trkpt>
      <trkpt lat="50.44241" lon="3.48068">
        <ele>32.822265625</ele>
        <time>2010-03-07T10:11:48Z</time>
      </trkpt>
      <trkpt lat="50.44222" lon="3.4809">
        <ele>32.341552734375</ele>
        <time>2010-03-07T10:11:53Z</time>
      </trkpt>
      <trkpt lat="50.44213" lon="3.48117">
        <ele>27.054321289062</ele>
        <time>2010-03-07T10:11:57Z</time>
      </trkpt>
      <trkpt lat="50.44216" lon="3.48151">
        <ele>26.092895507812</ele>
        <time>2010-03-07T10:12:02Z</time>
      </trkpt>
      <trkpt lat="50.44215" lon="3.48178">
        <ele>26.092895507812</ele>
        <time>2010-03-07T10:12:06Z</time>
      </trkpt>
      <trkpt lat="50.44215" lon="3.48198">
        <ele>26.092895507812</ele>
        <time>2010-03-07T10:12:09Z</time>
      </trkpt>
      <trkpt lat="50.44209" lon="3.4822">
        <ele>25.131713867188</ele>
        <time>2010-03-07T10:12:12Z</time>
      </trkpt>
      <trkpt lat="50.44193" lon="3.48263">
        <ele>24.651000976562</ele>
        <time>2010-03-07T10:12:17Z</time>
      </trkpt>
      <trkpt lat="50.44186" lon="3.48303">
        <ele>27.054321289062</ele>
        <time>2010-03-07T10:12:23Z</time>
      </trkpt>
      <trkpt lat="50.4418" lon="3.4833">
        <ele>27.054321289062</ele>
        <time>2010-03-07T10:12:28Z</time>
      </trkpt>
      <trkpt lat="50.4418" lon="3.48332">
        <ele>28.015502929688</ele>
        <time>2010-03-07T10:12:29Z</time>
      </trkpt>
      <trkpt lat="50.44166" lon="3.48322">
        <ele>31.380126953125</ele>
        <time>2010-03-07T10:12:33Z</time>
      </trkpt>
      <trkpt lat="50.44147" lon="3.48304">
        <ele>32.341552734375</ele>
        <time>2010-03-07T10:12:38Z</time>
      </trkpt>
      <trkpt lat="50.4413" lon="3.48286">
        <ele>31.860717773438</ele>
        <time>2010-03-07T10:12:43Z</time>
      </trkpt>
      <trkpt lat="50.44115" lon="3.48267">
        <ele>32.341552734375</ele>
        <time>2010-03-07T10:12:48Z</time>
      </trkpt>
      <trkpt lat="50.44098" lon="3.4825">
        <ele>33.302856445312</ele>
        <time>2010-03-07T10:12:53Z</time>
      </trkpt>
      <trkpt lat="50.44083" lon="3.48243">
        <ele>31.860717773438</ele>
        <time>2010-03-07T10:12:57Z</time>
      </trkpt>
      <trkpt lat="50.44062" lon="3.48241">
        <ele>30.899536132812</ele>
        <time>2010-03-07T10:13:02Z</time>
      </trkpt>
      <trkpt lat="50.44055" lon="3.48247">
        <ele>30.899536132812</ele>
        <time>2010-03-07T10:13:04Z</time>
      </trkpt>
      <trkpt lat="50.44024" lon="3.48269">
        <ele>32.822265625</ele>
        <time>2010-03-07T10:13:12Z</time>
      </trkpt>
      <trkpt lat="50.44001" lon="3.48282">
        <ele>28.976928710938</ele>
        <time>2010-03-07T10:13:17Z</time>
      </trkpt>
      <trkpt lat="50.43986" lon="3.48289">
        <ele>28.976928710938</ele>
        <time>2010-03-07T10:13:21Z</time>
      </trkpt>
      <trkpt lat="50.43974" lon="3.48295">
        <ele>28.976928710938</ele>
        <time>2010-03-07T10:13:24Z</time>
      </trkpt>
      <trkpt lat="50.43951" lon="3.4829">
        <ele>27.054321289062</ele>
        <time>2010-03-07T10:13:29Z</time>
      </trkpt>
      <trkpt lat="50.43943" lon="3.48283">
        <ele>26.573608398438</ele>
        <time>2010-03-07T10:13:31Z</time>
      </trkpt>
      <trkpt lat="50.43916" lon="3.48248">
        <ele>27.534912109375</ele>
        <time>2010-03-07T10:13:38Z</time>
      </trkpt>
      <trkpt lat="50.43887" lon="3.48212">
        <ele>27.054321289062</ele>
        <time>2010-03-07T10:13:46Z</time>
      </trkpt>
      <trkpt lat="50.43861" lon="3.4818">
        <ele>26.092895507812</ele>
        <time>2010-03-07T10:13:53Z</time>
      </trkpt>
      <trkpt lat="50.43824" lon="3.48139">
        <ele>25.131713867188</ele>
        <time>2010-03-07T10:14:02Z</time>
      </trkpt>
      <trkpt lat="50.43805" lon="3.48133">
        <ele>27.054321289062</ele>
        <time>2010-03-07T10:14:07Z</time>
      </trkpt>
      <trkpt lat="50.43795" lon="3.48145">
        <ele>29.45751953125</ele>
        <time>2010-03-07T10:14:10Z</time>
      </trkpt>
      <trkpt lat="50.43777" lon="3.4816">
        <ele>29.45751953125</ele>
        <time>2010-03-07T10:14:15Z</time>
      </trkpt>
      <trkpt lat="50.43756" lon="3.48166">
        <ele>27.054321289062</ele>
        <time>2010-03-07T10:14:20Z</time>
      </trkpt>
      <trkpt lat="50.43738" lon="3.48174">
        <ele>29.938110351562</ele>
        <time>2010-03-07T10:14:25Z</time>
      </trkpt>
      <trkpt lat="50.43723" lon="3.48177">
        <ele>29.938110351562</ele>
        <time>2010-03-07T10:14:30Z</time>
      </trkpt>
      <trkpt lat="50.43707" lon="3.4817">
        <ele>28.976928710938</ele>
        <time>2010-03-07T10:14:35Z</time>
      </trkpt>
      <trkpt lat="50.43689" lon="3.48151">
        <ele>28.976928710938</ele>
        <time>2010-03-07T10:14:43Z</time>
      </trkpt>
      <trkpt lat="50.43673" lon="3.48125">
        <ele>31.380126953125</ele>
        <time>2010-03-07T10:14:49Z</time>
      </trkpt>
      <trkpt lat="50.43663" lon="3.48096">
        <ele>35.225463867188</ele>
        <time>2010-03-07T10:14:54Z</time>
      </trkpt>
      <trkpt lat="50.43656" lon="3.4807">
        <ele>36.186767578125</ele>
        <time>2010-03-07T10:15:00Z</time>
      </trkpt>
      <trkpt lat="50.43656" lon="3.4806">
        <ele>33.783447265625</ele>
        <time>2010-03-07T10:15:03Z</time>
      </trkpt>
      <trkpt lat="50.43648" lon="3.48033">
        <ele>29.938110351562</ele>
        <time>2010-03-07T10:15:09Z</time>
      </trkpt>
      <trkpt lat="50.43639" lon="3.47993">
        <ele>28.015502929688</ele>
        <time>2010-03-07T10:15:16Z</time>
      </trkpt>
      <trkpt lat="50.43627" lon="3.47949">
        <ele>24.170288085938</ele>
        <time>2010-03-07T10:15:24Z</time>
      </trkpt>
      <trkpt lat="50.43617" lon="3.47912">
        <ele>23.208984375</ele>
        <time>2010-03-07T10:15:31Z</time>
      </trkpt>
      <trkpt lat="50.43609" lon="3.47878">
        <ele>22.728271484375</ele>
        <time>2010-03-07T10:15:37Z</time>
      </trkpt>
      <trkpt lat="50.43597" lon="3.4784">
        <ele>24.170288085938</ele>
        <time>2010-03-07T10:15:44Z</time>
      </trkpt>
      <trkpt lat="50.43586" lon="3.47806">
        <ele>28.015502929688</ele>
        <time>2010-03-07T10:15:50Z</time>
      </trkpt>
      <trkpt lat="50.43576" lon="3.47771">
        <ele>28.976928710938</ele>
        <time>2010-03-07T10:15:56Z</time>
      </trkpt>
      <trkpt lat="50.43568" lon="3.47736">
        <ele>28.496215820312</ele>
        <time>2010-03-07T10:16:02Z</time>
      </trkpt>
      <trkpt lat="50.43559" lon="3.47699">
        <ele>28.976928710938</ele>
        <time>2010-03-07T10:16:08Z</time>
      </trkpt>
      <trkpt lat="50.43552" lon="3.47666">
        <ele>26.092895507812</ele>
        <time>2010-03-07T10:16:14Z</time>
      </trkpt>
      <trkpt lat="50.4354" lon="3.47621">
        <ele>26.092895507812</ele>
        <time>2010-03-07T10:16:22Z</time>
      </trkpt>
      <trkpt lat="50.43531" lon="3.47597">
        <ele>28.015502929688</ele>
        <time>2010-03-07T10:16:27Z</time>
      </trkpt>
      <trkpt lat="50.43525" lon="3.47579">
        <ele>28.976928710938</ele>
        <time>2010-03-07T10:16:31Z</time>
      </trkpt>
      <trkpt lat="50.43522" lon="3.47567">
        <ele>29.938110351562</ele>
        <time>2010-03-07T10:16:33Z</time>
      </trkpt>
      <trkpt lat="50.43512" lon="3.47531">
        <ele>31.380126953125</ele>
        <time>2010-03-07T10:16:39Z</time>
      </trkpt>
      <trkpt lat="50.43507" lon="3.47513">
        <ele>32.341552734375</ele>
        <time>2010-03-07T10:16:42Z</time>
      </trkpt>
      <trkpt lat="50.43497" lon="3.47485">
        <ele>33.302856445312</ele>
        <time>2010-03-07T10:16:48Z</time>
      </trkpt>
      <trkpt lat="50.43492" lon="3.47458">
        <ele>34.744873046875</ele>
        <time>2010-03-07T10:16:53Z</time>
      </trkpt>
      <trkpt lat="50.43485" lon="3.47429">
        <ele>33.302856445312</ele>
        <time>2010-03-07T10:16:58Z</time>
      </trkpt>
      <trkpt lat="50.43475" lon="3.47394">
        <ele>32.341552734375</ele>
        <time>2010-03-07T10:17:04Z</time>
      </trkpt>
      <trkpt lat="50.43466" lon="3.47359">
        <ele>32.822265625</ele>
        <time>2010-03-07T10:17:10Z</time>
      </trkpt>
      <trkpt lat="50.43457" lon="3.47327">
        <ele>32.341552734375</ele>
        <time>2010-03-07T10:17:16Z</time>
      </trkpt>
      <trkpt lat="50.43452" lon="3.47298">
        <ele>32.341552734375</ele>
        <time>2010-03-07T10:17:21Z</time>
      </trkpt>
      <trkpt lat="50.43446" lon="3.47272">
        <ele>33.783447265625</ele>
        <time>2010-03-07T10:17:26Z</time>
      </trkpt>
      <trkpt lat="50.43437" lon="3.47253">
        <ele>33.783447265625</ele>
        <time>2010-03-07T10:17:30Z</time>
      </trkpt>
      <trkpt lat="50.43431" lon="3.47227">
        <ele>32.822265625</ele>
        <time>2010-03-07T10:17:35Z</time>
      </trkpt>
      <trkpt lat="50.43427" lon="3.47209">
        <ele>32.341552734375</ele>
        <time>2010-03-07T10:17:40Z</time>
      </trkpt>
      <trkpt lat="50.43423" lon="3.47192">
        <ele>30.899536132812</ele>
        <time>2010-03-07T10:17:45Z</time>
      </trkpt>
      <trkpt lat="50.43418" lon="3.47169">
        <ele>28.976928710938</ele>
        <time>2010-03-07T10:17:51Z</time>
      </trkpt>
      <trkpt lat="50.4341" lon="3.47144">
        <ele>32.822265625</ele>
        <time>2010-03-07T10:17:56Z</time>
      </trkpt>
      <trkpt lat="50.43402" lon="3.47108">
        <ele>35.7060546875</ele>
        <time>2010-03-07T10:18:04Z</time>
      </trkpt>
      <trkpt lat="50.43393" lon="3.47079">
        <ele>33.302856445312</ele>
        <time>2010-03-07T10:18:11Z</time>
      </trkpt>
      <trkpt lat="50.43385" lon="3.4705">
        <ele>33.783447265625</ele>
        <time>2010-03-07T10:18:17Z</time>
      </trkpt>
      <trkpt lat="50.43375" lon="3.47017">
        <ele>35.7060546875</ele>
        <time>2010-03-07T10:18:23Z</time>
      </trkpt>
      <trkpt lat="50.43362" lon="3.46973">
        <ele>35.7060546875</ele>
        <time>2010-03-07T10:18:31Z</time>
      </trkpt>
      <trkpt lat="50.43353" lon="3.46942">
        <ele>35.7060546875</ele>
        <time>2010-03-07T10:18:37Z</time>
      </trkpt>
      <trkpt lat="50.43348" lon="3.46917">
        <ele>35.225463867188</ele>
        <time>2010-03-07T10:18:42Z</time>
      </trkpt>
      <trkpt lat="50.43344" lon="3.46881">
        <ele>34.744873046875</ele>
        <time>2010-03-07T10:18:48Z</time>
      </trkpt>
      <trkpt lat="50.4334" lon="3.46854">
        <ele>32.822265625</ele>
        <time>2010-03-07T10:18:54Z</time>
      </trkpt>
      <trkpt lat="50.43332" lon="3.46821">
        <ele>33.783447265625</ele>
        <time>2010-03-07T10:19:00Z</time>
      </trkpt>
      <trkpt lat="50.43328" lon="3.46794">
        <ele>31.860717773438</ele>
        <time>2010-03-07T10:19:05Z</time>
      </trkpt>
      <trkpt lat="50.43324" lon="3.46767">
        <ele>30.899536132812</ele>
        <time>2010-03-07T10:19:10Z</time>
      </trkpt>
      <trkpt lat="50.43321" lon="3.46742">
        <ele>27.534912109375</ele>
        <time>2010-03-07T10:19:15Z</time>
      </trkpt>
      <trkpt lat="50.43319" lon="3.46721">
        <ele>27.054321289062</ele>
        <time>2010-03-07T10:19:20Z</time>
      </trkpt>
      <trkpt lat="50.43331" lon="3.46695">
        <ele>26.573608398438</ele>
        <time>2010-03-07T10:19:27Z</time>
      </trkpt>
      <trkpt lat="50.4334" lon="3.46668">
        <ele>24.170288085938</ele>
        <time>2010-03-07T10:19:33Z</time>
      </trkpt>
      <trkpt lat="50.43355" lon="3.46635">
        <ele>24.170288085938</ele>
        <time>2010-03-07T10:19:39Z</time>
      </trkpt>
      <trkpt lat="50.43369" lon="3.46607">
        <ele>23.689575195312</ele>
        <time>2010-03-07T10:19:45Z</time>
      </trkpt>
      <trkpt lat="50.4338" lon="3.46592">
        <ele>24.651000976562</ele>
        <time>2010-03-07T10:19:50Z</time>
      </trkpt>
      <trkpt lat="50.43398" lon="3.46585">
        <ele>26.573608398438</ele>
        <time>2010-03-07T10:19:55Z</time>
      </trkpt>
      <trkpt lat="50.43425" lon="3.46586">
        <ele>28.976928710938</ele>
        <time>2010-03-07T10:20:02Z</time>
      </trkpt>
      <trkpt lat="50.43447" lon="3.46584">
        <ele>37.148071289062</ele>
        <time>2010-03-07T10:20:08Z</time>
      </trkpt>
      <trkpt lat="50.43464" lon="3.46586">
        <ele>36.186767578125</ele>
        <time>2010-03-07T10:20:13Z</time>
      </trkpt>
      <trkpt lat="50.43482" lon="3.46576">
        <ele>33.783447265625</ele>
        <time>2010-03-07T10:20:19Z</time>
      </trkpt>
      <trkpt lat="50.43501" lon="3.46552">
        <ele>29.938110351562</ele>
        <time>2010-03-07T10:20:27Z</time>
      </trkpt>
      <trkpt lat="50.43514" lon="3.46518">
        <ele>28.496215820312</ele>
        <time>2010-03-07T10:20:35Z</time>
      </trkpt>
      <trkpt lat="50.43522" lon="3.46499">
        <ele>29.45751953125</ele>
        <time>2010-03-07T10:20:40Z</time>
      </trkpt>
      <trkpt lat="50.43526" lon="3.46484">
        <ele>31.860717773438</ele>
        <time>2010-03-07T10:20:44Z</time>
      </trkpt>
      <trkpt lat="50.43526" lon="3.46479">
        <ele>32.341552734375</ele>
        <time>2010-03-07T10:20:46Z</time>
      </trkpt>
      <trkpt lat="50.43519" lon="3.46458">
        <ele>34.744873046875</ele>
        <time>2010-03-07T10:20:52Z</time>
      </trkpt>
      <trkpt lat="50.43513" lon="3.46458">
        <ele>37.148071289062</ele>
        <time>2010-03-07T10:20:55Z</time>
      </trkpt>
      <trkpt lat="50.43507" lon="3.46465">
        <ele>38.590087890625</ele>
        <time>2010-03-07T10:21:00Z</time>
      </trkpt>
      <trkpt lat="50.43497" lon="3.4647">
        <ele>40.032104492188</ele>
        <time>2010-03-07T10:21:05Z</time>
      </trkpt>
      <trkpt lat="50.43494" lon="3.46474">
        <ele>41.954711914062</ele>
        <time>2010-03-07T10:21:07Z</time>
      </trkpt>
      <trkpt lat="50.43489" lon="3.46484">
        <ele>42.435424804688</ele>
        <time>2010-03-07T10:21:16Z</time>
      </trkpt>
      <trkpt lat="50.43488" lon="3.46485">
        <ele>41.954711914062</ele>
        <time>2010-03-07T10:21:17Z</time>
      </trkpt>
      <trkpt lat="50.43486" lon="3.46487">
        <ele>42.435424804688</ele>
        <time>2010-03-07T10:21:19Z</time>
      </trkpt>
      <trkpt lat="50.43486" lon="3.46487">
        <ele>42.435424804688</ele>
        <time>2010-03-07T10:21:22Z</time>
      </trkpt>
      <trkpt lat="50.43487" lon="3.46492">
        <ele>40.993408203125</ele>
        <time>2010-03-07T10:21:24Z</time>
      </trkpt>
      <trkpt lat="50.43491" lon="3.46505">
        <ele>37.628662109375</ele>
        <time>2010-03-07T10:21:29Z</time>
      </trkpt>
      <trkpt lat="50.43489" lon="3.46509">
        <ele>37.148071289062</ele>
        <time>2010-03-07T10:21:33Z</time>
      </trkpt>
      <trkpt lat="50.43481" lon="3.46514">
        <ele>35.7060546875</ele>
        <time>2010-03-07T10:21:38Z</time>
      </trkpt>
      <trkpt lat="50.4348" lon="3.46513">
        <ele>36.66748046875</ele>
        <time>2010-03-07T10:21:39Z</time>
      </trkpt>
      <trkpt lat="50.43477" lon="3.4651">
        <ele>39.070678710938</ele>
        <time>2010-03-07T10:21:48Z</time>
      </trkpt>
      <trkpt lat="50.43476" lon="3.46509">
        <ele>39.070678710938</ele>
        <time>2010-03-07T10:21:49Z</time>
      </trkpt>
      <trkpt lat="50.43476" lon="3.46508">
        <ele>39.55126953125</ele>
        <time>2010-03-07T10:21:51Z</time>
      </trkpt>
      <trkpt lat="50.43474" lon="3.46503">
        <ele>38.590087890625</ele>
        <time>2010-03-07T10:22:02Z</time>
      </trkpt>
      <trkpt lat="50.43465" lon="3.46508">
        <ele>40.032104492188</ele>
        <time>2010-03-07T10:22:05Z</time>
      </trkpt>
      <trkpt lat="50.43456" lon="3.46523">
        <ele>43.396606445312</ele>
        <time>2010-03-07T10:22:09Z</time>
      </trkpt>
      <trkpt lat="50.43453" lon="3.46525">
        <ele>44.358032226562</ele>
        <time>2010-03-07T10:22:10Z</time>
      </trkpt>
      <trkpt lat="50.4344" lon="3.46529">
        <ele>41.954711914062</ele>
        <time>2010-03-07T10:22:14Z</time>
      </trkpt>
      <trkpt lat="50.43426" lon="3.46524">
        <ele>39.070678710938</ele>
        <time>2010-03-07T10:22:18Z</time>
      </trkpt>
      <trkpt lat="50.43411" lon="3.46507">
        <ele>39.55126953125</ele>
        <time>2010-03-07T10:22:22Z</time>
      </trkpt>
      <trkpt lat="50.43402" lon="3.46485">
        <ele>38.590087890625</ele>
        <time>2010-03-07T10:22:26Z</time>
      </trkpt>
      <trkpt lat="50.43392" lon="3.46456">
        <ele>40.032104492188</ele>
        <time>2010-03-07T10:22:31Z</time>
      </trkpt>
      <trkpt lat="50.43383" lon="3.46431">
        <ele>40.512817382812</ele>
        <time>2010-03-07T10:22:35Z</time>
      </trkpt>
      <trkpt lat="50.43374" lon="3.46406">
        <ele>40.993408203125</ele>
        <time>2010-03-07T10:22:40Z</time>
      </trkpt>
      <trkpt lat="50.43365" lon="3.46382">
        <ele>40.993408203125</ele>
        <time>2010-03-07T10:22:45Z</time>
      </trkpt>
      <trkpt lat="50.43356" lon="3.46355">
        <ele>39.55126953125</ele>
        <time>2010-03-07T10:22:51Z</time>
      </trkpt>
      <trkpt lat="50.43343" lon="3.46323">
        <ele>40.032104492188</ele>
        <time>2010-03-07T10:22:57Z</time>
      </trkpt>
      <trkpt lat="50.43337" lon="3.46295">
        <ele>39.070678710938</ele>
        <time>2010-03-07T10:23:02Z</time>
      </trkpt>
      <trkpt lat="50.43341" lon="3.46277">
        <ele>35.7060546875</ele>
        <time>2010-03-07T10:23:07Z</time>
      </trkpt>
      <trkpt lat="50.43344" lon="3.46261">
        <ele>36.186767578125</ele>
        <time>2010-03-07T10:23:13Z</time>
      </trkpt>
      <trkpt lat="50.43346" lon="3.46259">
        <ele>35.7060546875</ele>
        <time>2010-03-07T10:23:15Z</time>
      </trkpt>
      <trkpt lat="50.43354" lon="3.46247">
        <ele>32.341552734375</ele>
        <time>2010-03-07T10:23:20Z</time>
      </trkpt>
      <trkpt lat="50.43355" lon="3.46242">
        <ele>31.860717773438</ele>
        <time>2010-03-07T10:23:21Z</time>
      </trkpt>
      <trkpt lat="50.4337" lon="3.46224">
        <ele>30.899536132812</ele>
        <time>2010-03-07T10:23:28Z</time>
      </trkpt>
      <trkpt lat="50.43374" lon="3.46222">
        <ele>30.899536132812</ele>
        <time>2010-03-07T10:23:30Z</time>
      </trkpt>
      <trkpt lat="50.43378" lon="3.46218">
        <ele>31.860717773438</ele>
        <time>2010-03-07T10:23:32Z</time>
      </trkpt>
      <trkpt lat="50.43383" lon="3.46212">
        <ele>33.302856445312</ele>
        <time>2010-03-07T10:23:36Z</time>
      </trkpt>
      <trkpt lat="50.43383" lon="3.46211">
        <ele>34.26416015625</ele>
        <time>2010-03-07T10:23:39Z</time>
      </trkpt>
      <trkpt lat="50.43385" lon="3.46208">
        <ele>35.225463867188</ele>
        <time>2010-03-07T10:23:40Z</time>
      </trkpt>
      <trkpt lat="50.43385" lon="3.46206">
        <ele>36.66748046875</ele>
        <time>2010-03-07T10:23:41Z</time>
      </trkpt>
      <trkpt lat="50.43385" lon="3.46205">
        <ele>37.148071289062</ele>
        <time>2010-03-07T10:23:44Z</time>
      </trkpt>
      <trkpt lat="50.43388" lon="3.46198">
        <ele>35.7060546875</ele>
        <time>2010-03-07T10:23:45Z</time>
      </trkpt>
      <trkpt lat="50.43388" lon="3.46191">
        <ele>37.628662109375</ele>
        <time>2010-03-07T10:23:50Z</time>
      </trkpt>
      <trkpt lat="50.43388" lon="3.4619">
        <ele>38.590087890625</ele>
        <time>2010-03-07T10:23:53Z</time>
      </trkpt>
      <trkpt lat="50.43387" lon="3.46185">
        <ele>40.032104492188</ele>
        <time>2010-03-07T10:23:54Z</time>
      </trkpt>
      <trkpt lat="50.43387" lon="3.46183">
        <ele>39.55126953125</ele>
        <time>2010-03-07T10:23:57Z</time>
      </trkpt>
      <trkpt lat="50.43385" lon="3.46181">
        <ele>39.55126953125</ele>
        <time>2010-03-07T10:23:58Z</time>
      </trkpt>
      <trkpt lat="50.43383" lon="3.46176">
        <ele>40.512817382812</ele>
        <time>2010-03-07T10:24:00Z</time>
      </trkpt>
      <trkpt lat="50.43383" lon="3.46173">
        <ele>40.512817382812</ele>
        <time>2010-03-07T10:24:04Z</time>
      </trkpt>
      <trkpt lat="50.43383" lon="3.46172">
        <ele>41.473999023438</ele>
        <time>2010-03-07T10:24:05Z</time>
      </trkpt>
      <trkpt lat="50.43379" lon="3.46157">
        <ele>42.435424804688</ele>
        <time>2010-03-07T10:24:12Z</time>
      </trkpt>
      <trkpt lat="50.43375" lon="3.46149">
        <ele>40.993408203125</ele>
        <time>2010-03-07T10:24:14Z</time>
      </trkpt>
      <trkpt lat="50.4336" lon="3.46136">
        <ele>36.66748046875</ele>
        <time>2010-03-07T10:24:18Z</time>
      </trkpt>
      <trkpt lat="50.43333" lon="3.46109">
        <ele>34.744873046875</ele>
        <time>2010-03-07T10:24:23Z</time>
      </trkpt>
      <trkpt lat="50.43325" lon="3.46097">
        <ele>34.744873046875</ele>
        <time>2010-03-07T10:24:25Z</time>
      </trkpt>
      <trkpt lat="50.43315" lon="3.46071">
        <ele>37.628662109375</ele>
        <time>2010-03-07T10:24:28Z</time>
      </trkpt>
      <trkpt lat="50.43298" lon="3.46023">
        <ele>38.590087890625</ele>
        <time>2010-03-07T10:24:34Z</time>
      </trkpt>
      <trkpt lat="50.43285" lon="3.45987">
        <ele>36.186767578125</ele>
        <time>2010-03-07T10:24:39Z</time>
      </trkpt>
      <trkpt lat="50.43281" lon="3.45983">
        <ele>34.26416015625</ele>
        <time>2010-03-07T10:24:41Z</time>
      </trkpt>
      <trkpt lat="50.4327" lon="3.46007">
        <ele>35.225463867188</ele>
        <time>2010-03-07T10:24:46Z</time>
      </trkpt>
      <trkpt lat="50.43261" lon="3.46015">
        <ele>35.225463867188</ele>
        <time>2010-03-07T10:24:49Z</time>
      </trkpt>
      <trkpt lat="50.43243" lon="3.46024">
        <ele>33.783447265625</ele>
        <time>2010-03-07T10:24:54Z</time>
      </trkpt>
      <trkpt lat="50.43238" lon="3.46023">
        <ele>33.783447265625</ele>
        <time>2010-03-07T10:24:56Z</time>
      </trkpt>
      <trkpt lat="50.43234" lon="3.46019">
        <ele>36.66748046875</ele>
        <time>2010-03-07T10:25:00Z</time>
      </trkpt>
      <trkpt lat="50.43233" lon="3.46018">
        <ele>36.66748046875</ele>
        <time>2010-03-07T10:25:03Z</time>
      </trkpt>
      <trkpt lat="50.43232" lon="3.46017">
        <ele>38.590087890625</ele>
        <time>2010-03-07T10:25:04Z</time>
      </trkpt>
      <trkpt lat="50.43232" lon="3.46017">
        <ele>41.954711914062</ele>
        <time>2010-03-07T10:25:05Z</time>
      </trkpt>
      <trkpt lat="50.43232" lon="3.46017">
        <ele>41.954711914062</ele>
        <time>2010-03-07T10:25:08Z</time>
      </trkpt>
      <trkpt lat="50.43231" lon="3.46017">
        <ele>41.473999023438</ele>
        <time>2010-03-07T10:25:09Z</time>
      </trkpt>
      <trkpt lat="50.43231" lon="3.46018">
        <ele>41.473999023438</ele>
        <time>2010-03-07T10:25:10Z</time>
      </trkpt>
      <trkpt lat="50.43228" lon="3.46015">
        <ele>36.66748046875</ele>
        <time>2010-03-07T10:25:13Z</time>
      </trkpt>
      <trkpt lat="50.43219" lon="3.45982">
        <ele>40.032104492188</ele>
        <time>2010-03-07T10:25:19Z</time>
      </trkpt>
      <trkpt lat="50.43209" lon="3.45954">
        <ele>39.55126953125</ele>
        <time>2010-03-07T10:25:23Z</time>
      </trkpt>
      <trkpt lat="50.43201" lon="3.45892">
        <ele>36.186767578125</ele>
        <time>2010-03-07T10:25:31Z</time>
      </trkpt>
      <trkpt lat="50.43198" lon="3.45879">
        <ele>35.7060546875</ele>
        <time>2010-03-07T10:25:33Z</time>
      </trkpt>
      <trkpt lat="50.43195" lon="3.45856">
        <ele>32.822265625</ele>
        <time>2010-03-07T10:25:36Z</time>
      </trkpt>
      <trkpt lat="50.43191" lon="3.45824">
        <ele>30.418823242188</ele>
        <time>2010-03-07T10:25:40Z</time>
      </trkpt>
      <trkpt lat="50.43187" lon="3.45778">
        <ele>28.976928710938</ele>
        <time>2010-03-07T10:25:46Z</time>
      </trkpt>
      <trkpt lat="50.43182" lon="3.45744">
        <ele>30.899536132812</ele>
        <time>2010-03-07T10:25:51Z</time>
      </trkpt>
      <trkpt lat="50.43177" lon="3.45708">
        <ele>34.26416015625</ele>
        <time>2010-03-07T10:25:56Z</time>
      </trkpt>
      <trkpt lat="50.43168" lon="3.45666">
        <ele>36.66748046875</ele>
        <time>2010-03-07T10:26:03Z</time>
      </trkpt>
      <trkpt lat="50.43164" lon="3.45636">
        <ele>35.7060546875</ele>
        <time>2010-03-07T10:26:08Z</time>
      </trkpt>
      <trkpt lat="50.43156" lon="3.45597">
        <ele>34.26416015625</ele>
        <time>2010-03-07T10:26:14Z</time>
      </trkpt>
      <trkpt lat="50.43153" lon="3.45577">
        <ele>35.7060546875</ele>
        <time>2010-03-07T10:26:17Z</time>
      </trkpt>
      <trkpt lat="50.43148" lon="3.4556">
        <ele>36.66748046875</ele>
        <time>2010-03-07T10:26:20Z</time>
      </trkpt>
      <trkpt lat="50.43141" lon="3.45519">
        <ele>35.7060546875</ele>
        <time>2010-03-07T10:26:26Z</time>
      </trkpt>
      <trkpt lat="50.43133" lon="3.45486">
        <ele>35.7060546875</ele>
        <time>2010-03-07T10:26:31Z</time>
      </trkpt>
      <trkpt lat="50.43128" lon="3.45452">
        <ele>33.783447265625</ele>
        <time>2010-03-07T10:26:37Z</time>
      </trkpt>
      <trkpt lat="50.43124" lon="3.45422">
        <ele>31.860717773438</ele>
        <time>2010-03-07T10:26:42Z</time>
      </trkpt>
      <trkpt lat="50.43116" lon="3.45394">
        <ele>31.380126953125</ele>
        <time>2010-03-07T10:26:47Z</time>
      </trkpt>
      <trkpt lat="50.43112" lon="3.45381">
        <ele>31.380126953125</ele>
        <time>2010-03-07T10:26:49Z</time>
      </trkpt>
      <trkpt lat="50.43099" lon="3.45322">
        <ele>34.744873046875</ele>
        <time>2010-03-07T10:26:57Z</time>
      </trkpt>
      <trkpt lat="50.43084" lon="3.45277">
        <ele>34.26416015625</ele>
        <time>2010-03-07T10:27:04Z</time>
      </trkpt>
      <trkpt lat="50.43071" lon="3.45236">
        <ele>33.783447265625</ele>
        <time>2010-03-07T10:27:11Z</time>
      </trkpt>
      <trkpt lat="50.43061" lon="3.45212">
        <ele>32.822265625</ele>
        <time>2010-03-07T10:27:15Z</time>
      </trkpt>
      <trkpt lat="50.43052" lon="3.45191">
        <ele>32.341552734375</ele>
        <time>2010-03-07T10:27:19Z</time>
      </trkpt>
      <trkpt lat="50.43031" lon="3.45148">
        <ele>34.744873046875</ele>
        <time>2010-03-07T10:27:27Z</time>
      </trkpt>
      <trkpt lat="50.43022" lon="3.45123">
        <ele>33.783447265625</ele>
        <time>2010-03-07T10:27:32Z</time>
      </trkpt>
      <trkpt lat="50.4301" lon="3.45096">
        <ele>34.744873046875</ele>
        <time>2010-03-07T10:27:37Z</time>
      </trkpt>
      <trkpt lat="50.42999" lon="3.45069">
        <ele>34.26416015625</ele>
        <time>2010-03-07T10:27:42Z</time>
      </trkpt>
      <trkpt lat="50.42978" lon="3.45026">
        <ele>37.148071289062</ele>
        <time>2010-03-07T10:27:49Z</time>
      </trkpt>
      <trkpt lat="50.42969" lon="3.45007">
        <ele>39.55126953125</ele>
        <time>2010-03-07T10:27:52Z</time>
      </trkpt>
      <trkpt lat="50.42965" lon="3.44994">
        <ele>40.032104492188</ele>
        <time>2010-03-07T10:27:54Z</time>
      </trkpt>
      <trkpt lat="50.42951" lon="3.44968">
        <ele>40.032104492188</ele>
        <time>2010-03-07T10:27:59Z</time>
      </trkpt>
      <trkpt lat="50.42949" lon="3.44962">
        <ele>40.512817382812</ele>
        <time>2010-03-07T10:28:00Z</time>
      </trkpt>
      <trkpt lat="50.42941" lon="3.44945">
        <ele>39.070678710938</ele>
        <time>2010-03-07T10:28:04Z</time>
      </trkpt>
      <trkpt lat="50.42928" lon="3.4495">
        <ele>36.66748046875</ele>
        <time>2010-03-07T10:28:09Z</time>
      </trkpt>
      <trkpt lat="50.4291" lon="3.44959">
        <ele>37.148071289062</ele>
        <time>2010-03-07T10:28:15Z</time>
      </trkpt>
      <trkpt lat="50.42891" lon="3.4497">
        <ele>34.26416015625</ele>
        <time>2010-03-07T10:28:20Z</time>
      </trkpt>
      <trkpt lat="50.42869" lon="3.44981">
        <ele>31.380126953125</ele>
        <time>2010-03-07T10:28:26Z</time>
      </trkpt>
      <trkpt lat="50.42848" lon="3.44991">
        <ele>28.976928710938</ele>
        <time>2010-03-07T10:28:32Z</time>
      </trkpt>
      <trkpt lat="50.42833" lon="3.45">
        <ele>30.899536132812</ele>
        <time>2010-03-07T10:28:37Z</time>
      </trkpt>
      <trkpt lat="50.42831" lon="3.45">
        <ele>31.380126953125</ele>
        <time>2010-03-07T10:28:38Z</time>
      </trkpt>
      <trkpt lat="50.42826" lon="3.45009">
        <ele>32.341552734375</ele>
        <time>2010-03-07T10:28:42Z</time>
      </trkpt>
      <trkpt lat="50.42825" lon="3.45014">
        <ele>31.860717773438</ele>
        <time>2010-03-07T10:28:45Z</time>
      </trkpt>
      <trkpt lat="50.42822" lon="3.45018">
        <ele>32.341552734375</ele>
        <time>2010-03-07T10:28:48Z</time>
      </trkpt>
      <trkpt lat="50.42821" lon="3.45024">
        <ele>33.783447265625</ele>
        <time>2010-03-07T10:28:50Z</time>
      </trkpt>
      <trkpt lat="50.42819" lon="3.45031">
        <ele>36.186767578125</ele>
        <time>2010-03-07T10:28:56Z</time>
      </trkpt>
      <trkpt lat="50.42818" lon="3.45032">
        <ele>34.744873046875</ele>
        <time>2010-03-07T10:28:58Z</time>
      </trkpt>
      <trkpt lat="50.42817" lon="3.45034">
        <ele>34.26416015625</ele>
        <time>2010-03-07T10:29:01Z</time>
      </trkpt>
      <trkpt lat="50.42817" lon="3.45036">
        <ele>33.783447265625</ele>
        <time>2010-03-07T10:29:02Z</time>
      </trkpt>
      <trkpt lat="50.42817" lon="3.45039">
        <ele>32.822265625</ele>
        <time>2010-03-07T10:29:03Z</time>
      </trkpt>
      <trkpt lat="50.42809" lon="3.45053">
        <ele>32.822265625</ele>
        <time>2010-03-07T10:29:08Z</time>
      </trkpt>
      <trkpt lat="50.42796" lon="3.45075">
        <ele>33.302856445312</ele>
        <time>2010-03-07T10:29:14Z</time>
      </trkpt>
      <trkpt lat="50.42782" lon="3.45106">
        <ele>34.26416015625</ele>
        <time>2010-03-07T10:29:21Z</time>
      </trkpt>
      <trkpt lat="50.42773" lon="3.45127">
        <ele>36.66748046875</ele>
        <time>2010-03-07T10:29:26Z</time>
      </trkpt>
      <trkpt lat="50.42763" lon="3.4515">
        <ele>38.590087890625</ele>
        <time>2010-03-07T10:29:31Z</time>
      </trkpt>
      <trkpt lat="50.42753" lon="3.45176">
        <ele>41.954711914062</ele>
        <time>2010-03-07T10:29:36Z</time>
      </trkpt>
      <trkpt lat="50.42745" lon="3.45194">
        <ele>42.916015625</ele>
        <time>2010-03-07T10:29:40Z</time>
      </trkpt>
      <trkpt lat="50.42735" lon="3.45224">
        <ele>44.838623046875</ele>
        <time>2010-03-07T10:29:46Z</time>
      </trkpt>
      <trkpt lat="50.4273" lon="3.45239">
        <ele>43.877319335938</ele>
        <time>2010-03-07T10:29:50Z</time>
      </trkpt>
      <trkpt lat="50.4273" lon="3.45248">
        <ele>45.799926757812</ele>
        <time>2010-03-07T10:29:53Z</time>
      </trkpt>
      <trkpt lat="50.42719" lon="3.45271">
        <ele>46.76123046875</ele>
        <time>2010-03-07T10:29:59Z</time>
      </trkpt>
      <trkpt lat="50.42709" lon="3.45295">
        <ele>46.76123046875</ele>
        <time>2010-03-07T10:30:05Z</time>
      </trkpt>
      <trkpt lat="50.42699" lon="3.4532">
        <ele>46.76123046875</ele>
        <time>2010-03-07T10:30:11Z</time>
      </trkpt>
      <trkpt lat="50.42689" lon="3.45348">
        <ele>47.722534179688</ele>
        <time>2010-03-07T10:30:16Z</time>
      </trkpt>
      <trkpt lat="50.42678" lon="3.45375">
        <ele>48.683959960938</ele>
        <time>2010-03-07T10:30:21Z</time>
      </trkpt>
      <trkpt lat="50.42669" lon="3.45395">
        <ele>48.203369140625</ele>
        <time>2010-03-07T10:30:24Z</time>
      </trkpt>
      <trkpt lat="50.42655" lon="3.45426">
        <ele>46.280639648438</ele>
        <time>2010-03-07T10:30:28Z</time>
      </trkpt>
      <trkpt lat="50.42638" lon="3.45463">
        <ele>44.838623046875</ele>
        <time>2010-03-07T10:30:33Z</time>
      </trkpt>
      <trkpt lat="50.42625" lon="3.45488">
        <ele>42.435424804688</ele>
        <time>2010-03-07T10:30:37Z</time>
      </trkpt>
      <trkpt lat="50.42613" lon="3.45517">
        <ele>39.55126953125</ele>
        <time>2010-03-07T10:30:42Z</time>
      </trkpt>
      <trkpt lat="50.4261" lon="3.45523">
        <ele>39.55126953125</ele>
        <time>2010-03-07T10:30:43Z</time>
      </trkpt>
      <trkpt lat="50.42599" lon="3.45549">
        <ele>40.032104492188</ele>
        <time>2010-03-07T10:30:48Z</time>
      </trkpt>
      <trkpt lat="50.42594" lon="3.45565">
        <ele>40.032104492188</ele>
        <time>2010-03-07T10:30:51Z</time>
      </trkpt>
      <trkpt lat="50.42586" lon="3.45591">
        <ele>41.473999023438</ele>
        <time>2010-03-07T10:30:57Z</time>
      </trkpt>
      <trkpt lat="50.42578" lon="3.45613">
        <ele>41.954711914062</ele>
        <time>2010-03-07T10:31:01Z</time>
      </trkpt>
      <trkpt lat="50.42562" lon="3.45654">
        <ele>43.877319335938</ele>
        <time>2010-03-07T10:31:08Z</time>
      </trkpt>
      <trkpt lat="50.42557" lon="3.45667">
        <ele>43.396606445312</ele>
        <time>2010-03-07T10:31:10Z</time>
      </trkpt>
      <trkpt lat="50.42539" lon="3.45712">
        <ele>45.799926757812</ele>
        <time>2010-03-07T10:31:17Z</time>
      </trkpt>
      <trkpt lat="50.42525" lon="3.45742">
        <ele>46.76123046875</ele>
        <time>2010-03-07T10:31:22Z</time>
      </trkpt>
      <trkpt lat="50.42514" lon="3.45766">
        <ele>44.838623046875</ele>
        <time>2010-03-07T10:31:27Z</time>
      </trkpt>
      <trkpt lat="50.42506" lon="3.45788">
        <ele>43.877319335938</ele>
        <time>2010-03-07T10:31:32Z</time>
      </trkpt>
      <trkpt lat="50.42497" lon="3.45814">
        <ele>46.280639648438</ele>
        <time>2010-03-07T10:31:38Z</time>
      </trkpt>
      <trkpt lat="50.42491" lon="3.45832">
        <ele>48.683959960938</ele>
        <time>2010-03-07T10:31:42Z</time>
      </trkpt>
      <trkpt lat="50.42485" lon="3.45851">
        <ele>53.009765625</ele>
        <time>2010-03-07T10:31:47Z</time>
      </trkpt>
      <trkpt lat="50.42477" lon="3.45868">
        <ele>50.606567382812</ele>
        <time>2010-03-07T10:31:53Z</time>
      </trkpt>
      <trkpt lat="50.42474" lon="3.45873">
        <ele>51.087158203125</ele>
        <time>2010-03-07T10:31:58Z</time>
      </trkpt>
      <trkpt lat="50.42471" lon="3.45865">
        <ele>52.529174804688</ele>
        <time>2010-03-07T10:33:20Z</time>
      </trkpt>
      <trkpt lat="50.42469" lon="3.45863">
        <ele>51.56787109375</ele>
        <time>2010-03-07T10:33:22Z</time>
      </trkpt>
      <trkpt lat="50.42473" lon="3.45853">
        <ele>39.070678710938</ele>
        <time>2010-03-07T10:35:06Z</time>
      </trkpt>
      <trkpt lat="50.42472" lon="3.45855">
        <ele>40.993408203125</ele>
        <time>2010-03-07T10:35:07Z</time>
      </trkpt>
      <trkpt lat="50.42469" lon="3.45862">
        <ele>42.435424804688</ele>
        <time>2010-03-07T10:35:10Z</time>
      </trkpt>
      <trkpt lat="50.42465" lon="3.45864">
        <ele>43.396606445312</ele>
        <time>2010-03-07T10:35:20Z</time>
      </trkpt>
      <trkpt lat="50.42463" lon="3.45865">
        <ele>43.396606445312</ele>
        <time>2010-03-07T10:35:21Z</time>
      </trkpt>
      <trkpt lat="50.42455" lon="3.45882">
        <ele>46.280639648438</ele>
        <time>2010-03-07T10:35:26Z</time>
      </trkpt>
      <trkpt lat="50.42444" lon="3.45916">
        <ele>51.087158203125</ele>
        <time>2010-03-07T10:35:34Z</time>
      </trkpt>
      <trkpt lat="50.42437" lon="3.45938">
        <ele>55.4130859375</ele>
        <time>2010-03-07T10:35:40Z</time>
      </trkpt>
      <trkpt lat="50.42428" lon="3.4596">
        <ele>56.37451171875</ele>
        <time>2010-03-07T10:35:47Z</time>
      </trkpt>
      <trkpt lat="50.42422" lon="3.45979">
        <ele>57.335815429688</ele>
        <time>2010-03-07T10:35:53Z</time>
      </trkpt>
      <trkpt lat="50.42413" lon="3.45999">
        <ele>56.855102539062</ele>
        <time>2010-03-07T10:35:59Z</time>
      </trkpt>
      <trkpt lat="50.42416" lon="3.46008">
        <ele>54.451782226562</ele>
        <time>2010-03-07T10:36:04Z</time>
      </trkpt>
      <trkpt lat="50.42424" lon="3.46008">
        <ele>51.56787109375</ele>
        <time>2010-03-07T10:36:08Z</time>
      </trkpt>
      <trkpt lat="50.42426" lon="3.46006">
        <ele>50.606567382812</ele>
        <time>2010-03-07T10:36:09Z</time>
      </trkpt>
      <trkpt lat="50.42433" lon="3.45999">
        <ele>48.683959960938</ele>
        <time>2010-03-07T10:36:11Z</time>
      </trkpt>
      <trkpt lat="50.42452" lon="3.45981">
        <ele>42.916015625</ele>
        <time>2010-03-07T10:36:15Z</time>
      </trkpt>
      <trkpt lat="50.42462" lon="3.45971">
        <ele>39.55126953125</ele>
        <time>2010-03-07T10:36:17Z</time>
      </trkpt>
      <trkpt lat="50.42482" lon="3.45974">
        <ele>32.822265625</ele>
        <time>2010-03-07T10:36:22Z</time>
      </trkpt>
      <trkpt lat="50.42496" lon="3.45985">
        <ele>30.418823242188</ele>
        <time>2010-03-07T10:36:25Z</time>
      </trkpt>
      <trkpt lat="50.42506" lon="3.45989">
        <ele>30.418823242188</ele>
        <time>2010-03-07T10:36:27Z</time>
      </trkpt>
      <trkpt lat="50.42531" lon="3.46001">
        <ele>28.015502929688</ele>
        <time>2010-03-07T10:36:31Z</time>
      </trkpt>
      <trkpt lat="50.4256" lon="3.46002">
        <ele>25.131713867188</ele>
        <time>2010-03-07T10:36:36Z</time>
      </trkpt>
      <trkpt lat="50.42566" lon="3.46003">
        <ele>24.170288085938</ele>
        <time>2010-03-07T10:36:37Z</time>
      </trkpt>
      <trkpt lat="50.42579" lon="3.46006">
        <ele>23.208984375</ele>
        <time>2010-03-07T10:36:39Z</time>
      </trkpt>
      <trkpt lat="50.42602" lon="3.4601">
        <ele>23.208984375</ele>
        <time>2010-03-07T10:36:44Z</time>
      </trkpt>
      <trkpt lat="50.42605" lon="3.4604">
        <ele>22.24755859375</ele>
        <time>2010-03-07T10:36:49Z</time>
      </trkpt>
      <trkpt lat="50.42603" lon="3.46055">
        <ele>23.208984375</ele>
        <time>2010-03-07T10:36:51Z</time>
      </trkpt>
      <trkpt lat="50.42593" lon="3.46098">
        <ele>27.054321289062</ele>
        <time>2010-03-07T10:36:57Z</time>
      </trkpt>
      <trkpt lat="50.42588" lon="3.46121">
        <ele>28.015502929688</ele>
        <time>2010-03-07T10:37:00Z</time>
      </trkpt>
      <trkpt lat="50.42579" lon="3.46179">
        <ele>30.418823242188</ele>
        <time>2010-03-07T10:37:08Z</time>
      </trkpt>
      <trkpt lat="50.42576" lon="3.46189">
        <ele>30.899536132812</ele>
        <time>2010-03-07T10:37:10Z</time>
      </trkpt>
      <trkpt lat="50.42564" lon="3.46188">
        <ele>32.822265625</ele>
        <time>2010-03-07T10:37:14Z</time>
      </trkpt>
      <trkpt lat="50.42554" lon="3.46182">
        <ele>35.225463867188</ele>
        <time>2010-03-07T10:37:17Z</time>
      </trkpt>
      <trkpt lat="50.4253" lon="3.46155">
        <ele>44.838623046875</ele>
        <time>2010-03-07T10:37:25Z</time>
      </trkpt>
      <trkpt lat="50.42513" lon="3.46141">
        <ele>50.606567382812</ele>
        <time>2010-03-07T10:37:31Z</time>
      </trkpt>
      <trkpt lat="50.42502" lon="3.46128">
        <ele>53.009765625</ele>
        <time>2010-03-07T10:37:36Z</time>
      </trkpt>
      <trkpt lat="50.42488" lon="3.46115">
        <ele>55.893798828125</ele>
        <time>2010-03-07T10:37:42Z</time>
      </trkpt>
      <trkpt lat="50.42474" lon="3.46104">
        <ele>56.37451171875</ele>
        <time>2010-03-07T10:37:47Z</time>
      </trkpt>
      <trkpt lat="50.42455" lon="3.46086">
        <ele>54.932373046875</ele>
        <time>2010-03-07T10:37:55Z</time>
      </trkpt>
      <trkpt lat="50.42443" lon="3.46078">
        <ele>51.56787109375</ele>
        <time>2010-03-07T10:38:01Z</time>
      </trkpt>
      <trkpt lat="50.42435" lon="3.46074">
        <ele>48.203369140625</ele>
        <time>2010-03-07T10:38:07Z</time>
      </trkpt>
      <trkpt lat="50.42425" lon="3.46068">
        <ele>44.838623046875</ele>
        <time>2010-03-07T10:38:14Z</time>
      </trkpt>
      <trkpt lat="50.42417" lon="3.46065">
        <ele>42.435424804688</ele>
        <time>2010-03-07T10:38:19Z</time>
      </trkpt>
      <trkpt lat="50.42407" lon="3.46059">
        <ele>42.435424804688</ele>
        <time>2010-03-07T10:38:24Z</time>
      </trkpt>
      <trkpt lat="50.42403" lon="3.46054">
        <ele>44.358032226562</ele>
        <time>2010-03-07T10:38:26Z</time>
      </trkpt>
      <trkpt lat="50.424" lon="3.46053">
        <ele>44.358032226562</ele>
        <time>2010-03-07T10:38:28Z</time>
      </trkpt>
      <trkpt lat="50.4239" lon="3.46066">
        <ele>47.722534179688</ele>
        <time>2010-03-07T10:38:33Z</time>
      </trkpt>
      <trkpt lat="50.4237" lon="3.46115">
        <ele>46.76123046875</ele>
        <time>2010-03-07T10:38:40Z</time>
      </trkpt>
      <trkpt lat="50.42346" lon="3.46156">
        <ele>46.76123046875</ele>
        <time>2010-03-07T10:38:46Z</time>
      </trkpt>
      <trkpt lat="50.42338" lon="3.46175">
        <ele>46.280639648438</ele>
        <time>2010-03-07T10:38:49Z</time>
      </trkpt>
      <trkpt lat="50.42333" lon="3.46188">
        <ele>47.241821289062</ele>
        <time>2010-03-07T10:38:51Z</time>
      </trkpt>
      <trkpt lat="50.42327" lon="3.46207">
        <ele>49.16455078125</ele>
        <time>2010-03-07T10:38:54Z</time>
      </trkpt>
      <trkpt lat="50.42318" lon="3.46227">
        <ele>45.799926757812</ele>
        <time>2010-03-07T10:38:57Z</time>
      </trkpt>
      <trkpt lat="50.42301" lon="3.46264">
        <ele>43.396606445312</ele>
        <time>2010-03-07T10:39:03Z</time>
      </trkpt>
      <trkpt lat="50.42286" lon="3.46301">
        <ele>40.993408203125</ele>
        <time>2010-03-07T10:39:10Z</time>
      </trkpt>
      <trkpt lat="50.42277" lon="3.46327">
        <ele>40.512817382812</ele>
        <time>2010-03-07T10:39:15Z</time>
      </trkpt>
      <trkpt lat="50.42266" lon="3.4636">
        <ele>42.435424804688</ele>
        <time>2010-03-07T10:39:21Z</time>
      </trkpt>
      <trkpt lat="50.42251" lon="3.46396">
        <ele>42.916015625</ele>
        <time>2010-03-07T10:39:26Z</time>
      </trkpt>
      <trkpt lat="50.42237" lon="3.46437">
        <ele>42.916015625</ele>
        <time>2010-03-07T10:39:31Z</time>
      </trkpt>
      <trkpt lat="50.42218" lon="3.46485">
        <ele>43.877319335938</ele>
        <time>2010-03-07T10:39:37Z</time>
      </trkpt>
      <trkpt lat="50.42212" lon="3.465">
        <ele>43.396606445312</ele>
        <time>2010-03-07T10:39:39Z</time>
      </trkpt>
      <trkpt lat="50.42196" lon="3.46544">
        <ele>41.954711914062</ele>
        <time>2010-03-07T10:39:44Z</time>
      </trkpt>
      <trkpt lat="50.42192" lon="3.4655">
        <ele>41.473999023438</ele>
        <time>2010-03-07T10:39:45Z</time>
      </trkpt>
      <trkpt lat="50.42172" lon="3.4658">
        <ele>44.358032226562</ele>
        <time>2010-03-07T10:39:51Z</time>
      </trkpt>
      <trkpt lat="50.42165" lon="3.46585">
        <ele>43.877319335938</ele>
        <time>2010-03-07T10:39:53Z</time>
      </trkpt>
      <trkpt lat="50.42136" lon="3.46593">
        <ele>37.628662109375</ele>
        <time>2010-03-07T10:40:00Z</time>
      </trkpt>
      <trkpt lat="50.4212" lon="3.46608">
        <ele>35.7060546875</ele>
        <time>2010-03-07T10:40:04Z</time>
      </trkpt>
      <trkpt lat="50.421" lon="3.46646">
        <ele>33.783447265625</ele>
        <time>2010-03-07T10:40:09Z</time>
      </trkpt>
      <trkpt lat="50.42091" lon="3.46666">
        <ele>35.225463867188</ele>
        <time>2010-03-07T10:40:13Z</time>
      </trkpt>
      <trkpt lat="50.42088" lon="3.46671">
        <ele>37.148071289062</ele>
        <time>2010-03-07T10:40:16Z</time>
      </trkpt>
      <trkpt lat="50.42088" lon="3.46671">
        <ele>38.109375</ele>
        <time>2010-03-07T10:40:17Z</time>
      </trkpt>
      <trkpt lat="50.42089" lon="3.4667">
        <ele>38.590087890625</ele>
        <time>2010-03-07T10:40:20Z</time>
      </trkpt>
      <trkpt lat="50.42084" lon="3.46685">
        <ele>40.512817382812</ele>
        <time>2010-03-07T10:40:22Z</time>
      </trkpt>
      <trkpt lat="50.42081" lon="3.46691">
        <ele>40.993408203125</ele>
        <time>2010-03-07T10:40:23Z</time>
      </trkpt>
      <trkpt lat="50.42066" lon="3.46728">
        <ele>40.993408203125</ele>
        <time>2010-03-07T10:40:29Z</time>
      </trkpt>
      <trkpt lat="50.42046" lon="3.4677">
        <ele>39.55126953125</ele>
        <time>2010-03-07T10:40:36Z</time>
      </trkpt>
      <trkpt lat="50.42034" lon="3.46789">
        <ele>40.032104492188</ele>
        <time>2010-03-07T10:40:39Z</time>
      </trkpt>
      <trkpt lat="50.42016" lon="3.46823">
        <ele>40.993408203125</ele>
        <time>2010-03-07T10:40:45Z</time>
      </trkpt>
      <trkpt lat="50.42" lon="3.46852">
        <ele>40.512817382812</ele>
        <time>2010-03-07T10:40:51Z</time>
      </trkpt>
      <trkpt lat="50.41985" lon="3.46864">
        <ele>41.954711914062</ele>
        <time>2010-03-07T10:40:55Z</time>
      </trkpt>
      <trkpt lat="50.4197" lon="3.46875">
        <ele>39.070678710938</ele>
        <time>2010-03-07T10:41:00Z</time>
      </trkpt>
      <trkpt lat="50.41953" lon="3.46887">
        <ele>37.628662109375</ele>
        <time>2010-03-07T10:41:05Z</time>
      </trkpt>
      <trkpt lat="50.41925" lon="3.46907">
        <ele>35.7060546875</ele>
        <time>2010-03-07T10:41:11Z</time>
      </trkpt>
      <trkpt lat="50.41911" lon="3.46916">
        <ele>35.7060546875</ele>
        <time>2010-03-07T10:41:15Z</time>
      </trkpt>
      <trkpt lat="50.41892" lon="3.46931">
        <ele>34.744873046875</ele>
        <time>2010-03-07T10:41:20Z</time>
      </trkpt>
      <trkpt lat="50.41871" lon="3.46948">
        <ele>34.744873046875</ele>
        <time>2010-03-07T10:41:25Z</time>
      </trkpt>
      <trkpt lat="50.41855" lon="3.46957">
        <ele>33.783447265625</ele>
        <time>2010-03-07T10:41:29Z</time>
      </trkpt>
      <trkpt lat="50.41829" lon="3.46972">
        <ele>30.899536132812</ele>
        <time>2010-03-07T10:41:35Z</time>
      </trkpt>
      <trkpt lat="50.41809" lon="3.46984">
        <ele>28.976928710938</ele>
        <time>2010-03-07T10:41:40Z</time>
      </trkpt>
      <trkpt lat="50.41779" lon="3.46993">
        <ele>26.092895507812</ele>
        <time>2010-03-07T10:41:46Z</time>
      </trkpt>
      <trkpt lat="50.4176" lon="3.46997">
        <ele>22.728271484375</ele>
        <time>2010-03-07T10:41:50Z</time>
      </trkpt>
      <trkpt lat="50.4175" lon="3.46998">
        <ele>20.8056640625</ele>
        <time>2010-03-07T10:41:52Z</time>
      </trkpt>
      <trkpt lat="50.4174" lon="3.46999">
        <ele>19.844360351562</ele>
        <time>2010-03-07T10:41:54Z</time>
      </trkpt>
      <trkpt lat="50.41708" lon="3.47008">
        <ele>21.286376953125</ele>
        <time>2010-03-07T10:42:01Z</time>
      </trkpt>
      <trkpt lat="50.41689" lon="3.47006">
        <ele>19.844360351562</ele>
        <time>2010-03-07T10:42:05Z</time>
      </trkpt>
      <trkpt lat="50.41673" lon="3.47005">
        <ele>21.286376953125</ele>
        <time>2010-03-07T10:42:08Z</time>
      </trkpt>
      <trkpt lat="50.41654" lon="3.47008">
        <ele>22.24755859375</ele>
        <time>2010-03-07T10:42:12Z</time>
      </trkpt>
      <trkpt lat="50.4163" lon="3.47009">
        <ele>24.651000976562</ele>
        <time>2010-03-07T10:42:17Z</time>
      </trkpt>
      <trkpt lat="50.41599" lon="3.47013">
        <ele>25.131713867188</ele>
        <time>2010-03-07T10:42:23Z</time>
      </trkpt>
      <trkpt lat="50.41563" lon="3.47014">
        <ele>26.092895507812</ele>
        <time>2010-03-07T10:42:29Z</time>
      </trkpt>
      <trkpt lat="50.41528" lon="3.47017">
        <ele>25.131713867188</ele>
        <time>2010-03-07T10:42:35Z</time>
      </trkpt>
      <trkpt lat="50.41509" lon="3.47018">
        <ele>23.208984375</ele>
        <time>2010-03-07T10:42:38Z</time>
      </trkpt>
      <trkpt lat="50.41478" lon="3.47023">
        <ele>26.573608398438</ele>
        <time>2010-03-07T10:42:44Z</time>
      </trkpt>
      <trkpt lat="50.41444" lon="3.47023">
        <ele>28.015502929688</ele>
        <time>2010-03-07T10:42:50Z</time>
      </trkpt>
      <trkpt lat="50.414" lon="3.47029">
        <ele>25.131713867188</ele>
        <time>2010-03-07T10:42:58Z</time>
      </trkpt>
      <trkpt lat="50.41373" lon="3.47032">
        <ele>21.766967773438</ele>
        <time>2010-03-07T10:43:03Z</time>
      </trkpt>
      <trkpt lat="50.41324" lon="3.47039">
        <ele>20.324951171875</ele>
        <time>2010-03-07T10:43:12Z</time>
      </trkpt>
      <trkpt lat="50.41292" lon="3.47042">
        <ele>18.40234375</ele>
        <time>2010-03-07T10:43:18Z</time>
      </trkpt>
      <trkpt lat="50.41251" lon="3.47048">
        <ele>16.96044921875</ele>
        <time>2010-03-07T10:43:26Z</time>
      </trkpt>
      <trkpt lat="50.41213" lon="3.47051">
        <ele>17.441162109375</ele>
        <time>2010-03-07T10:43:34Z</time>
      </trkpt>
      <trkpt lat="50.41176" lon="3.47055">
        <ele>20.324951171875</ele>
        <time>2010-03-07T10:43:42Z</time>
      </trkpt>
      <trkpt lat="50.41162" lon="3.47056">
        <ele>20.324951171875</ele>
        <time>2010-03-07T10:43:45Z</time>
      </trkpt>
      <trkpt lat="50.41154" lon="3.47057">
        <ele>21.286376953125</ele>
        <time>2010-03-07T10:43:47Z</time>
      </trkpt>
      <trkpt lat="50.4113" lon="3.47059">
        <ele>23.208984375</ele>
        <time>2010-03-07T10:43:53Z</time>
      </trkpt>
      <trkpt lat="50.41093" lon="3.47064">
        <ele>21.286376953125</ele>
        <time>2010-03-07T10:44:01Z</time>
      </trkpt>
      <trkpt lat="50.41088" lon="3.47064">
        <ele>21.766967773438</ele>
        <time>2010-03-07T10:44:02Z</time>
      </trkpt>
      <trkpt lat="50.41063" lon="3.47068">
        <ele>24.651000976562</ele>
        <time>2010-03-07T10:44:08Z</time>
      </trkpt>
      <trkpt lat="50.41052" lon="3.47083">
        <ele>25.131713867188</ele>
        <time>2010-03-07T10:44:12Z</time>
      </trkpt>
      <trkpt lat="50.41052" lon="3.47094">
        <ele>27.054321289062</ele>
        <time>2010-03-07T10:44:14Z</time>
      </trkpt>
      <trkpt lat="50.41049" lon="3.4712">
        <ele>31.380126953125</ele>
        <time>2010-03-07T10:44:19Z</time>
      </trkpt>
      <trkpt lat="50.41049" lon="3.47126">
        <ele>31.380126953125</ele>
        <time>2010-03-07T10:44:20Z</time>
      </trkpt>
      <trkpt lat="50.41055" lon="3.47146">
        <ele>33.783447265625</ele>
        <time>2010-03-07T10:44:24Z</time>
      </trkpt>
      <trkpt lat="50.41074" lon="3.4717">
        <ele>37.628662109375</ele>
        <time>2010-03-07T10:44:30Z</time>
      </trkpt>
      <trkpt lat="50.41078" lon="3.47181">
        <ele>38.109375</ele>
        <time>2010-03-07T10:44:32Z</time>
      </trkpt>
      <trkpt lat="50.41083" lon="3.47209">
        <ele>42.435424804688</ele>
        <time>2010-03-07T10:44:37Z</time>
      </trkpt>
      <trkpt lat="50.41089" lon="3.47236">
        <ele>47.722534179688</ele>
        <time>2010-03-07T10:44:43Z</time>
      </trkpt>
      <trkpt lat="50.41085" lon="3.47252">
        <ele>47.241821289062</ele>
        <time>2010-03-07T10:44:47Z</time>
      </trkpt>
      <trkpt lat="50.41076" lon="3.47264">
        <ele>43.877319335938</ele>
        <time>2010-03-07T10:44:51Z</time>
      </trkpt>
      <trkpt lat="50.41058" lon="3.47277">
        <ele>37.628662109375</ele>
        <time>2010-03-07T10:44:57Z</time>
      </trkpt>
      <trkpt lat="50.41043" lon="3.47288">
        <ele>33.302856445312</ele>
        <time>2010-03-07T10:45:02Z</time>
      </trkpt>
      <trkpt lat="50.41027" lon="3.47298">
        <ele>34.26416015625</ele>
        <time>2010-03-07T10:45:08Z</time>
      </trkpt>
      <trkpt lat="50.41015" lon="3.47317">
        <ele>36.186767578125</ele>
        <time>2010-03-07T10:45:13Z</time>
      </trkpt>
      <trkpt lat="50.41012" lon="3.47321">
        <ele>35.7060546875</ele>
        <time>2010-03-07T10:45:14Z</time>
      </trkpt>
      <trkpt lat="50.40998" lon="3.4732">
        <ele>35.7060546875</ele>
        <time>2010-03-07T10:45:20Z</time>
      </trkpt>
      <trkpt lat="50.40992" lon="3.47319">
        <ele>35.225463867188</ele>
        <time>2010-03-07T10:45:23Z</time>
      </trkpt>
      <trkpt lat="50.40977" lon="3.47318">
        <ele>31.860717773438</ele>
        <time>2010-03-07T10:45:29Z</time>
      </trkpt>
      <trkpt lat="50.4097" lon="3.47322">
        <ele>33.302856445312</ele>
        <time>2010-03-07T10:45:33Z</time>
      </trkpt>
      <trkpt lat="50.40958" lon="3.47317">
        <ele>31.380126953125</ele>
        <time>2010-03-07T10:45:38Z</time>
      </trkpt>
      <trkpt lat="50.40952" lon="3.47315">
        <ele>30.899536132812</ele>
        <time>2010-03-07T10:45:40Z</time>
      </trkpt>
      <trkpt lat="50.40938" lon="3.47311">
        <ele>35.7060546875</ele>
        <time>2010-03-07T10:45:46Z</time>
      </trkpt>
      <trkpt lat="50.40924" lon="3.47302">
        <ele>35.225463867188</ele>
        <time>2010-03-07T10:45:51Z</time>
      </trkpt>
      <trkpt lat="50.40916" lon="3.47291">
        <ele>35.225463867188</ele>
        <time>2010-03-07T10:45:55Z</time>
      </trkpt>
      <trkpt lat="50.40914" lon="3.47267">
        <ele>34.26416015625</ele>
        <time>2010-03-07T10:46:00Z</time>
      </trkpt>
      <trkpt lat="50.40915" lon="3.47245">
        <ele>33.783447265625</ele>
        <time>2010-03-07T10:46:04Z</time>
      </trkpt>
      <trkpt lat="50.40917" lon="3.47221">
        <ele>33.302856445312</ele>
        <time>2010-03-07T10:46:09Z</time>
      </trkpt>
      <trkpt lat="50.40917" lon="3.47205">
        <ele>31.860717773438</ele>
        <time>2010-03-07T10:46:13Z</time>
      </trkpt>
      <trkpt lat="50.40918" lon="3.47183">
        <ele>31.380126953125</ele>
        <time>2010-03-07T10:46:18Z</time>
      </trkpt>
      <trkpt lat="50.40919" lon="3.47178">
        <ele>29.938110351562</ele>
        <time>2010-03-07T10:46:20Z</time>
      </trkpt>
      <trkpt lat="50.40914" lon="3.47154">
        <ele>29.938110351562</ele>
        <time>2010-03-07T10:46:26Z</time>
      </trkpt>
      <trkpt lat="50.40913" lon="3.47151">
        <ele>29.45751953125</ele>
        <time>2010-03-07T10:46:27Z</time>
      </trkpt>
      <trkpt lat="50.40905" lon="3.47134">
        <ele>30.899536132812</ele>
        <time>2010-03-07T10:46:31Z</time>
      </trkpt>
      <trkpt lat="50.40877" lon="3.4712">
        <ele>18.883056640625</ele>
        <time>2010-03-07T10:46:36Z</time>
      </trkpt>
      <trkpt lat="50.40865" lon="3.47115">
        <ele>15.518432617188</ele>
        <time>2010-03-07T10:46:38Z</time>
      </trkpt>
      <trkpt lat="50.40852" lon="3.47113">
        <ele>12.634399414062</ele>
        <time>2010-03-07T10:46:40Z</time>
      </trkpt>
      <trkpt lat="50.40812" lon="3.47111">
        <ele>8.7891845703125</ele>
        <time>2010-03-07T10:46:47Z</time>
      </trkpt>
      <trkpt lat="50.40774" lon="3.47109">
        <ele>9.7506103515625</ele>
        <time>2010-03-07T10:46:54Z</time>
      </trkpt>
      <trkpt lat="50.40734" lon="3.47106">
        <ele>15.9990234375</ele>
        <time>2010-03-07T10:47:01Z</time>
      </trkpt>
      <trkpt lat="50.40724" lon="3.47106">
        <ele>15.9990234375</ele>
        <time>2010-03-07T10:47:03Z</time>
      </trkpt>
      <trkpt lat="50.40716" lon="3.47107">
        <ele>15.9990234375</ele>
        <time>2010-03-07T10:47:05Z</time>
      </trkpt>
      <trkpt lat="50.40695" lon="3.4712">
        <ele>17.441162109375</ele>
        <time>2010-03-07T10:47:11Z</time>
      </trkpt>
      <trkpt lat="50.40695" lon="3.47146">
        <ele>20.324951171875</ele>
        <time>2010-03-07T10:47:16Z</time>
      </trkpt>
      <trkpt lat="50.40702" lon="3.47184">
        <ele>21.766967773438</ele>
        <time>2010-03-07T10:47:22Z</time>
      </trkpt>
      <trkpt lat="50.40711" lon="3.47236">
        <ele>22.728271484375</ele>
        <time>2010-03-07T10:47:30Z</time>
      </trkpt>
      <trkpt lat="50.40721" lon="3.47291">
        <ele>24.170288085938</ele>
        <time>2010-03-07T10:47:39Z</time>
      </trkpt>
      <trkpt lat="50.40731" lon="3.47343">
        <ele>26.092895507812</ele>
        <time>2010-03-07T10:47:48Z</time>
      </trkpt>
      <trkpt lat="50.40731" lon="3.47371">
        <ele>27.054321289062</ele>
        <time>2010-03-07T10:47:53Z</time>
      </trkpt>
      <trkpt lat="50.40721" lon="3.47382">
        <ele>30.418823242188</ele>
        <time>2010-03-07T10:47:57Z</time>
      </trkpt>
      <trkpt lat="50.40692" lon="3.47399">
        <ele>35.7060546875</ele>
        <time>2010-03-07T10:48:05Z</time>
      </trkpt>
      <trkpt lat="50.40678" lon="3.47408">
        <ele>39.070678710938</ele>
        <time>2010-03-07T10:48:09Z</time>
      </trkpt>
      <trkpt lat="50.40646" lon="3.4743">
        <ele>33.302856445312</ele>
        <time>2010-03-07T10:48:16Z</time>
      </trkpt>
      <trkpt lat="50.40615" lon="3.4745">
        <ele>29.45751953125</ele>
        <time>2010-03-07T10:48:22Z</time>
      </trkpt>
      <trkpt lat="50.4059" lon="3.47466">
        <ele>27.054321289062</ele>
        <time>2010-03-07T10:48:27Z</time>
      </trkpt>
      <trkpt lat="50.40543" lon="3.47497">
        <ele>26.092895507812</ele>
        <time>2010-03-07T10:48:36Z</time>
      </trkpt>
      <trkpt lat="50.40504" lon="3.47523">
        <ele>24.651000976562</ele>
        <time>2010-03-07T10:48:43Z</time>
      </trkpt>
      <trkpt lat="50.40459" lon="3.4755">
        <ele>27.534912109375</ele>
        <time>2010-03-07T10:48:51Z</time>
      </trkpt>
      <trkpt lat="50.40421" lon="3.47575">
        <ele>25.6123046875</ele>
        <time>2010-03-07T10:48:58Z</time>
      </trkpt>
      <trkpt lat="50.40368" lon="3.47608">
        <ele>25.6123046875</ele>
        <time>2010-03-07T10:49:08Z</time>
      </trkpt>
      <trkpt lat="50.40329" lon="3.47633">
        <ele>26.573608398438</ele>
        <time>2010-03-07T10:49:15Z</time>
      </trkpt>
      <trkpt lat="50.40293" lon="3.47659">
        <ele>27.534912109375</ele>
        <time>2010-03-07T10:49:22Z</time>
      </trkpt>
      <trkpt lat="50.40258" lon="3.47681">
        <ele>23.208984375</ele>
        <time>2010-03-07T10:49:29Z</time>
      </trkpt>
      <trkpt lat="50.40253" lon="3.47684">
        <ele>22.24755859375</ele>
        <time>2010-03-07T10:49:30Z</time>
      </trkpt>
      <trkpt lat="50.40246" lon="3.47693">
        <ele>22.24755859375</ele>
        <time>2010-03-07T10:49:32Z</time>
      </trkpt>
      <trkpt lat="50.40221" lon="3.47704">
        <ele>19.36376953125</ele>
        <time>2010-03-07T10:49:38Z</time>
      </trkpt>
      <trkpt lat="50.40187" lon="3.47724">
        <ele>18.883056640625</ele>
        <time>2010-03-07T10:49:45Z</time>
      </trkpt>
      <trkpt lat="50.40178" lon="3.47731">
        <ele>18.883056640625</ele>
        <time>2010-03-07T10:49:47Z</time>
      </trkpt>
      <trkpt lat="50.40132" lon="3.47759">
        <ele>18.883056640625</ele>
        <time>2010-03-07T10:49:56Z</time>
      </trkpt>
      <trkpt lat="50.401" lon="3.47779">
        <ele>17.921752929688</ele>
        <time>2010-03-07T10:50:02Z</time>
      </trkpt>
      <trkpt lat="50.40052" lon="3.4781">
        <ele>17.441162109375</ele>
        <time>2010-03-07T10:50:11Z</time>
      </trkpt>
      <trkpt lat="50.40047" lon="3.47814">
        <ele>17.441162109375</ele>
        <time>2010-03-07T10:50:12Z</time>
      </trkpt>
      <trkpt lat="50.40015" lon="3.47832">
        <ele>16.479736328125</ele>
        <time>2010-03-07T10:50:18Z</time>
      </trkpt>
      <trkpt lat="50.39975" lon="3.47858">
        <ele>16.479736328125</ele>
        <time>2010-03-07T10:50:26Z</time>
      </trkpt>
      <trkpt lat="50.39956" lon="3.47872">
        <ele>16.479736328125</ele>
        <time>2010-03-07T10:50:30Z</time>
      </trkpt>
      <trkpt lat="50.39937" lon="3.47884">
        <ele>16.479736328125</ele>
        <time>2010-03-07T10:50:34Z</time>
      </trkpt>
      <trkpt lat="50.39922" lon="3.47893">
        <ele>16.96044921875</ele>
        <time>2010-03-07T10:50:37Z</time>
      </trkpt>
      <trkpt lat="50.39886" lon="3.47913">
        <ele>16.96044921875</ele>
        <time>2010-03-07T10:50:44Z</time>
      </trkpt>
      <trkpt lat="50.39848" lon="3.47937">
        <ele>17.921752929688</ele>
        <time>2010-03-07T10:50:52Z</time>
      </trkpt>
      <trkpt lat="50.39803" lon="3.47966">
        <ele>18.883056640625</ele>
        <time>2010-03-07T10:51:02Z</time>
      </trkpt>
      <trkpt lat="50.39782" lon="3.47982">
        <ele>20.324951171875</ele>
        <time>2010-03-07T10:51:07Z</time>
      </trkpt>
      <trkpt lat="50.39766" lon="3.48008">
        <ele>21.766967773438</ele>
        <time>2010-03-07T10:51:12Z</time>
      </trkpt>
      <trkpt lat="50.39759" lon="3.48059">
        <ele>23.208984375</ele>
        <time>2010-03-07T10:51:19Z</time>
      </trkpt>
      <trkpt lat="50.39758" lon="3.48074">
        <ele>23.208984375</ele>
        <time>2010-03-07T10:51:21Z</time>
      </trkpt>
      <trkpt lat="50.39754" lon="3.48134">
        <ele>25.131713867188</ele>
        <time>2010-03-07T10:51:29Z</time>
      </trkpt>
      <trkpt lat="50.3975" lon="3.48186">
        <ele>27.534912109375</ele>
        <time>2010-03-07T10:51:36Z</time>
      </trkpt>
      <trkpt lat="50.39746" lon="3.48232">
        <ele>29.938110351562</ele>
        <time>2010-03-07T10:51:43Z</time>
      </trkpt>
      <trkpt lat="50.39742" lon="3.48276">
        <ele>29.938110351562</ele>
        <time>2010-03-07T10:51:50Z</time>
      </trkpt>
      <trkpt lat="50.39739" lon="3.48323">
        <ele>29.45751953125</ele>
        <time>2010-03-07T10:51:57Z</time>
      </trkpt>
      <trkpt lat="50.39738" lon="3.48336">
        <ele>29.45751953125</ele>
        <time>2010-03-07T10:51:59Z</time>
      </trkpt>
      <trkpt lat="50.39735" lon="3.48381">
        <ele>29.45751953125</ele>
        <time>2010-03-07T10:52:06Z</time>
      </trkpt>
      <trkpt lat="50.39734" lon="3.48395">
        <ele>28.976928710938</ele>
        <time>2010-03-07T10:52:09Z</time>
      </trkpt>
    </trkseg>
  </trk>
</gpx>